[[{"header":{"parameterUnit":"m.s-1","parameterCategory":1,"la1":31.0,"la2":29.5877,"lo1":-88.7671,"lo2":-86.6584,"dx":0.0162,"dy":0.0185,"nx":115,"ny":88,"refTime":"2023-01-11T18:00:00:Z","depth":0,"parameterNumber":2,"parameterNumberName":"U-component_of_WINDS"},"data":[0.0,0.0,0.0,0.0,0.0,0.0,0.0,0.0,0.0,0.0,0.0,0.0,0.0,0.0,0.0,0.0,0.0,0.0,0.0,0.0,0.0,0.0,0.0,0.0,0.0,0.0,0.0,0.0,0.0,0.0,0.0,0.0,0.0,0.0,0.0,0.0,0.0,0.0,0.0,0.0,0.0,0.0,0.0,0.0,0.0,0.0,0.0,0.0,0.0,0.0,0.0,0.0,0.0,0.0,0.0,0.0,0.0,0.0,0.0,0.0,0.0,0.0,0.0,0.0,0.0,0.0,0.0,0.0,0.0,0.0,0.0,0.0,0.0,0.0,0.0,0.0,0.0,0.0,0.0,0.0,0.0,0.0,0.0,0.0,0.0,0.0,0.0,0.0,0.0,0.0,0.0,0.0,0.0,0.0,0.0,0.0,0.0,0.0,0.0,0.0,0.0,0.0,0.0,0.0,0.0,0.0,0.0,0.0,0.0,0.0,0.0,0.0,0.0,0.0,0.0,0.0,0.0,0.0,0.0,0.0,0.0,0.0,0.0,0.0,0.0,0.0,0.0,0.0,0.0,0.0,0.0,0.0,0.0,0.0,0.0,0.0,0.0,0.0,0.0,0.0,0.0,0.0,0.0,0.0,0.0,0.0,0.0,0.0,0.0,0.0,0.0,0.0,0.0,0.0,0.0,0.0,0.0,0.0,0.0,0.0,0.0,0.0,0.0,0.0,0.0,0.0,0.0,0.0,0.0,0.0,0.0,0.0,0.0,0.0,0.0,0.0,0.0,0.0,0.0,0.0,0.0,0.0,0.0,0.0,0.0,0.0,0.0,0.0,0.0,0.0,0.0,0.0,0.0,0.0,0.0,0.0,0.0,0.0,0.0,0.0,0.0,0.0,0.0,0.0,0.0,0.0,0.0,0.0,0.0,0.0,0.0,0.0,0.0,0.0,0.0,0.0,0.0,0.0,0.0,0.0,0.0,0.0,0.0,0.0,0.0,0.0,0.0,0.0,0.0,0.0,0.0,0.0,0.0,0.0,0.0,0.0,0.0,0.0,0.0,0.0,0.0,0.0,0.0,0.0,0.0,0.0,0.0,0.0,0.0,0.0,0.0,0.0,0.0,0.0,0.0,0.0,0.0,0.0,0.0,0.0,0.0,0.0,0.0,0.0,0.0,0.0,0.0,0.0,0.0,0.0,0.0,0.0,0.0,0.0,0.0,0.0,0.0,0.0,0.0,0.0,0.0,0.0,0.0,0.0,0.0,0.0,0.0,0.0,0.0,0.0,0.0,0.0,0.0,0.0,0.0,0.0,0.0,0.0,0.0,0.0,0.0,0.0,0.0,0.0,0.0,0.0,0.0,0.0,0.0,0.0,0.0,0.0,0.0,0.0,0.0,0.0,0.0,0.0,0.0,0.0,0.0,0.0,0.0,0.0,0.0,0.0,0.0,0.0,0.0,0.0,0.0,0.0,0.0,0.0,0.0,0.0,0.0,0.0,0.0,0.0,0.0,0.0,0.0,0.0,0.0,0.0,0.0,0.0,0.0,0.0,0.0,0.0,0.0,0.0,0.0,0.0,0.0,0.0,0.0,0.0,0.0,0.0,0.0,0.0,0.0,0.0,0.0,0.0,0.0,0.0,0.0,0.0,0.0,0.0,0.0,0.0,0.0,0.0,0.0,0.0,0.0,0.0,0.0,0.0,0.0,0.0,0.0,0.0,0.0,0.0,0.0,0.0,0.0,0.0,0.0,0.0,0.0,0.0,0.0,0.0,0.0,0.0,0.0,0.0,0.0,0.0,0.0,0.0,0.0,0.0,0.0,0.0,0.0,0.0,0.0,0.0,0.0,0.0,0.0,0.0,0.0,0.0,0.0,0.0,0.0,0.0,0.0,0.0,0.0,0.0,0.0,0.0,0.0,0.0,0.0,0.0,0.0,0.0,0.0,0.0,0.0,0.0,0.0,0.0,0.0,0.0,0.0,0.0,0.0,0.0,0.0,0.0,0.0,0.0,0.0,0.0,0.0,0.0,0.0,0.0,0.0,0.0,0.0,0.0,0.0,0.0,0.0,0.0,0.0,0.0,0.0,0.0,0.0,0.0,0.0,0.0,0.0,0.0,0.0,0.0,0.0,0.0,0.0,0.0,0.0,0.0,0.0,0.0,0.0,0.0,0.0,0.0,0.0,0.0,0.0,0.0,0.0,0.0,0.0,0.0,0.0,0.0,0.0,0.0,0.0,0.0,0.0,0.0,0.0,0.0,0.0,0.0,0.0,0.0,0.0,0.0,0.0,0.0,0.0,0.0,0.0,0.0,0.0,0.0,0.0,0.0,0.0,0.0,0.0,0.0,0.0,0.0,0.0,0.0,0.0,0.0,0.0,0.0,0.0,0.0,0.0,0.0,0.0,0.0,0.0,0.0,0.0,0.0,0.0,0.0,0.0,0.0,0.0,0.0,0.0,0.0,0.0,0.0,0.0,0.0,0.0,0.0,0.0,0.0,0.0,0.0,0.0,0.0,0.0,0.0,0.0,0.0,0.0,0.0,0.0,0.0,0.0,0.0,0.0,0.0,0.0,0.0,0.0,0.0,0.0,0.0,0.0,0.0,0.0,0.0,0.0,0.0,0.0,0.0,0.0,0.0,0.0,0.0,0.0,0.0,0.0,0.0,0.0,0.0,0.0,0.0,0.0,0.0,0.0,0.0,0.0,0.0,0.0,0.0,0.0,0.0,0.0,0.0,0.0,0.0,0.0,0.0,0.0,0.0,0.0,0.0,0.0,0.0,0.0,0.0,0.0,0.0,0.0,0.0,0.0,0.0,0.0,0.0,0.0,0.0,0.0,0.0,0.0,0.0,0.0,0.0,0.0,0.0,0.0,0.0,0.0,0.0,0.0,0.0,0.0,0.0,0.0,0.0,0.0,0.0,0.0,0.0,0.0,0.0,0.0,0.0,0.0,0.0,0.0,0.0,0.0,0.0,0.0,0.0,0.0,0.0,0.0,0.0,0.0,0.0,0.0,0.0,0.0,0.0,0.0,0.0,0.0,0.0,0.0,0.0,0.0,0.0,0.0,0.0,0.0,0.0,0.0,0.0,0.0,0.0,0.0,0.0,0.0,0.0,0.0,0.0,0.0,0.0,0.0,0.0,0.0,0.0,0.0,0.0,0.0,0.0,0.0,0.0,0.0,0.0,0.0,0.0,0.0,0.0,0.0,0.0,0.0,0.0,0.0,0.0,0.0,0.0,0.0,0.0,0.0,0.0,0.0,0.0,0.0,0.0,0.0,0.0,0.0,0.0,0.0,0.0,0.0,0.0,0.0,0.0,0.0,0.0,0.0,0.0,0.0,0.0,0.0,0.0,0.0,0.0,0.0,0.0,0.0,0.0,0.0,0.0,0.0,0.0,0.0,0.0,0.0,0.0,0.0,0.0,0.0,0.0,0.0,0.0,0.0,0.0,0.0,0.0,0.0,0.0,0.0,0.0,0.0,0.0,0.0,0.0,0.0,0.0,0.0,0.0,0.0,0.0,0.0,0.0,0.0,0.0,0.0,0.0,0.0,0.0,0.0,0.0,0.0,0.0,0.0,0.0,0.0,0.0,0.0,0.0,0.0,0.0,0.0,0.0,0.0,0.0,0.0,0.0,0.0,0.0,0.0,0.0,0.0,0.0,0.0,0.0,0.0,0.0,0.0,0.0,0.0,0.0,0.0,0.0,0.0,0.0,0.0,0.0,0.0,0.0,0.0,0.0,0.0,0.0,0.0,0.0,0.0,0.0,0.0,0.0,0.0,0.0,0.0,0.0,0.0,0.0,0.0,0.0,0.0,0.0,0.0,0.0,0.0,0.0,0.0,0.0,0.0,0.0,0.0,0.0,0.0,0.0,0.0,0.0,0.0,0.0,0.0,0.0,0.0,0.0,0.0,0.0,0.0,0.0,0.0,0.0,0.0,0.0,0.0,0.0,0.0,0.0,0.0,0.0,0.0,0.0,0.0,0.0,0.0,0.0,0.0,0.0,0.0,0.0,0.0,0.0,0.0,0.0,0.0,0.0,0.0,0.0,0.0,0.0,0.0,0.0,0.0,0.0,0.0,0.0,0.0,0.0,0.0,0.0,0.0,0.0,0.0,0.0,0.0,0.0,0.0,0.0,0.0,0.0,0.0,0.0,0.0,0.0,0.0,0.0,0.0,0.0,0.0,0.0,0.0,0.0,0.0,0.0,0.0,0.0,0.0,0.0,0.0,0.0,0.0,0.0,0.0,0.0,-3.7985,0.0,0.0,0.0,-3.9624,0.0,0.0,0.0,0.0,0.0,0.0,0.0,0.0,0.0,0.0,0.0,0.0,0.0,0.0,0.0,0.0,0.0,0.0,0.0,0.0,0.0,0.0,0.0,0.0,0.0,0.0,0.0,0.0,0.0,0.0,0.0,0.0,0.0,0.0,0.0,0.0,0.0,0.0,0.0,0.0,0.0,0.0,0.0,0.0,0.0,0.0,0.0,0.0,0.0,0.0,0.0,0.0,0.0,0.0,0.0,0.0,0.0,0.0,0.0,0.0,0.0,0.0,0.0,0.0,0.0,0.0,0.0,0.0,0.0,0.0,0.0,0.0,0.0,0.0,0.0,0.0,0.0,0.0,0.0,0.0,0.0,0.0,0.0,0.0,0.0,0.0,0.0,0.0,0.0,0.0,0.0,0.0,0.0,0.0,0.0,0.0,0.0,0.0,0.0,0.0,0.0,0.0,0.0,0.0,0.0,0.0,0.0,0.0,0.0,0.0,-3.9039,-3.978,-4.0249,-4.0288,-3.9819,0.0,0.0,0.0,0.0,0.0,0.0,0.0,0.0,0.0,0.0,0.0,0.0,0.0,0.0,0.0,0.0,0.0,0.0,0.0,0.0,0.0,0.0,0.0,0.0,0.0,0.0,0.0,0.0,0.0,0.0,0.0,0.0,0.0,0.0,0.0,0.0,0.0,0.0,0.0,0.0,0.0,0.0,0.0,0.0,0.0,0.0,0.0,0.0,0.0,0.0,0.0,0.0,0.0,0.0,0.0,0.0,0.0,0.0,0.0,0.0,0.0,0.0,0.0,0.0,0.0,0.0,0.0,0.0,0.0,0.0,0.0,0.0,0.0,0.0,0.0,0.0,0.0,0.0,0.0,0.0,0.0,0.0,0.0,0.0,0.0,0.0,0.0,0.0,0.0,0.0,0.0,0.0,0.0,0.0,0.0,0.0,0.0,0.0,0.0,0.0,0.0,0.0,0.0,0.0,0.0,0.0,0.0,0.0,0.0,0.0,0.0,0.0,-4.0756,-4.0678,-3.9858,0.0,0.0,0.0,0.0,0.0,0.0,0.0,0.0,0.0,0.0,0.0,0.0,0.0,0.0,0.0,0.0,0.0,0.0,0.0,0.0,0.0,0.0,0.0,0.0,0.0,0.0,0.0,0.0,0.0,0.0,0.0,0.0,0.0,0.0,0.0,0.0,0.0,0.0,0.0,0.0,0.0,0.0,0.0,0.0,0.0,0.0,0.0,0.0,0.0,0.0,0.0,0.0,0.0,0.0,0.0,0.0,0.0,0.0,0.0,0.0,0.0,0.0,0.0,0.0,0.0,0.0,0.0,0.0,0.0,0.0,0.0,0.0,0.0,0.0,0.0,0.0,0.0,0.0,0.0,0.0,0.0,0.0,0.0,0.0,0.0,0.0,0.0,0.0,0.0,0.0,0.0,0.0,0.0,0.0,0.0,0.0,0.0,0.0,0.0,0.0,0.0,0.0,0.0,0.0,0.0,0.0,0.0,0.0,0.0,0.0,-4.0171,-4.0953,-4.107,0.0,-3.9937,0.0,0.0,0.0,0.0,0.0,0.0,0.0,0.0,0.0,0.0,0.0,0.0,0.0,0.0,0.0,0.0,0.0,0.0,0.0,0.0,0.0,0.0,0.0,0.0,0.0,0.0,0.0,0.0,0.0,0.0,0.0,0.0,0.0,0.0,0.0,0.0,0.0,0.0,0.0,0.0,0.0,0.0,0.0,0.0,0.0,0.0,0.0,0.0,0.0,0.0,0.0,0.0,0.0,0.0,0.0,0.0,0.0,0.0,0.0,0.0,0.0,0.0,0.0,0.0,0.0,0.0,0.0,0.0,0.0,0.0,0.0,0.0,0.0,0.0,0.0,0.0,0.0,0.0,0.0,0.0,0.0,0.0,0.0,0.0,0.0,0.0,0.0,0.0,0.0,0.0,0.0,0.0,0.0,0.0,0.0,0.0,0.0,0.0,0.0,0.0,0.0,0.0,0.0,0.0,0.0,0.0,0.0,0.0,0.0,0.0,-4.0756,-4.1109,-4.1109,-4.1186,0.0,0.0,0.0,0.0,0.0,0.0,0.0,0.0,0.0,0.0,0.0,0.0,0.0,0.0,0.0,0.0,0.0,0.0,0.0,0.0,0.0,0.0,0.0,0.0,0.0,0.0,0.0,0.0,0.0,0.0,0.0,0.0,0.0,0.0,0.0,0.0,0.0,0.0,0.0,0.0,0.0,0.0,0.0,0.0,0.0,0.0,0.0,0.0,0.0,0.0,0.0,0.0,0.0,0.0,0.0,0.0,0.0,0.0,0.0,0.0,0.0,0.0,0.0,0.0,0.0,0.0,0.0,0.0,0.0,0.0,0.0,0.0,0.0,0.0,0.0,0.0,0.0,0.0,0.0,0.0,0.0,0.0,0.0,0.0,0.0,0.0,0.0,0.0,0.0,0.0,0.0,0.0,0.0,0.0,0.0,0.0,0.0,0.0,0.0,0.0,0.0,0.0,0.0,0.0,0.0,0.0,0.0,0.0,0.0,0.0,-4.143,-4.1579,-4.1812,-4.1812,-4.2006,-4.2396,0.0,0.0,0.0,0.0,0.0,0.0,0.0,0.0,0.0,0.0,0.0,0.0,0.0,0.0,0.0,0.0,0.0,0.0,0.0,0.0,0.0,0.0,0.0,0.0,0.0,0.0,0.0,0.0,0.0,0.0,0.0,0.0,0.0,0.0,0.0,0.0,0.0,0.0,0.0,0.0,0.0,0.0,0.0,0.0,0.0,0.0,0.0,0.0,0.0,0.0,0.0,0.0,0.0,0.0,0.0,0.0,0.0,0.0,0.0,0.0,0.0,0.0,0.0,0.0,0.0,0.0,0.0,0.0,0.0,0.0,0.0,0.0,0.0,0.0,0.0,0.0,0.0,0.0,0.0,0.0,0.0,0.0,0.0,0.0,0.0,0.0,0.0,0.0,0.0,0.0,0.0,0.0,0.0,0.0,0.0,0.0,0.0,0.0,0.0,0.0,0.0,0.0,0.0,0.0,0.0,0.0,0.0,0.0,-4.2298,-4.2331,-4.2755,-4.353,-4.3608,-4.3216,0.0,0.0,0.0,0.0,0.0,0.0,0.0,0.0,0.0,0.0,0.0,0.0,0.0,0.0,0.0,0.0,0.0,0.0,0.0,0.0,0.0,0.0,0.0,0.0,0.0,0.0,0.0,0.0,0.0,0.0,0.0,0.0,0.0,0.0,0.0,0.0,0.0,0.0,0.0,0.0,0.0,0.0,0.0,0.0,0.0,0.0,0.0,0.0,0.0,0.0,0.0,0.0,0.0,0.0,0.0,0.0,0.0,0.0,0.0,0.0,0.0,0.0,0.0,0.0,0.0,0.0,0.0,0.0,0.0,0.0,0.0,0.0,0.0,0.0,0.0,0.0,0.0,0.0,0.0,0.0,0.0,0.0,0.0,0.0,0.0,0.0,0.0,0.0,0.0,0.0,0.0,0.0,0.0,0.0,0.0,0.0,0.0,0.0,0.0,0.0,0.0,0.0,0.0,0.0,0.0,0.0,0.0,0.0,0.0,-4.32,-4.3228,-4.3648,-4.4465,-4.3997,-4.3801,0.0,0.0,0.0,0.0,0.0,0.0,0.0,0.0,0.0,0.0,0.0,0.0,0.0,0.0,0.0,0.0,0.0,0.0,0.0,0.0,0.0,0.0,0.0,0.0,0.0,0.0,0.0,0.0,0.0,0.0,0.0,0.0,0.0,0.0,0.0,0.0,0.0,0.0,0.0,0.0,0.0,0.0,0.0,0.0,0.0,0.0,0.0,0.0,0.0,0.0,0.0,0.0,0.0,0.0,0.0,0.0,0.0,0.0,0.0,0.0,0.0,0.0,0.0,0.0,0.0,0.0,0.0,0.0,0.0,0.0,0.0,0.0,0.0,0.0,0.0,0.0,0.0,0.0,0.0,0.0,0.0,0.0,0.0,0.0,0.0,0.0,0.0,0.0,0.0,0.0,0.0,0.0,0.0,0.0,0.0,0.0,0.0,0.0,0.0,0.0,0.0,0.0,0.0,0.0,0.0,0.0,0.0,0.0,0.0,-4.4919,-4.5217,-4.5636,-4.6142,-4.5402,-4.509,0.0,0.0,0.0,0.0,0.0,0.0,0.0,0.0,0.0,0.0,0.0,0.0,0.0,0.0,0.0,0.0,0.0,0.0,0.0,0.0,0.0,0.0,0.0,0.0,0.0,0.0,0.0,0.0,0.0,0.0,0.0,0.0,0.0,0.0,0.0,0.0,0.0,0.0,0.0,0.0,0.0,0.0,0.0,0.0,0.0,0.0,0.0,0.0,0.0,0.0,0.0,0.0,0.0,0.0,0.0,0.0,0.0,0.0,0.0,0.0,0.0,0.0,0.0,0.0,0.0,0.0,0.0,0.0,0.0,0.0,0.0,0.0,0.0,0.0,0.0,0.0,0.0,0.0,0.0,0.0,0.0,0.0,0.0,0.0,0.0,0.0,0.0,0.0,0.0,0.0,0.0,0.0,0.0,0.0,0.0,0.0,0.0,0.0,0.0,0.0,0.0,0.0,0.0,0.0,0.0,0.0,0.0,0.0,-4.5076,-4.7493,-4.8377,-4.872,-4.8798,-4.8017,-4.7198,0.0,0.0,0.0,0.0,0.0,0.0,0.0,0.0,0.0,0.0,0.0,0.0,0.0,0.0,0.0,0.0,0.0,0.0,0.0,0.0,0.0,0.0,0.0,0.0,0.0,0.0,0.0,0.0,0.0,0.0,0.0,0.0,0.0,0.0,0.0,0.0,0.0,0.0,0.0,0.0,0.0,0.0,0.0,0.0,0.0,0.0,0.0,0.0,0.0,0.0,0.0,0.0,0.0,0.0,0.0,0.0,0.0,0.0,0.0,0.0,0.0,0.0,0.0,0.0,0.0,0.0,0.0,0.0,0.0,0.0,0.0,0.0,0.0,0.0,0.0,0.0,0.0,0.0,0.0,0.0,0.0,0.0,0.0,0.0,0.0,0.0,0.0,0.0,0.0,0.0,0.0,0.0,0.0,0.0,0.0,0.0,0.0,0.0,0.0,0.0,0.0,0.0,0.0,0.0,0.0,0.0,0.0,0.0,0.0,-4.9328,-5.0134,-5.0594,-5.0555,-4.9772,-4.8913,0.0,0.0,0.0,0.0,0.0,0.0,0.0,0.0,0.0,0.0,0.0,0.0,0.0,0.0,0.0,0.0,0.0,0.0,0.0,0.0,0.0,0.0,0.0,0.0,0.0,0.0,0.0,0.0,0.0,0.0,0.0,0.0,0.0,0.0,0.0,0.0,0.0,0.0,0.0,0.0,0.0,0.0,0.0,0.0,0.0,0.0,0.0,0.0,0.0,0.0,0.0,0.0,0.0,0.0,0.0,0.0,0.0,0.0,0.0,0.0,0.0,0.0,0.0,0.0,0.0,0.0,0.0,0.0,0.0,0.0,0.0,0.0,0.0,0.0,0.0,0.0,0.0,0.0,0.0,0.0,0.0,0.0,0.0,0.0,0.0,0.0,0.0,0.0,0.0,0.0,0.0,0.0,0.0,0.0,0.0,0.0,0.0,0.0,0.0,0.0,0.0,0.0,0.0,0.0,0.0,0.0,0.0,0.0,0.0,-5.3038,-5.3492,-5.3795,-5.3795,-5.2663,-5.1492,-5.0282,0.0,0.0,0.0,0.0,0.0,0.0,0.0,0.0,0.0,0.0,0.0,0.0,0.0,0.0,0.0,0.0,0.0,0.0,0.0,0.0,0.0,0.0,0.0,0.0,0.0,0.0,0.0,0.0,0.0,0.0,0.0,0.0,0.0,0.0,0.0,0.0,0.0,0.0,0.0,0.0,0.0,0.0,0.0,0.0,0.0,0.0,0.0,0.0,0.0,0.0,0.0,0.0,0.0,0.0,0.0,0.0,0.0,0.0,0.0,0.0,0.0,0.0,0.0,0.0,0.0,0.0,0.0,0.0,0.0,0.0,0.0,0.0,0.0,0.0,0.0,0.0,0.0,0.0,0.0,0.0,0.0,0.0,0.0,0.0,0.0,0.0,0.0,0.0,0.0,0.0,0.0,0.0,0.0,0.0,0.0,0.0,0.0,0.0,0.0,0.0,0.0,0.0,0.0,0.0,0.0,0.0,0.0,0.0,-5.8154,-5.8217,-5.8168,-5.7972,-5.6294,-5.4617,0.0,0.0,0.0,0.0,0.0,0.0,0.0,0.0,0.0,0.0,0.0,0.0,0.0,0.0,0.0,0.0,0.0,0.0,0.0,0.0,0.0,0.0,0.0,0.0,0.0,0.0,0.0,0.0,0.0,0.0,0.0,0.0,0.0,0.0,0.0,0.0,0.0,0.0,0.0,0.0,0.0,0.0,0.0,0.0,0.0,0.0,0.0,0.0,0.0,0.0,0.0,0.0,0.0,0.0,0.0,0.0,0.0,0.0,0.0,0.0,0.0,0.0,0.0,0.0,0.0,0.0,0.0,0.0,0.0,0.0,0.0,0.0,0.0,0.0,0.0,0.0,0.0,0.0,0.0,0.0,0.0,0.0,0.0,0.0,0.0,0.0,0.0,0.0,0.0,0.0,0.0,0.0,0.0,0.0,0.0,0.0,0.0,0.0,0.0,0.0,0.0,0.0,0.0,0.0,0.0,0.0,0.0,0.0,0.0,-6.1591,-6.2902,-6.2657,-6.0703,-5.8402,-5.6333,0.0,0.0,0.0,0.0,0.0,0.0,0.0,0.0,0.0,0.0,0.0,0.0,0.0,0.0,0.0,0.0,0.0,0.0,0.0,0.0,0.0,0.0,0.0,0.0,0.0,0.0,0.0,0.0,0.0,0.0,0.0,0.0,0.0,0.0,0.0,0.0,0.0,0.0,0.0,0.0,0.0,0.0,0.0,0.0,0.0,0.0,0.0,0.0,0.0,0.0,0.0,0.0,0.0,0.0,0.0,0.0,0.0,0.0,0.0,0.0,0.0,0.0,0.0,0.0,0.0,0.0,0.0,0.0,0.0,0.0,0.0,0.0,0.0,0.0,0.0,0.0,0.0,0.0,0.0,0.0,0.0,0.0,0.0,0.0,0.0,0.0,0.0,0.0,0.0,0.0,0.0,0.0,0.0,0.0,0.0,0.0,0.0,0.0,0.0,0.0,0.0,0.0,0.0,0.0,0.0,0.0,0.0,0.0,-6.1484,-6.4056,-6.6106,-6.6288,-6.4411,-6.1525,-5.9026,0.0,0.0,0.0,0.0,0.0,0.0,0.0,0.0,0.0,0.0,0.0,0.0,0.0,0.0,0.0,0.0,0.0,0.0,0.0,0.0,0.0,0.0,0.0,0.0,0.0,0.0,0.0,0.0,0.0,0.0,0.0,0.0,0.0,0.0,0.0,0.0,0.0,0.0,0.0,0.0,0.0,0.0,0.0,0.0,0.0,0.0,0.0,0.0,0.0,0.0,0.0,0.0,0.0,0.0,0.0,0.0,0.0,0.0,0.0,0.0,0.0,0.0,0.0,0.0,0.0,0.0,0.0,0.0,0.0,0.0,0.0,0.0,0.0,0.0,0.0,0.0,0.0,0.0,0.0,0.0,0.0,0.0,0.0,0.0,0.0,0.0,0.0,0.0,0.0,0.0,0.0,0.0,0.0,0.0,0.0,0.0,0.0,0.0,0.0,0.0,0.0,0.0,0.0,0.0,0.0,0.0,0.0,0.0,-6.3242,-6.5819,-6.8146,-6.9028,-6.82,-6.4921,-6.1915,0.0,0.0,0.0,0.0,0.0,0.0,0.0,0.0,0.0,0.0,0.0,0.0,0.0,0.0,0.0,0.0,0.0,0.0,0.0,0.0,0.0,0.0,0.0,0.0,0.0,0.0,0.0,0.0,0.0,0.0,0.0,0.0,0.0,0.0,0.0,0.0,0.0,0.0,0.0,0.0,0.0,0.0,0.0,0.0,0.0,0.0,0.0,0.0,0.0,0.0,0.0,0.0,0.0,0.0,0.0,0.0,0.0,0.0,0.0,0.0,0.0,0.0,0.0,0.0,0.0,0.0,0.0,0.0,0.0,0.0,0.0,0.0,0.0,0.0,0.0,0.0,0.0,0.0,0.0,0.0,0.0,0.0,0.0,0.0,0.0,0.0,0.0,0.0,0.0,0.0,0.0,0.0,0.0,0.0,0.0,0.0,0.0,0.0,0.0,0.0,0.0,0.0,0.0,0.0,0.0,0.0,0.0,0.0,-6.4852,-6.742,-6.8672,-6.925,-6.9101,-6.5819,-6.2774,0.0,0.0,0.0,0.0,0.0,0.0,0.0,0.0,0.0,0.0,0.0,0.0,0.0,0.0,0.0,0.0,0.0,0.0,0.0,0.0,0.0,0.0,0.0,0.0,0.0,0.0,0.0,0.0,0.0,0.0,0.0,0.0,0.0,0.0,0.0,0.0,0.0,0.0,0.0,0.0,0.0,0.0,0.0,0.0,0.0,0.0,0.0,0.0,-5.1011,0.0,0.0,0.0,0.0,0.0,0.0,0.0,0.0,0.0,0.0,0.0,0.0,0.0,0.0,0.0,0.0,0.0,0.0,0.0,0.0,0.0,0.0,0.0,0.0,0.0,0.0,0.0,0.0,0.0,0.0,0.0,0.0,0.0,0.0,0.0,0.0,0.0,0.0,0.0,0.0,0.0,0.0,0.0,0.0,0.0,0.0,0.0,0.0,0.0,0.0,0.0,0.0,0.0,0.0,0.0,0.0,0.0,0.0,0.0,-6.672,-6.9652,-7.0269,-7.0546,-7.0458,-6.8058,-6.5116,0.0,0.0,0.0,0.0,0.0,0.0,0.0,0.0,0.0,0.0,0.0,0.0,0.0,0.0,0.0,0.0,0.0,0.0,0.0,0.0,0.0,0.0,0.0,0.0,0.0,0.0,0.0,0.0,0.0,0.0,0.0,0.0,0.0,0.0,0.0,0.0,0.0,0.0,0.0,0.0,0.0,0.0,0.0,0.0,0.0,0.0,0.0,0.0,0.0,0.0,0.0,0.0,0.0,0.0,0.0,0.0,0.0,0.0,0.0,0.0,0.0,0.0,0.0,0.0,0.0,0.0,0.0,0.0,0.0,0.0,0.0,0.0,0.0,0.0,0.0,0.0,0.0,0.0,0.0,0.0,0.0,0.0,0.0,0.0,0.0,0.0,0.0,0.0,0.0,0.0,0.0,0.0,0.0,0.0,0.0,0.0,0.0,0.0,0.0,0.0,0.0,0.0,0.0,0.0,0.0,0.0,0.0,-6.5706,-6.869,-7.1998,-7.2239,-7.2263,-7.2265,-7.0536,-6.7705,-6.3711,0.0,0.0,0.0,0.0,0.0,0.0,0.0,0.0,0.0,0.0,0.0,0.0,0.0,0.0,0.0,0.0,0.0,0.0,0.0,0.0,0.0,0.0,0.0,0.0,0.0,0.0,0.0,0.0,0.0,0.0,0.0,0.0,0.0,0.0,0.0,0.0,0.0,0.0,-4.6649,-4.9137,0.0,0.0,0.0,0.0,0.0,0.0,0.0,0.0,-5.7474,0.0,0.0,0.0,0.0,0.0,0.0,0.0,0.0,0.0,0.0,0.0,0.0,0.0,0.0,0.0,0.0,0.0,0.0,0.0,0.0,0.0,0.0,0.0,0.0,0.0,0.0,0.0,0.0,0.0,0.0,0.0,0.0,0.0,0.0,0.0,0.0,0.0,0.0,0.0,0.0,0.0,0.0,0.0,0.0,0.0,0.0,0.0,0.0,0.0,0.0,0.0,0.0,0.0,0.0,0.0,0.0,-6.574,-6.7687,-7.0382,-7.3771,-7.3914,-7.396,-7.4023,-7.1679,-6.906,-6.6214,0.0,0.0,0.0,0.0,0.0,0.0,0.0,0.0,0.0,0.0,0.0,0.0,0.0,0.0,0.0,0.0,0.0,0.0,0.0,0.0,0.0,0.0,0.0,0.0,0.0,0.0,0.0,0.0,0.0,0.0,0.0,0.0,0.0,0.0,0.0,0.0,0.0,0.0,0.0,-5.2891,-5.4721,0.0,0.0,0.0,0.0,0.0,0.0,0.0,0.0,-5.9536,0.0,0.0,0.0,0.0,0.0,0.0,0.0,0.0,0.0,0.0,0.0,0.0,0.0,0.0,0.0,0.0,0.0,0.0,0.0,0.0,0.0,0.0,0.0,0.0,0.0,0.0,0.0,0.0,0.0,0.0,0.0,0.0,0.0,0.0,0.0,0.0,0.0,0.0,0.0,0.0,0.0,0.0,0.0,0.0,0.0,0.0,0.0,0.0,0.0,0.0,0.0,0.0,0.0,0.0,0.0,-6.6933,-6.9694,-7.2361,-7.4856,-7.4597,-7.465,-7.5065,-7.3086,-7.0778,0.0,0.0,0.0,0.0,0.0,0.0,0.0,0.0,0.0,0.0,0.0,0.0,0.0,0.0,0.0,0.0,0.0,0.0,0.0,0.0,0.0,0.0,0.0,0.0,0.0,0.0,0.0,0.0,0.0,0.0,0.0,0.0,0.0,0.0,0.0,0.0,0.0,0.0,0.0,0.0,-5.5318,-5.7069,-5.9624,0.0,0.0,0.0,0.0,0.0,0.0,-6.2754,-6.1981,0.0,0.0,0.0,0.0,0.0,0.0,0.0,0.0,0.0,0.0,0.0,0.0,0.0,0.0,0.0,0.0,0.0,0.0,0.0,0.0,0.0,0.0,0.0,0.0,0.0,0.0,0.0,0.0,0.0,0.0,0.0,0.0,0.0,0.0,0.0,0.0,0.0,0.0,0.0,0.0,0.0,0.0,0.0,0.0,0.0,0.0,0.0,0.0,0.0,0.0,0.0,0.0,0.0,0.0,0.0,-6.8169,-7.1653,-7.4288,-7.598,-7.5732,-7.5726,-7.618,-7.4492,-7.2301,0.0,0.0,0.0,0.0,0.0,0.0,0.0,0.0,0.0,0.0,0.0,0.0,0.0,0.0,0.0,0.0,0.0,0.0,0.0,0.0,0.0,0.0,0.0,0.0,0.0,0.0,0.0,0.0,0.0,0.0,0.0,0.0,0.0,0.0,0.0,0.0,0.0,0.0,0.0,0.0,0.0,-5.9329,-6.2665,-6.2588,0.0,0.0,0.0,0.0,-6.5528,-6.5025,0.0,0.0,0.0,0.0,0.0,0.0,0.0,0.0,0.0,0.0,0.0,0.0,0.0,0.0,0.0,0.0,0.0,0.0,0.0,0.0,0.0,0.0,0.0,0.0,0.0,0.0,0.0,0.0,0.0,0.0,0.0,0.0,0.0,0.0,0.0,0.0,0.0,0.0,0.0,0.0,0.0,0.0,0.0,0.0,0.0,0.0,0.0,0.0,0.0,0.0,0.0,0.0,0.0,0.0,0.0,0.0,-6.9779,-7.3348,-7.6059,-7.774,-7.8535,-7.8624,-7.8001,-7.5652,-7.3162,0.0,0.0,0.0,0.0,0.0,0.0,0.0,0.0,0.0,0.0,0.0,0.0,0.0,0.0,0.0,0.0,0.0,0.0,0.0,0.0,0.0,0.0,0.0,0.0,0.0,0.0,0.0,0.0,0.0,0.0,0.0,0.0,0.0,0.0,0.0,0.0,0.0,0.0,0.0,0.0,0.0,-6.1892,-6.5296,-6.5682,-6.5605,0.0,0.0,-6.723,-6.8197,-6.7617,0.0,0.0,0.0,0.0,0.0,0.0,0.0,0.0,0.0,0.0,0.0,0.0,0.0,0.0,0.0,0.0,0.0,0.0,0.0,0.0,0.0,0.0,0.0,0.0,0.0,0.0,0.0,0.0,0.0,0.0,0.0,0.0,0.0,0.0,0.0,0.0,0.0,0.0,0.0,0.0,0.0,0.0,0.0,0.0,0.0,0.0,0.0,0.0,0.0,0.0,0.0,0.0,0.0,0.0,0.0,-6.7551,-7.0805,-7.433,-7.6979,-7.8765,-7.8819,-7.8911,-7.9054,-7.7067,-7.4569,0.0,0.0,0.0,0.0,0.0,0.0,0.0,0.0,0.0,0.0,0.0,0.0,0.0,0.0,0.0,0.0,0.0,0.0,0.0,0.0,0.0,0.0,0.0,0.0,0.0,0.0,0.0,0.0,0.0,0.0,0.0,0.0,0.0,0.0,0.0,0.0,0.0,0.0,0.0,0.0,0.0,0.0,-6.6611,-6.7733,0.0,0.0,0.0,-6.8506,-6.9357,0.0,0.0,0.0,0.0,0.0,0.0,0.0,0.0,0.0,0.0,0.0,0.0,0.0,0.0,0.0,0.0,0.0,0.0,0.0,0.0,0.0,0.0,0.0,0.0,0.0,0.0,0.0,0.0,0.0,0.0,0.0,0.0,0.0,0.0,0.0,0.0,0.0,0.0,0.0,0.0,0.0,0.0,0.0,0.0,0.0,0.0,0.0,0.0,0.0,0.0,0.0,0.0,0.0,0.0,0.0,0.0,0.0,-7.2014,-7.5673,-7.8225,-7.9589,-7.9385,-7.9428,-7.9869,-7.8554,0.0,0.0,0.0,0.0,0.0,0.0,0.0,0.0,0.0,0.0,0.0,0.0,0.0,0.0,0.0,0.0,0.0,0.0,0.0,0.0,0.0,0.0,0.0,0.0,0.0,0.0,0.0,-4.8236,0.0,0.0,0.0,0.0,0.0,0.0,0.0,0.0,0.0,0.0,0.0,0.0,0.0,0.0,-6.6379,-6.8506,-7.0015,-7.1021,0.0,0.0,-7.0286,-7.0866,-7.0789,-7.0092,0.0,0.0,0.0,0.0,0.0,0.0,0.0,0.0,0.0,0.0,0.0,0.0,0.0,0.0,0.0,0.0,0.0,0.0,0.0,0.0,0.0,0.0,0.0,0.0,0.0,0.0,0.0,0.0,0.0,0.0,0.0,0.0,0.0,0.0,0.0,0.0,0.0,0.0,0.0,0.0,0.0,0.0,0.0,0.0,0.0,0.0,0.0,0.0,0.0,0.0,0.0,0.0,0.0,0.0,-7.0363,-7.374,-7.7952,-8.0153,-8.0383,-8.1348,-8.1482,-8.0714,-7.9958,-7.7929,0.0,0.0,0.0,0.0,0.0,0.0,0.0,0.0,0.0,0.0,0.0,0.0,0.0,0.0,0.0,0.0,0.0,0.0,0.0,0.0,0.0,0.0,0.0,0.0,0.0,0.0,0.0,0.0,0.0,0.0,0.0,0.0,0.0,0.0,0.0,0.0,0.0,0.0,0.0,0.0,0.0,-6.8545,-7.1794,-7.3071,-7.3883,0.0,-7.4077,-7.3574,-7.3612,-7.2955,-7.1833,-7.0131,0.0,0.0,0.0,0.0,0.0,0.0,0.0,0.0,0.0,0.0,0.0,0.0,0.0,0.0,0.0,0.0,0.0,0.0,0.0,0.0,0.0,0.0,0.0,0.0,0.0,0.0,0.0,0.0,0.0,0.0,0.0,0.0,0.0,0.0,0.0,0.0,0.0,0.0,0.0,0.0,0.0,0.0,0.0,0.0,0.0,0.0,0.0,0.0,0.0,0.0,0.0,0.0,0.0,-7.1756,-7.4618,-7.7882,-8.0094,-8.1154,-8.1104,-8.1204,-8.1597,-8.0831,-7.9054,0.0,0.0,0.0,0.0,0.0,0.0,0.0,0.0,0.0,0.0,0.0,0.0,0.0,0.0,0.0,0.0,0.0,0.0,0.0,0.0,0.0,0.0,0.0,0.0,0.0,0.0,0.0,0.0,-6.1182,-6.1995,-6.1539,0.0,0.0,0.0,0.0,0.0,0.0,0.0,0.0,0.0,0.0,-7.0905,-7.3728,-7.4425,0.0,0.0,-7.4425,-7.4077,-7.4579,-7.396,-7.2993,-7.1794,-6.9899,0.0,0.0,0.0,0.0,0.0,0.0,0.0,0.0,0.0,0.0,0.0,0.0,0.0,0.0,0.0,0.0,0.0,0.0,0.0,0.0,0.0,0.0,0.0,0.0,0.0,0.0,0.0,0.0,0.0,0.0,0.0,0.0,0.0,0.0,0.0,0.0,0.0,0.0,0.0,0.0,0.0,0.0,0.0,0.0,0.0,0.0,0.0,0.0,0.0,0.0,0.0,0.0,-7.3458,-7.6243,-7.8796,-8.0737,-8.1988,-8.1243,-8.1065,-8.1629,-8.0875,-7.943,0.0,0.0,0.0,0.0,0.0,0.0,0.0,0.0,0.0,0.0,0.0,0.0,0.0,0.0,0.0,0.0,0.0,0.0,0.0,0.0,0.0,0.0,0.0,0.0,0.0,0.0,0.0,0.0,-6.4446,-6.4822,-6.3333,0.0,0.0,0.0,0.0,0.0,0.0,0.0,0.0,0.0,0.0,-7.3187,-7.5198,-7.5508,-7.5585,-7.5856,-7.5198,-7.485,-7.543,-7.4811,-7.4038,-7.3458,0.0,0.0,0.0,0.0,0.0,0.0,0.0,0.0,0.0,0.0,0.0,0.0,0.0,0.0,0.0,0.0,0.0,0.0,0.0,0.0,0.0,0.0,0.0,0.0,0.0,0.0,0.0,-5.464,0.0,0.0,-5.5593,0.0,0.0,0.0,0.0,0.0,0.0,0.0,0.0,0.0,0.0,0.0,0.0,0.0,0.0,0.0,0.0,0.0,0.0,0.0,0.0,0.0,0.0,-7.5508,-7.8873,-8.131,-8.2677,-8.2728,-8.2055,-8.1359,-8.0701,-7.999,-7.8883,-7.7265,0.0,0.0,0.0,0.0,0.0,0.0,0.0,0.0,0.0,0.0,0.0,0.0,0.0,0.0,0.0,0.0,0.0,0.0,0.0,0.0,0.0,0.0,0.0,0.0,0.0,0.0,-6.3798,-6.5266,-6.5876,0.0,0.0,0.0,0.0,0.0,0.0,0.0,0.0,0.0,0.0,-7.2877,-7.5314,-7.6243,-7.6359,-7.6668,-7.7481,-7.69,-7.637,-7.6409,-7.5662,-7.5082,0.0,0.0,0.0,0.0,0.0,0.0,0.0,0.0,0.0,0.0,0.0,0.0,0.0,0.0,0.0,0.0,0.0,0.0,0.0,0.0,0.0,0.0,0.0,0.0,0.0,0.0,0.0,-5.8377,-6.1047,0.0,0.0,0.0,0.0,0.0,0.0,0.0,0.0,0.0,0.0,0.0,-7.0581,-7.015,0.0,0.0,0.0,0.0,0.0,0.0,0.0,0.0,0.0,0.0,0.0,0.0,-7.6707,-7.8989,-8.1504,-8.278,-8.2793,-8.1976,-8.1534,-8.1435,-8.0664,-7.9583,-7.8086,0.0,0.0,0.0,0.0,0.0,0.0,0.0,0.0,0.0,0.0,0.0,0.0,0.0,0.0,0.0,0.0,0.0,0.0,0.0,0.0,0.0,0.0,0.0,0.0,0.0,-6.5372,0.0,0.0,0.0,0.0,0.0,0.0,0.0,0.0,0.0,0.0,0.0,-7.1717,-7.396,-7.4773,-7.5624,-7.7055,-7.7287,-7.7365,0.0,0.0,0.0,0.0,0.0,0.0,0.0,0.0,0.0,0.0,0.0,0.0,0.0,0.0,-6.8694,-6.7065,-6.7519,-6.7993,-6.7739,0.0,0.0,0.0,0.0,0.0,0.0,0.0,0.0,0.0,0.0,0.0,0.0,0.0,0.0,-6.4329,0.0,-6.7675,0.0,0.0,0.0,0.0,0.0,0.0,0.0,0.0,-7.2402,-7.3378,-7.4102,-7.3635,-7.3423,0.0,-7.2916,-7.0905,0.0,0.0,0.0,0.0,0.0,0.0,0.0,0.0,-7.7867,-7.984,-8.1813,-8.278,-8.278,-8.1968,-8.1346,-8.1046,-8.0544,-7.9843,-7.8945,-7.7539,-7.5859,0.0,0.0,0.0,0.0,0.0,0.0,0.0,0.0,0.0,0.0,0.0,0.0,0.0,0.0,0.0,0.0,0.0,0.0,0.0,0.0,0.0,0.0,0.0,-6.8665,0.0,0.0,0.0,0.0,0.0,0.0,0.0,0.0,0.0,-6.8893,-7.1794,-7.4541,-7.6177,-7.6668,-7.7171,-7.8022,0.0,0.0,0.0,0.0,0.0,0.0,0.0,-7.8564,-7.8564,-7.8099,-7.7365,-7.6204,-7.485,-7.3728,-7.3187,0.0,0.0,-7.0777,-7.0913,-7.1416,-7.1126,-7.0855,-7.0602,-7.0329,-7.0795,-7.1365,0.0,0.0,0.0,0.0,0.0,0.0,0.0,0.0,-6.9306,-7.0157,0.0,-7.2261,0.0,0.0,0.0,0.0,0.0,-7.2225,0.0,0.0,-7.4617,-7.5166,-7.5144,-7.5294,-7.5314,-7.5314,-7.5353,-7.5314,-7.5148,-7.3651,0.0,0.0,0.0,0.0,0.0,0.0,-7.8989,-8.1387,-8.2355,-8.278,-8.278,-8.1968,-8.0842,-7.9565,-7.9662,-7.9765,-7.9726,-7.8945,-7.8125,-7.7265,-7.4023,0.0,0.0,0.0,0.0,0.0,0.0,0.0,0.0,0.0,0.0,0.0,0.0,0.0,0.0,0.0,0.0,0.0,0.0,0.0,0.0,-7.0641,0.0,0.0,0.0,0.0,0.0,0.0,0.0,0.0,0.0,0.0,-7.1678,-7.4347,-7.6475,-7.6552,0.0,0.0,0.0,0.0,-7.9105,-7.9144,-7.9144,-7.9221,-7.9221,-7.984,-8.0343,-8.0343,0.0,0.0,-7.8138,-7.7171,-7.663,-7.6603,-7.7867,-7.7775,-7.3795,-7.3728,-7.3932,-7.3248,-7.3684,-7.3839,-7.3307,-7.4343,-7.541,-7.0634,0.0,0.0,0.0,0.0,-6.5489,-6.6917,-6.9815,-6.9826,-7.1272,-7.3641,-7.3811,0.0,0.0,0.0,0.0,0.0,0.0,-7.4812,-7.6855,-7.739,-7.8322,-7.9597,-7.9661,-7.9673,-7.9635,-7.9635,-7.9673,-7.9647,-7.917,-7.7597,-7.5005,0.0,0.0,0.0,0.0,-8.015,-8.1465,-8.2355,-8.278,-8.278,-8.1968,-8.1113,-8.0305,-8.0484,-8.0625,-8.0625,-7.9805,-7.9258,-7.8945,-7.6914,0.0,0.0,0.0,0.0,0.0,0.0,0.0,0.0,0.0,0.0,0.0,0.0,0.0,0.0,0.0,0.0,0.0,0.0,0.0,-7.3103,-7.4917,-7.526,0.0,0.0,0.0,0.0,0.0,0.0,0.0,0.0,0.0,-7.4928,-7.6862,-7.8486,0.0,0.0,-7.9453,-7.9801,-8.0382,-8.1001,-8.162,-8.2238,0.0,-8.2664,-8.2819,-8.2973,-8.2973,-8.2973,-8.2587,-8.1504,-8.1117,-8.0769,-8.015,-8.0459,-8.0343,-7.9311,-7.8626,-7.8317,-7.8108,-7.7798,-7.7732,-7.8087,-7.8563,-7.9078,-7.4579,-7.1678,-7.017,-6.9899,-7.044,-6.9938,-7.1214,-7.3574,-7.3574,-7.4617,-7.6394,-7.6611,-7.6485,-7.618,-7.618,0.0,0.0,0.0,-7.7085,-7.864,-7.9053,-7.9842,-8.0949,-8.1349,-8.1491,-8.1491,-8.1852,-8.2045,-8.2006,-8.2355,-8.1504,-7.9453,0.0,0.0,-7.8254,-7.9531,-8.0653,-8.1504,-8.2006,-8.2327,-8.2355,-8.1592,-8.1384,-8.1704,-8.1937,-8.1875,-8.1523,-8.1328,-8.0781,-7.9726,-7.8437,-7.6601,0.0,0.0,0.0,0.0,0.0,0.0,0.0,0.0,0.0,0.0,0.0,-6.4509,-6.5061,0.0,0.0,0.0,-7.3111,-7.5051,-7.6997,-7.7504,0.0,0.0,0.0,0.0,0.0,0.0,0.0,-7.4541,-7.5817,-7.7094,-7.8293,-7.9647,-8.0536,-8.0691,-8.0885,-8.131,-8.2122,0.0,-8.3322,-8.4173,-8.4753,-8.5101,-8.5101,-8.5101,-8.4985,-8.4598,-8.4869,-8.4637,-8.3515,-8.3554,-8.3592,-8.3206,-8.3283,-8.3515,-8.3515,-8.3089,-8.2238,-8.1001,-8.0614,-8.0704,-8.1204,-8.1565,-8.208,-7.6746,-7.6514,-7.4193,-7.3999,-7.5187,-7.5198,-7.6552,-7.8757,-7.8757,-7.8926,-7.9184,-7.9738,-7.9922,-7.98,-7.9838,0.0,-7.9383,-7.9383,-7.9288,-7.9221,-7.9995,-8.0382,-8.0536,-8.1349,-8.1697,-8.1736,-8.2509,-8.2935,-8.3051,-8.3786,-8.4173,-8.4134,-8.1774,-8.0188,-7.9376,-7.9956,-8.0691,-8.1491,-8.1581,-8.174,-8.1892,-8.1377,-8.1861,-8.3426,-8.3627,-8.332,-8.2578,-8.3125,-8.2422,-8.0156,-7.918,-7.8281,-7.7265,0.0,0.0,0.0,0.0,0.0,0.0,0.0,0.0,0.0,0.0,0.0,0.0,0.0,0.0,-7.6575,-7.8962,0.0,-8.0188,-7.8796,0.0,0.0,0.0,-7.6514,-7.6514,-7.7287,-7.7829,-7.7867,0.0,0.0,-8.1491,-8.2509,-8.278,-8.2006,-8.3206,-8.4443,-8.5217,-8.5178,-8.5604,-8.6184,-8.6416,-8.6494,-8.6416,-8.6455,-8.6223,-8.5565,-8.6068,-8.5952,-8.4714,-8.4869,-8.5333,-8.5449,-8.6145,-8.6687,-8.6764,-8.6648,-8.5836,-8.2857,-8.2703,-8.3089,-8.318,-8.3721,-8.443,-7.9918,-7.926,-7.8641,-7.7519,-7.6088,-7.6088,-7.6436,-7.7016,-7.7016,-7.7058,-7.7177,-7.7947,-7.8632,-7.9205,-7.9205,-7.9169,-7.9095,-7.9095,-7.9765,-8.0885,-8.1117,-8.189,-8.3167,-8.3399,-8.3476,-8.3515,-8.3708,-8.4095,-8.4675,-8.4908,-8.5024,-8.4985,-8.4405,-8.336,-8.1929,-8.1426,-8.1298,-8.1491,-8.2161,-8.2875,-8.3641,-8.3623,-8.3869,-8.4362,-8.4525,-8.4492,-8.4258,-8.3164,-8.2617,-8.2617,-8.1211,-7.9726,-7.8242,-7.6601,0.0,0.0,0.0,0.0,0.0,0.0,0.0,0.0,0.0,-7.1675,-7.2236,0.0,-7.7853,0.0,-8.0132,-8.0936,-8.0266,-7.984,0.0,0.0,-7.8022,-7.7403,-7.7403,-7.8138,-7.8912,-7.9531,-8.0962,-8.2277,-8.336,-8.4792,-8.5604,-8.541,-8.5178,-8.5101,-8.5294,-8.5294,-8.5372,-8.5643,-8.5759,-8.5836,-8.6571,-8.661,-8.661,-8.6339,-8.6494,-8.6455,-8.6068,-8.6145,-8.6494,-8.7112,-8.7408,-8.7847,-8.8466,-8.8582,-8.835,-8.7461,-8.6494,-8.572,-8.572,-8.5875,-8.6068,-8.1233,-8.0769,-8.0807,-7.9956,-7.8641,-7.7867,-7.7558,-7.7558,-7.7558,-7.7751,-7.8138,-7.9028,-7.9647,-8.0111,-8.0111,-8.0304,-8.0691,-8.0691,-8.1387,-8.2664,-8.3051,-8.3708,-8.4637,-8.541,-8.5797,-8.5797,-8.6184,-8.661,-8.6996,-8.7035,-8.7035,-8.7035,-8.6648,-8.5991,-8.5024,-8.3476,-8.2664,-8.2664,-8.32,-8.3765,-8.4349,-8.45,-8.4845,-8.5335,-8.5428,-8.5469,-8.5469,-8.457,-8.3711,-8.3047,-8.2109,-8.0976,-7.9687,-7.8437,-7.7304,0.0,0.0,0.0,0.0,0.0,0.0,0.0,0.0,0.0,0.0,0.0,-7.973,-8.0082,-8.1284,-8.1542,-8.0304,-8.0188,-8.0034,-7.9569,-7.9453,-7.9376,-7.9415,-8.0188,-8.0846,-8.131,-8.2548,-8.3708,-8.4521,-8.5797,-8.6764,-8.7112,-8.6764,-8.63,-8.5952,-8.5875,-8.6029,-8.6377,-8.7074,-8.7731,-8.8234,-8.8621,-8.8621,-8.7963,-8.8041,-8.8196,-8.7847,-8.8079,-8.8466,-8.8931,-8.9317,-8.9704,-9.0207,-9.0284,-9.0323,-9.0168,-8.9549,-8.866,-8.7925,-8.7731,-8.7809,-8.1852,-8.1852,-8.1813,-8.1852,-8.1736,-8.0266,-7.9531,-7.9337,-7.9337,-7.9763,-8.0575,-8.1349,-8.1736,-8.1839,-8.1813,-8.2238,-8.2935,-8.2973,-8.3438,-8.4289,-8.4985,-8.5372,-8.5526,-8.7151,-8.7963,-8.8118,-8.8931,-8.9472,-8.9665,-8.9549,-8.9472,-8.9317,-8.8466,-8.7963,-8.7654,-8.5526,-8.4366,-8.425,-8.4361,-8.457,-8.4819,-8.4966,-8.5434,-8.6288,-8.6367,-8.6367,-8.6367,-8.625,-8.5156,-8.2969,-8.2695,-8.2226,-8.1367,-7.9922,-7.9414,0.0,-7.7026,0.0,0.0,0.0,0.0,0.0,0.0,0.0,0.0,-7.9122,-8.0769,-8.131,-8.2122,-8.1968,-8.0343,-8.0188,-8.0266,-8.0382,-8.1039,-8.1542,-8.1658,-8.2432,-8.3012,-8.3128,-8.3863,-8.4753,-8.5759,-8.6494,-8.7267,-8.8079,-8.8118,-8.7693,-8.6958,-8.6764,-8.6996,-8.7731,-8.9047,-8.9472,-8.9743,-9.0555,-9.0633,-8.9511,-8.9549,-9.0014,-8.9201,-8.9627,-9.0207,-9.0362,-9.0826,-9.1406,-9.1677,-9.1677,-9.1677,-9.1561,-9.1484,-9.0942,-8.9704,-8.9279,-8.9549,-8.3592,-8.3631,-8.3592,-8.3592,-8.3554,-8.3283,-8.2316,-8.1039,-8.1039,-8.1504,-8.2316,-8.2471,-8.2935,-8.3592,-8.3592,-8.3708,-8.3863,-8.3863,-8.4289,-8.5062,-8.5217,-8.5681,-8.6416,-8.7422,-8.8273,-8.8969,-8.9782,-9.0903,-9.2257,-9.1561,-9.0865,-9.0168,-8.9356,-8.8234,-8.6919,0.0,0.0,0.0,-8.5176,-8.5628,-8.6483,-8.6618,-8.6814,-8.7138,-8.7183,0.0,-8.7226,-8.6562,-8.5976,-8.5469,-8.4804,0.0,0.0,0.0,0.0,0.0,0.0,0.0,0.0,0.0,0.0,0.0,-7.9728,-7.988,-7.8757,-8.0856,-8.1774,-8.0614,-8.1233,-8.131,-8.0304,-8.0188,-8.0498,-8.1194,-8.1426,-8.1774,-8.2471,-8.3322,-8.4095,-8.4753,-8.5604,-8.6726,-8.8079,-8.8621,-8.8969,-8.9588,-8.9356,-8.8621,-8.7809,-8.7654,-8.7461,-8.7112,-8.8002,-8.8428,-8.8389,-8.9279,-8.9898,-8.9279,-8.9279,-8.9395,-8.9356,-8.9356,-8.9743,-9.0284,-9.0516,-9.0942,-9.1561,-9.1716,-9.1716,-9.1716,-9.1716,-9.1406,-9.04,-9.0168,-9.0014,-8.5604,0.0,-8.5991,-8.6223,0.0,-8.661,-8.6145,-8.5178,-8.3515,-8.3012,-8.3438,-8.3438,-8.3902,-8.4675,-8.4675,-8.5178,-8.5991,-8.5991,-8.6455,-8.7228,-8.7228,-8.7461,-8.7925,-8.9163,-9.0014,-9.0478,-9.1677,-9.2528,-9.2953,-9.2567,-9.1909,-9.1058,-9.0633,-8.9975,-8.9124,-8.8698,-8.7654,-8.5952,-8.5991,-8.6305,-8.6903,-8.7425,-8.7754,-8.7938,-8.8431,0.0,0.0,0.0,0.0,0.0,0.0,0.0,0.0,0.0,0.0,-8.4218,-8.2614,-8.1736,-8.2023,-8.1571,-8.1205,-8.1126,-8.1774,-8.163,-8.0341,-8.1013,-8.1504,-8.1504,-8.189,-8.1968,-8.1542,-8.1852,-8.2122,-8.2161,-8.2509,-8.2973,-8.3438,-8.4173,-8.5024,-8.5875,-8.6687,-8.777,-8.9008,-8.9201,-8.9356,-8.9704,-8.9472,-8.9201,-8.9085,-8.8428,-8.7925,-8.835,-8.8776,-8.9317,-8.9704,-9.0091,-9.04,-9.0439,-9.0439,-9.0439,-9.0439,-9.0439,-9.0555,-9.0981,-9.1058,-9.1213,-9.1561,-9.1716,-9.1716,-9.1716,-9.1716,-9.16,-9.1135,-9.1058,-9.0942,-8.7499,-8.8118,-8.8157,-8.8544,-8.9201,-8.9201,-8.9201,-8.9008,0.0,0.0,0.0,-8.4985,-8.5372,-8.5991,-8.5991,-8.6764,-8.8118,-8.8118,-8.8505,-8.9201,-8.9201,-8.9201,-8.9279,-9.0749,-9.1561,-9.1793,-9.3418,-9.3882,-9.3224,-9.3224,-9.2683,-9.1793,-9.1561,-9.1406,-9.1213,-9.0555,-8.9163,-8.719,-8.7048,-8.7125,-8.7262,-8.807,-8.856,-8.8661,-8.9512,-8.9958,-8.9959,-9.0,-8.9687,-8.8984,-8.8945,-8.8633,-8.7969,-8.7265,-8.6797,-8.6601,-8.5114,-8.4458,-8.4919,-8.4285,-8.3795,-8.3695,-8.3554,-8.3051,-8.2045,-8.1426,-8.162,-8.2935,-8.3167,-8.3167,-8.3038,-8.3773,-8.4069,-8.3476,-8.4211,-8.4791,-8.4984,-8.5487,-8.6285,-8.6956,-8.7638,-8.8425,-8.929,-8.942,-8.9458,-8.9627,-8.9782,-8.9859,-9.0246,-8.9395,-8.8892,-8.9936,-9.013,-9.0555,-9.1213,-9.1522,-9.1677,-9.1561,-9.16,-9.1716,-9.1716,-9.1716,-9.1716,-9.16,-9.1716,-9.1677,-9.1716,-9.187,-9.1832,-9.1716,-9.1832,-9.187,-9.1754,-9.1716,-9.1638,-8.8892,-8.9008,-8.9008,-8.9085,-8.9201,-8.9201,-8.9201,-8.9163,-8.866,-8.8466,-8.8466,-8.8505,-8.8544,-8.866,-8.866,-8.8776,-8.9008,-8.9008,-8.9085,-8.9201,-8.9201,-8.9201,-8.924,-9.0168,-9.0981,-9.1793,-9.3379,-9.4153,-9.4037,-9.3998,-9.3263,-9.1793,-9.0942,-9.0284,-8.9588,-8.9433,-8.9163,-8.8853,-8.8829,-8.8868,-8.8965,-8.9126,-8.9284,-8.9356,-8.972,-8.9824,-8.9841,-8.9955,-8.9961,-8.9844,-8.9804,-8.9765,-8.9648,-8.9531,-8.914,-8.8359,-8.7327,-8.6747,-8.68,-8.6483,-8.6549,-8.7062,-8.6494,-8.541,-8.3902,-8.4289,-8.4405,-8.4018,-8.4559,-8.4611,-8.3939,-8.4607,-8.5366,-8.5811,-8.6607,-8.7378,-8.7972,-8.8204,-8.8358,-8.8528,-8.8691,-8.916,-8.9953,-9.0161,-9.046,-9.1121,-9.1097,-9.1329,-9.1213,-9.0671,-9.0207,-9.0323,-9.04,-9.0439,-9.0787,-9.1251,-9.1638,-9.1716,-9.1716,-9.1716,-9.1716,-9.1793,-9.1793,-9.1716,-9.187,-9.1832,-9.1832,-9.2335,-9.2412,-9.2025,-9.2257,-9.2528,-9.187,-9.1716,-9.1716,-8.9433,-8.982,-8.9859,-9.013,-9.0555,-9.0555,-9.0555,-9.0555,-9.0555,-9.0052,-8.924,-8.9201,-8.9433,-8.982,-8.9859,-9.0091,-9.0555,-9.0555,-9.0555,-9.0555,-9.0555,-9.0555,-9.0671,-9.187,-9.2683,-9.3147,-9.4307,-9.4655,-9.4191,-9.3766,-9.2915,-9.1754,-9.129,-9.0942,-9.0594,-9.0555,-9.0555,-9.0555,-8.9654,-8.9423,-8.9875,-9.0458,-9.0771,-9.081,-9.1476,-9.1886,-9.1936,-9.2063,-9.2109,-9.2109,-9.2578,-9.2617,-9.2148,-9.1679,-9.125,-9.082,-8.9432,-8.8556,-8.8501,-8.7817,-8.7538,-8.7847,-8.7538,-8.7228,-8.6919,-8.5875,-8.532,-8.5396,-8.6155,-8.6669,-8.6597,-8.6969,-8.734,-8.7696,-8.815,-8.8528,-8.8929,-8.9422,-8.9721,-8.976,-9.0146,-9.0586,-9.1001,-9.104,-9.117,-9.1624,-9.1716,-9.1716,-9.1716,-9.1406,-9.1097,-9.1097,-9.1135,-9.1097,-9.1097,-9.1406,-9.1677,-9.1716,-9.1716,-9.1716,-9.1754,-9.2025,-9.2373,-9.2451,-9.2721,-9.3031,-9.3031,-9.3379,-9.3224,-9.2683,-9.2683,-9.2644,-9.1986,-9.1716,-9.1716,-9.013,-9.071,-9.0671,-9.1097,-9.1716,-9.1716,-9.1716,-9.1716,-9.1677,-9.0981,-8.9859,-8.9782,-9.013,-9.0671,-9.071,-9.1058,-9.1638,-9.1716,-9.1716,-9.1716,-9.1716,-9.1793,-9.2102,-9.334,-9.3921,-9.4037,-9.481,-9.4655,-9.3688,-9.3186,-9.2567,-9.1793,-9.1716,-9.1716,-9.1716,-9.1716,-9.1716,-9.1638,-9.0439,-9.0052,-9.0685,-9.1655,-9.2138,-9.2211,-9.3219,-9.3822,-9.3871,-9.3829,-9.3893,-9.4089,-9.4557,-9.4557,-9.4089,-9.3464,-9.2995,-9.2679,-9.1378,-9.0411,-9.0063,-8.9287,-8.8698,-8.8466,-8.8466,-8.866,-8.8969,-8.7538,-8.6608,-8.7094,-8.7659,-8.8248,-8.8676,-8.9007,-8.92,-8.92,-8.9439,-8.9585,-8.9639,-9.0199,-9.0615,-9.0692,-9.1195,-9.162,-9.1687,-9.1687,-9.1649,-9.1663,-9.1716,-9.1716,-9.1716,-9.1716,-9.1754,-9.1909,-9.1832,-9.1677,-9.1716,-9.1909,-9.2025,-9.1986,-9.2218,-9.2373,-9.2489,-9.2915,-9.3224,-9.3302,-9.3688,-9.3998,-9.4153,-9.4385,-9.4114,-9.3495,-9.3534,-9.3379,-9.2605,-9.2412,-9.2102,-9.1484,-9.16,-9.1561,-9.16,-9.1677,-9.1716,-9.1716,-9.1716,-9.1716,-9.1638,-9.1406,-9.1484,-9.1445,-9.1561,-9.1561,-9.16,-9.1716,-9.1716,-9.1716,-9.1716,-9.1716,-9.2141,-9.2799,-9.307,-9.3147,-9.3263,-9.3959,-9.3572,-9.2257,-9.2683,-9.2567,-9.1793,-9.1716,-9.1716,-9.1716,-9.1716,-9.1716,-9.1716,-9.1561,-9.1484,-9.16,-9.244,-9.288,-9.2918,-9.3857,-9.4416,-9.4407,-9.3788,-9.3829,-9.4485,-9.3991,-9.3952,-9.453,-9.453,-9.4134,-9.3432,-9.3021,-9.2494,-9.1605,-9.1395,-9.0903,-9.0284,-9.013,-8.9898,-8.9395,-8.9665,-8.956,-8.9026,-8.8857,-8.9021,-8.8946,-8.9625,-9.0049,-9.0088,-9.0644,-9.1184,-9.1107,-9.1222,-9.13,-9.1338,-9.1369,-9.1485,-9.1561,-9.1615,-9.1629,-9.1649,-9.1818,-9.1856,-9.1856,-9.1948,-9.218,-9.2567,-9.2296,-9.187,-9.1909,-9.2412,-9.2799,-9.2915,-9.3456,-9.3688,-9.3766,-9.3882,-9.4075,-9.4114,-9.4269,-9.4462,-9.4578,-9.4733,-9.5042,-9.4385,-9.4462,-9.4849,-9.4191,-9.3804,-9.334,-9.1716,-9.1716,-9.1716,-9.1716,-9.1716,-9.1716,-9.1716,-9.1716,-9.1716,-9.1716,-9.1716,-9.1716,-9.1716,-9.1716,-9.1716,-9.1716,-9.1716,-9.1716,-9.1716,-9.1754,-9.2218,-9.2683,-9.2992,-9.3495,-9.3688,-9.365,-9.3572,-9.3147,-9.2567,-9.2335,-9.2064,-9.1754,-9.1716,-9.1716,-9.1716,-9.1716,-9.1716,-9.1716,-9.1716,-9.1716,-9.187,-9.3031,-9.3688,-9.3756,-9.4225,-9.479,-9.5161,-9.4557,-9.4574,-9.5385,-9.5618,-9.5626,-9.5462,-9.5462,-9.5307,-9.4902,-9.3814,-9.2747,-9.1768,-9.1716,-9.1329,-9.0439,-9.0865,-9.1019,-9.071,-9.0981,-9.0991,-9.0649,-9.0518,-9.0488,-9.0412,-9.0705,-9.0898,-9.0937,-9.1292,-9.1554,-9.1516,-9.1546,-9.1561,-9.1516,-9.1516,-9.15,-9.1485,-9.1485,-9.15,-9.1608,-9.1962,-9.234,-9.2378,-9.2809,-9.3302,-9.3572,-9.3379,-9.3224,-9.3186,-9.3418,-9.3688,-9.3766,-9.3959,-9.4191,-9.4307,-9.4694,-9.4965,-9.4965,-9.5313,-9.5584,-9.5816,-9.5855,-9.6009,-9.5313,-9.4539,-9.4578,-9.4269,-9.4191,-9.3804,-9.1716,-9.1716,-9.1716,-9.1716,-9.1716,-9.1716,-9.1716,-9.1716,-9.1716,-9.1716,-9.1716,-9.1716,-9.1716,-9.1716,-9.1716,-9.1716,-9.1716,-9.1716,-9.1832,-9.2102,-9.2721,-9.3108,-9.3379,-9.3882,-9.4075,-9.3804,-9.3302,-9.2876,-9.2605,-9.2064,-9.1716,-9.1716,-9.1716,-9.1716,-9.1716,-9.1716,-9.1716,-9.1716,-9.1909,-9.2064,-9.2296,-9.3688,-9.4423,-9.4297,-9.4822,-9.5425,-9.6019,-9.532,-9.532,-9.6176,-9.6604,-9.6643,-9.6254,-9.6215,-9.6215,-9.6089,-9.4712,-9.3529,-9.2774,-9.2296,-9.1793,-9.1251,-9.1561,-9.1716,-9.1716,-9.1716,-9.1687,-9.1605,-9.1629,-9.1522,-9.1485,-9.147,-9.1446,-9.15,-9.1561,-9.1629,-9.16,-9.1659,-9.1644,-9.1585,-9.1516,-9.1616,-9.1724,-9.1824,-9.1901,-9.2264,-9.2759,-9.3168,-9.3222,-9.3693,-9.4201,-9.4501,-9.4539,-9.4385,-9.4269,-9.4423,-9.4501,-9.4655,-9.4772,-9.5081,-9.4888,-9.5545,-9.5855,-9.5932,-9.6512,-9.6667,-9.6474,-9.659,-9.6667,-9.5971,-9.5352,-9.4965,-9.5158,-9.4965,-9.4965,-9.1716,-9.1716,-9.1716,-9.1716,-9.1716,-9.1716,-9.1716,-9.1716,-9.1716,-9.1716,-9.1716,-9.1716,-9.1716,-9.1716,-9.1716,-9.1716,-9.1716,-9.1754,-9.2141,-9.276,-9.2992,-9.3418,-9.4114,-9.4153,-9.3804,-9.3186,-9.2953,-9.2528,-9.1832,-9.1754,-9.1716,-9.1716,-9.1793,-9.1754,-9.1793,-9.187,-9.1754,-9.1948,-9.2567,-9.2953,-9.3147,-9.4578,-9.5004,-9.4476,-9.5753,-9.6556,-9.6634,-9.5898,-9.5835,-9.6725,-9.6096,-9.6004,-9.6648,-9.6725,-9.6754,-9.6662,-9.586,-9.5303,-9.5018,-9.3766,-9.2876,-9.2721,-9.2141,-9.1716,-9.1716,-9.1716,-9.1716,-9.1702,-9.1702,-9.1673,-9.1615,-9.1561,-9.1615,-9.1634,-9.1687,-9.1673,-9.16,-9.16,-9.1531,-9.1454,-9.1477,-9.1847,-9.2502,-9.2634,-9.2965,-9.3467,-9.3869,-9.3962,-9.4026,-9.4134,-9.4605,-9.5206,-9.539,-9.5158,-9.4539,-9.4965,-9.539,-9.5506,-9.5855,-9.6474,-9.6628,-9.6744,-9.6706,-9.6706,-9.6744,-9.6783,-9.6783,-9.6783,-9.6783,-9.6551,-9.6474,-9.6319,-9.6009,-9.6512,-9.6551,-9.1716,-9.1716,-9.1716,-9.1716,-9.1716,-9.1716,-9.1716,-9.1716,-9.1716,-9.1716,-9.1716,-9.1716,-9.1716,-9.1716,-9.1716,-9.1716,-9.1754,-9.2257,-9.2412,-9.2373,-9.3263,-9.365,-9.3418,-9.3456,-9.3302,-9.2953,-9.2451,-9.2025,-9.1832,-9.2257,-9.2218,-9.1986,-9.2799,-9.307,-9.2721,-9.307,-9.3302,-9.3302,-9.3611,-9.3766,-9.3843,-9.4888,-9.5352,-9.5081,-9.5623,-9.6241,-9.6783,-9.5971,-9.5893,-9.6783,-9.6512,-9.6474,-9.6744,-9.6822,-9.6822,-9.6744,-9.5971,-9.5506,-9.5352,-9.4423,-9.3534,-9.3031,-9.2721,-9.2296,-9.1832,-9.1716,-9.1716,-9.1716,-9.1716,-9.1702,-9.1687,-9.1673,-9.1659,-9.1644,-9.1644,-9.1615,-9.15,-9.1485,-9.1454,-9.1451,-9.1771,-9.243,-9.3085,-9.3354,-9.347,-9.3778,-9.4292,-9.4651,-9.4839,-9.5181,-9.5725,-9.6097,-9.6244,-9.6182,-9.5971,-9.6087,-9.6319,-9.6396,-9.659,-9.6667,-9.6822,-9.6976,-9.6976,-9.7092,-9.7092,-9.7092,-9.7209,-9.7054,-9.7015,-9.717,-9.717,-9.7402,-9.6783,-9.7557,-9.775,-9.1948,-9.1716,-9.1716,-9.1716,-9.1716,-9.1716,-9.187,-9.2102,-9.2102,-9.2257,-9.2451,-9.2528,-9.2528,-9.2528,-9.2528,-9.2335,-9.2141,-9.2451,-9.2412,-9.2257,-9.3302,-9.3534,-9.307,-9.2992,-9.2876,-9.2528,-9.1986,-9.1948,-9.2528,-9.3108,-9.3224,-9.307,-9.4114,-9.4191,-9.3611,-9.3921,-9.4191,-9.423,-9.4462,-9.4617,-9.4733,-9.5468,-9.5932,-9.5932,-9.5893,-9.6164,-9.6783,-9.6241,-9.6164,-9.6706,-9.6822,-9.6822,-9.6822,-9.6822,-9.6822,-9.6744,-9.628,-9.5893,-9.5816,-9.512,-9.4385,-9.3843,-9.3534,-9.3108,-9.2567,-9.2489,-9.2489,-9.2489,-9.2489,-9.2451,-9.2243,-9.2345,-9.2238,-9.1754,-9.16,-9.1554,-9.1406,-9.1622,-9.1897,-9.2199,-9.2609,-9.3228,-9.3903,-9.4057,-9.4306,-9.448,-9.5129,-9.5473,-9.5623,-9.6022,-9.6476,-9.6613,-9.6622,-9.6615,-9.6622,-9.6792,-9.6783,-9.6822,-9.7131,-9.7131,-9.7247,-9.7325,-9.7441,-9.7518,-9.7595,-9.7595,-9.7518,-9.7363,-9.7479,-9.775,-9.8408,-9.8872,-9.8717,-9.8794,-9.8988,-9.2528,-9.1909,-9.1754,-9.1909,-9.1948,-9.1948,-9.2296,-9.2915,-9.3031,-9.334,-9.3843,-9.4037,-9.3921,-9.4075,-9.3882,-9.365,-9.2992,-9.2412,-9.2335,-9.276,-9.2992,-9.3031,-9.2876,-9.2953,-9.2721,-9.2102,-9.1832,-9.2644,-9.4037,-9.4191,-9.4501,-9.5236,-9.5352,-9.5081,-9.4191,-9.4385,-9.4385,-9.4539,-9.5158,-9.5506,-9.5584,-9.628,-9.6667,-9.6706,-9.6706,-9.6706,-9.6822,-9.6744,-9.6744,-9.6783,-9.6822,-9.6822,-9.6822,-9.6822,-9.6822,-9.6822,-9.6744,-9.6783,-9.6667,-9.5971,-9.5468,-9.5158,-9.4655,-9.4153,-9.3921,-9.3921,-9.3921,-9.3882,-9.3921,-9.3766,-9.321,-9.3499,-9.3222,-9.1947,-9.1685,-9.1817,-9.1611,-9.2117,-9.2854,-9.3438,-9.371,-9.4057,-9.4711,-9.498,-9.5249,-9.5826,-9.6057,-9.6132,-9.6166,-9.6317,-9.639,-9.6514,-9.658,-9.6613,-9.7024,-9.7341,-9.7217,-9.717,-9.7634,-9.7866,-9.806,-9.8214,-9.833,-9.8446,-9.8524,-9.8562,-9.8485,-9.8369,-9.864,-9.8988,-9.9723,-9.9994,-9.98,-9.9723,-10.038,-9.365,-9.3418,-9.3418,-9.3418,-9.3418,-9.3418,-9.3611,-9.3804,-9.3804,-9.3959,-9.4153,-9.4191,-9.4191,-9.423,-9.4191,-9.4075,-9.3804,-9.3495,-9.2992,-9.2373,-9.276,-9.2721,-9.2373,-9.2721,-9.3147,-9.3379,-9.3418,-9.3959,-9.4888,-9.5081,-9.5274,-9.5545,-9.6125,-9.5893,-9.5158,-9.5661,-9.6009,-9.6009,-9.6241,-9.6396,-9.6396,-9.6628,-9.6783,-9.6822,-9.6822,-9.6822,-9.6822,-9.6822,-9.6822,-9.6822,-9.6822,-9.6822,-9.6822,-9.6822,-9.6822,-9.6822,-9.6822,-9.6822,-9.6783,-9.6551,-9.6087,-9.5623,-9.5236,-9.481,-9.4307,-9.4269,-9.4269,-9.423,-9.4191,-9.4022,-9.3886,-9.3933,-9.3423,-9.1678,-9.2464,-9.29,-9.2567,-9.2956,-9.3669,-9.4421,-9.4595,-9.498,-9.5634,-9.5865,-9.5942,-9.6211,-9.6288,-9.6306,-9.6325,-9.6343,-9.6379,-9.6429,-9.648,-9.6702,-9.7076,-9.7704,-9.806,-9.8068,-9.8393,-9.8717,-9.8911,-9.9143,-9.9297,-9.9413,-9.9491,-9.9568,-9.9491,-9.9491,-9.9723,-9.9762,-10.0032,-10.0148,-10.0148,-10.0767,-10.1696,-9.4501,-9.423,-9.4191,-9.4191,-9.4191,-9.4191,-9.4385,-9.4655,-9.4694,-9.4849,-9.512,-9.5197,-9.5158,-9.5158,-9.5158,-9.4965,-9.4694,-9.4694,-9.3921,-9.2837,-9.3108,-9.3108,-9.2721,-9.3147,-9.365,-9.4075,-9.4191,-9.481,-9.5932,-9.5971,-9.6125,-9.6551,-9.7015,-9.6822,-9.6087,-9.6512,-9.6822,-9.6822,-9.6783,-9.6822,-9.6822,-9.6822,-9.6822,-9.6822,-9.6822,-9.6822,-9.6822,-9.6822,-9.6822,-9.6822,-9.6822,-9.6822,-9.6822,-9.6822,-9.6822,-9.6822,-9.6822,-9.6822,-9.6822,-9.6783,-9.659,-9.6087,-9.5971,-9.5777,-9.5274,-9.5158,-9.5158,-9.5158,-9.5197,-9.5013,-9.4744,-9.5239,-9.4596,-9.301,-9.3692,-9.4317,-9.4306,-9.4788,-9.5288,-9.5865,-9.5942,-9.6095,-9.6211,-9.6288,-9.6288,-9.6288,-9.6288,-9.6288,-9.6288,-9.6288,-9.6343,-9.6495,-9.6818,-9.7003,-9.7204,-9.7909,-9.8808,-9.9027,-9.9228,-9.9514,-9.9762,-10.0148,-10.038,-10.0574,-10.069,-10.1115,-10.1077,-10.0729,-10.0729,-10.0613,-10.1115,-10.216,-10.2972,-10.2895,-10.3552,-9.5081,-9.4346,-9.4346,-9.4462,-9.4501,-9.4501,-9.4926,-9.5506,-9.5584,-9.6009,-9.6667,-9.6744,-9.686,-9.6899,-9.6822,-9.6358,-9.5739,-9.5545,-9.5197,-9.4539,-9.4462,-9.4346,-9.4191,-9.423,-9.4423,-9.4539,-9.4539,-9.5352,-9.6822,-9.6706,-9.7247,-9.7827,-9.775,-9.7595,-9.6822,-9.6822,-9.6822,-9.6822,-9.6822,-9.6822,-9.6822,-9.6822,-9.6822,-9.6822,-9.6822,-9.6822,-9.6822,-9.6822,-9.6822,-9.6822,-9.6822,-9.6822,-9.6822,-9.6822,-9.6822,-9.6822,-9.6822,-9.6822,-9.6822,-9.6822,-9.6744,-9.6667,-9.6667,-9.6783,-9.6551,-9.6435,-9.6435,-9.6474,-9.6497,-9.6313,-9.5988,-9.6641,-9.6673,-9.5739,-9.5434,-9.5937,-9.723,-9.7403,-9.7365,-9.7442,-9.7519,-9.7326,-9.6749,-9.6673,-9.6634,-9.6596,-9.6596,-9.6519,-9.648,-9.6519,-9.6365,-9.6671,-9.7131,-9.7511,-9.7736,-9.8696,-9.9536,-9.9767,-10.0009,-10.0388,-10.0574,-10.0922,-10.1193,-10.1425,-10.1734,-10.2237,-10.2431,-10.1966,-10.2392,-10.3166,-10.4055,-10.5332,-10.5216,-10.4519,-10.4403,-9.6319,-9.6125,-9.6087,-9.6125,-9.6125,-9.6125,-9.6203,-9.6474,-9.6474,-9.6976,-9.7634,-9.775,-9.806,-9.8562,-9.7982,-9.7595,-9.7286,-9.6744,-9.6396,-9.6164,-9.6125,-9.57,-9.5274,-9.5158,-9.5468,-9.5932,-9.5971,-9.6667,-9.7634,-9.7092,-9.7247,-9.8021,-9.7479,-9.7092,-9.6822,-9.6822,-9.6822,-9.6822,-9.6822,-9.6822,-9.6822,-9.6822,-9.6822,-9.6822,-9.6822,-9.6822,-9.6822,-9.6822,-9.6822,-9.6822,-9.6822,-9.6822,-9.6822,-9.6822,-9.6822,-9.6822,-9.6822,-9.6822,-9.6822,-9.6822,-9.6822,-9.6822,-9.6822,-9.6822,-9.6822,-9.6822,-9.6822,-9.6807,-9.6777,-9.6892,-9.7121,-9.7521,-9.7896,-9.8575,-9.7633,-9.7364,-9.8211,-9.8442,-9.8442,-9.8442,-9.8442,-9.8288,-9.8019,-9.7904,-9.7904,-9.7788,-9.7403,-9.7019,-9.6788,-9.6711,-9.6557,-9.7057,-9.7518,-9.7939,-9.8533,-9.9494,-10.0144,-10.0414,-10.075,-10.1284,-10.1394,-10.1541,-10.1696,-10.1812,-10.2199,-10.2663,-10.2933,-10.2856,-10.4017,-10.5138,-10.4984,-10.5177,-10.4906,-10.4442,-10.4558,-9.6822,-9.6822,-9.6822,-9.7015,-9.7325,-9.7325,-9.7518,-9.7827,-9.7866,-9.8098,-9.8524,-9.8601,-9.8872,-9.922,-9.8833,-9.8601,-9.8524,-9.8098,-9.7866,-9.7789,-9.7479,-9.686,-9.6241,-9.6048,-9.6319,-9.6744,-9.6822,-9.7015,-9.7363,-9.7015,-9.7131,-9.7363,-9.7054,-9.6822,-9.6822,-9.6822,-9.6822,-9.6822,-9.6822,-9.6822,-9.6822,-9.6822,-9.6822,-9.6822,-9.6822,-9.6822,-9.6822,-9.6822,-9.6822,-9.6822,-9.6822,-9.6822,-9.6822,-9.6822,-9.6822,-9.6822,-9.6822,-9.6822,-9.6822,-9.6822,-9.6822,-9.6822,-9.6822,-9.6822,-9.6822,-9.6822,-9.6822,-9.6777,-9.7001,-9.7369,-9.7753,-9.8282,-9.9268,-10.0115,-9.9673,-9.9327,-9.9827,-9.9904,-9.9673,-9.9481,-9.9288,-9.8981,-9.8442,-9.8288,-9.8096,-9.7673,-9.7096,-9.6942,-9.6826,-9.6788,-9.7019,-9.7634,-9.8327,-9.8903,-9.9575,-10.0498,-10.0936,-10.1152,-10.1384,-10.1903,-10.209,-10.216,-10.2237,-10.2353,-10.2701,-10.3127,-10.363,-10.4171,-10.4984,-10.5525,-10.51,-10.5138,-10.5216,-10.51,-10.5177,-9.686,-9.6938,-9.6938,-9.7441,-9.8176,-9.8253,-9.8562,-9.9181,-9.9143,-9.9259,-9.9413,-9.9452,-9.9607,-9.9568,-9.9607,-9.9413,-9.9452,-9.9143,-9.9143,-9.8911,-9.8485,-9.7827,-9.7247,-9.6976,-9.7092,-9.7286,-9.7092,-9.7131,-9.7247,-9.7054,-9.686,-9.6938,-9.6822,-9.6822,-9.6822,-9.6822,-9.6822,-9.6822,-9.6822,-9.6822,-9.6822,-9.6822,-9.6822,-9.6822,-9.6822,-9.6822,-9.6822,-9.6822,-9.6822,-9.6822,-9.6822,-9.6822,-9.6822,-9.6822,-9.6822,-9.6822,-9.6822,-9.6822,-9.6822,-9.6822,-9.6822,-9.6822,-9.6822,-9.6822,-9.6822,-9.6938,-9.7062,-9.7001,-9.7572,-9.8014,-9.8377,-9.9345,-10.0308,-10.0981,-10.1135,-10.125,-10.1289,-10.1289,-10.1019,-10.0327,-10.0173,-9.9288,-9.8481,-9.7711,-9.7519,-9.8365,-9.7711,-9.7403,-9.7403,-9.7403,-9.7865,-9.8519,-9.925,-10.0019,-10.0769,-10.15,-10.1727,-10.189,-10.2041,-10.2376,-10.2608,-10.2701,-10.2779,-10.2972,-10.3398,-10.4133,-10.4984,-10.5564,-10.5951,-10.6183,-10.6028,-10.6299,-10.657,-10.6338,-10.626,-9.717,-9.7827,-9.7827,-9.8292,-9.8988,-9.9065,-9.9143,-9.9336,-9.9336,-9.9723,-10.0187,-10.0303,-10.0651,-10.1231,-10.0613,-10.0342,-10.0226,-9.9762,-9.9336,-9.9297,-9.9181,-9.8988,-9.8601,-9.8214,-9.8176,-9.8524,-9.8717,-9.8408,-9.7982,-9.775,-9.7479,-9.6938,-9.6976,-9.6822,-9.686,-9.686,-9.6822,-9.6822,-9.6822,-9.6822,-9.6822,-9.6783,-9.6768,-9.6768,-9.6768,-9.6822,-9.6822,-9.6822,-9.6822,-9.6822,-9.6807,-9.6768,-9.6768,-9.6822,-9.6807,-9.6768,-9.6822,-9.6822,-9.6822,-9.6822,-9.6822,-9.6822,-9.6822,-9.6822,-9.686,-9.7441,-9.7666,-9.7781,-9.8373,-9.9004,-9.9518,-10.0423,-10.0981,-10.125,-10.1289,-10.1289,-10.1289,-10.1289,-10.1173,-10.0943,-10.0519,-10.0173,-10.025,-9.9019,-9.875,-9.8942,-9.8596,-9.8134,-9.8057,-9.8096,-9.8865,-9.9673,-10.0366,-10.1173,-10.1789,-10.2405,-10.263,-10.2851,-10.293,-10.3166,-10.3398,-10.3475,-10.363,-10.3862,-10.4133,-10.4984,-10.5796,-10.5912,-10.6067,-10.6492,-10.684,-10.684,-10.6879,-10.6995,-10.6995,-9.7673,-9.8137,-9.8485,-9.9143,-9.9839,-9.9916,-9.9916,-9.9916,-9.9916,-10.0148,-10.0535,-10.0574,-10.1077,-10.185,-10.1425,-10.1193,-10.1115,-10.0767,-10.0535,-10.0458,-10.0226,-10.0148,-10.0342,-9.9684,-9.9375,-9.9413,-9.9297,-9.9027,-9.8756,-9.864,-9.8446,-9.7943,-9.7595,-9.7479,-9.7286,-9.7054,-9.6822,-9.6822,-9.6822,-9.6822,-9.6822,-9.6792,-9.6707,-9.6692,-9.6707,-9.6761,-9.6661,-9.6661,-9.6661,-9.6676,-9.6676,-9.6692,-9.6723,-9.6777,-9.6777,-9.6777,-9.6761,-9.6753,-9.6768,-9.6822,-9.6822,-9.6822,-9.6822,-9.7092,-9.7325,-9.7905,-9.823,-9.856,-9.9171,-9.9933,-10.0596,-10.0943,-10.1289,-10.1289,-10.1289,-10.1289,-10.1289,-10.1289,-10.1289,-10.125,-10.0943,-10.0673,-10.0327,-9.9673,-9.9288,-9.9096,-9.9442,-9.9058,-9.9135,-9.9327,-10.025,-10.1019,-10.1673,-10.2309,-10.2867,-10.3271,-10.3609,-10.3791,-10.4007,-10.4326,-10.4636,-10.4636,-10.4597,-10.4829,-10.5061,-10.5525,-10.6183,-10.6183,-10.6299,-10.6686,-10.6918,-10.6995,-10.6995,-10.6995,-10.6995,-9.8253,-9.8524,-9.922,-9.9994,-10.069,-10.0651,-10.0651,-10.0767,-10.0458,-10.0458,-10.0729,-10.069,-10.1077,-10.1734,-10.1889,-10.1889,-10.185,-10.1812,-10.1618,-10.1541,-10.1038,-10.1154,-10.1348,-10.0961,-10.0419,-9.9762,-9.9878,-9.9762,-9.9568,-9.9452,-9.9297,-9.9143,-9.864,-9.8292,-9.8098,-9.7479,-9.7092,-9.7131,-9.6884,-9.6792,-9.6777,-9.6731,-9.6613,-9.658,-9.6613,-9.6613,-9.6525,-9.6509,-9.6509,-9.6492,-9.6492,-9.6564,-9.6613,-9.6645,-9.6645,-9.6683,-9.6645,-9.6676,-9.6738,-9.6792,-9.6845,-9.6938,-9.7015,-9.7441,-9.806,-9.8547,-9.8895,-9.936,-9.9951,-10.0611,-10.1231,-10.1289,-10.1289,-10.1289,-10.1289,-10.1289,-10.1289,-10.1289,-10.1289,-10.125,-10.0943,-10.0635,-10.0404,-9.9942,-9.9596,-9.9404,-9.9788,-10.0135,-10.0289,-10.0481,-10.125,-10.2097,-10.2712,-10.3002,-10.3464,-10.4157,-10.4437,-10.4653,-10.489,-10.5293,-10.568,-10.5719,-10.568,-10.5796,-10.6067,-10.6376,-10.657,-10.6647,-10.6802,-10.6995,-10.6995,-10.6995,-10.6995,-10.6995,-10.6995,-9.8911,-10.0187,-10.0342,-10.0883,-10.1502,-10.0883,-10.0922,-10.1348,-10.0032,-10.038,-10.1386,-10.0922,-10.0999,-10.1657,-10.1889,-10.1889,-10.1812,-10.185,-10.185,-10.1812,-10.158,-10.1773,-10.1773,-10.1657,-10.1464,-10.1502,-10.1309,-10.0922,-10.0496,-10.0342,-10.011,-9.9491,-9.922,-9.9104,-9.8911,-9.833,-9.7866,-9.7759,-9.7303,-9.7017,-9.6815,-9.6651,-9.6548,-9.6476,-9.6492,-9.6492,-9.6492,-9.6476,-9.6492,-9.6492,-9.6492,-9.6459,-9.6519,-9.6553,-9.6586,-9.6548,-9.6509,-9.6597,-9.6831,-9.6808,-9.7187,-9.7658,-9.7851,-9.8238,-9.9011,-9.9669,-9.9883,-10.0175,-10.0632,-10.1174,-10.125,-10.1289,-10.1289,-10.1289,-10.1289,-10.1289,-10.1289,-10.1289,-10.1289,-10.1289,-10.0866,-10.0596,-10.0519,-10.0481,-10.0327,-10.025,-10.0481,-10.1212,-10.1712,-10.175,-10.1943,-10.2789,-10.3635,-10.3791,-10.3981,-10.4751,-10.5266,-10.5443,-10.568,-10.5951,-10.6338,-10.6647,-10.6763,-10.6531,-10.6531,-10.6724,-10.6918,-10.6995,-10.6995,-10.6995,-10.6995,-10.6995,-10.6995,-10.6995,-10.6995,-9.9452,-10.0574,-10.0574,-10.0806,-10.1038,-10.0303,-9.9916,-9.98,-9.9065,-9.9375,-10.0148,-10.0148,-10.038,-10.1154,-10.1773,-10.1696,-10.1425,-10.1773,-10.1618,-10.1425,-10.1657,-10.1889,-10.1889,-10.1889,-10.1889,-10.185,-10.185,-10.1734,-10.1309,-10.127,-10.0961,-10.069,-10.0264,-9.9994,-9.98,-9.9143,-9.8764,-9.854,-9.8183,-9.771,-9.7253,-9.6856,-9.6536,-9.645,-9.6467,-9.6429,-9.6394,-9.6394,-9.6394,-9.6376,-9.6376,-9.6358,-9.6512,-9.6743,-9.6835,-9.66,-9.6502,-9.6767,-9.7159,-9.7292,-9.7694,-9.846,-9.8631,-9.9017,-9.9635,-10.016,-10.0612,-10.0915,-10.1,-10.1289,-10.1289,-10.1289,-10.1289,-10.1289,-10.1289,-10.1289,-10.1289,-10.1289,-10.1289,-10.1289,-10.1096,-10.1019,-10.1173,-10.1096,-10.1058,-10.1135,-10.1289,-10.202,-10.2943,-10.302,-10.2904,-10.3328,-10.4155,-10.4716,-10.4848,-10.5405,-10.594,-10.6117,-10.626,-10.6531,-10.6686,-10.6879,-10.6956,-10.6879,-10.6995,-10.6995,-10.6995,-10.6995,-10.6995,-10.6995,-10.7072,-10.7072,-10.7034,-10.6995,-10.7189,-9.98,-10.0574,-10.0419,-10.0342,-10.0226,-9.9413,-9.8833,-9.8369,-9.7982,-9.8446,-9.922,-9.922,-9.9645,-10.0613,-10.1348,-10.1541,-10.0922,-10.1657,-10.1502,-10.127,-10.158,-10.1889,-10.1889,-10.1889,-10.1889,-10.1889,-10.1889,-10.1889,-10.1812,-10.1773,-10.185,-10.158,-10.1077,-10.0845,-10.069,-9.9963,-9.9622,-9.942,-9.9161,-9.8687,-9.8001,-9.735,-9.6912,-9.6806,-9.6823,-9.6938,-9.7017,-9.7037,-9.7037,-9.6999,-9.696,-9.6903,-9.6942,-9.7442,-9.7479,-9.7013,-9.6877,-9.7336,-9.7753,-9.804,-9.8404,-9.9266,-9.9309,-9.9772,-10.0312,-10.0698,-10.0838,-10.1325,-10.1385,-10.1289,-10.1289,-10.1289,-10.1289,-10.1289,-10.1289,-10.1289,-10.1289,-10.1289,-10.1289,-10.1289,-10.1289,-10.1327,-10.1404,-10.1904,-10.1904,-10.2366,-10.252,-10.2866,-10.3674,-10.3982,-10.3982,-10.4059,-10.4599,-10.5447,-10.5852,-10.6158,-10.6498,-10.6614,-10.6686,-10.6802,-10.6879,-10.6995,-10.6995,-10.6995,-10.6995,-10.6995,-10.6995,-10.6995,-10.6995,-10.7034,-10.715,-10.7305,-10.7498,-10.7769,-10.8078,-9.98,-10.0496,-9.9762,-9.9452,-9.9336,-9.8601,-9.8601,-9.8872,-9.7557,-9.7866,-9.9127,-9.8663,-9.9143,-10.0481,-10.1409,-10.1734,-10.1734,-10.1719,-10.1719,-10.1448,-10.1734,-10.1889,-10.1889,-10.1889,-10.1889,-10.1889,-10.1889,-10.1889,-10.1889,-10.1889,-10.1889,-10.1812,-10.1773,-10.1696,-10.1448,-10.0766,-10.0386,-10.0182,-9.9446,-9.8898,-9.8709,-9.8498,-9.8364,-9.8384,-9.8346,-9.8307,-9.8173,-9.8173,-9.825,-9.8288,-9.8365,-9.8442,-9.8519,-9.8557,-9.8634,-9.8538,-9.8557,-9.8575,-9.8744,-9.88,-9.9165,-9.9912,-10.0123,-10.0621,-10.101,-10.1226,-10.1248,-10.1441,-10.1385,-10.1327,-10.1289,-10.1289,-10.1289,-10.1289,-10.1289,-10.1289,-10.1289,-10.1289,-10.1289,-10.1289,-10.1289,-10.1404,-10.1443,-10.2174,-10.2789,-10.3328,-10.3789,-10.402,-10.402,-10.4097,-10.4713,-10.4713,-10.4733,-10.5524,-10.6237,-10.6621,-10.6825,-10.6979,-10.6995,-10.6995,-10.6995,-10.6995,-10.6995,-10.6995,-10.6995,-10.6995,-10.6995,-10.6995,-10.6995,-10.7227,-10.7575,-10.7885,-10.8156,-10.8504,-10.8852,-9.9104,-9.98,-9.8949,-9.864,-9.8524,-9.7711,-9.7557,-9.7711,-9.717,-9.7479,-9.8393,-9.8207,-9.8895,-10.0292,-10.0894,-10.0971,-10.1103,-10.1561,-10.1516,-10.1416,-10.1626,-10.1889,-10.1889,-10.1889,-10.1889,-10.1889,-10.1889,-10.1889,-10.1889,-10.1889,-10.1889,-10.1873,-10.1842,-10.1732,-10.1771,-10.1341,-10.1157,-10.0817,-10.0169,-9.9615,-9.9423,-9.9096,-9.8827,-9.8827,-9.8827,-9.8865,-9.8865,-9.8788,-9.8788,-9.8788,-9.8788,-9.8788,-9.8942,-9.9211,-9.9519,-9.9558,-9.9981,-9.9962,-9.9653,-9.9595,-10.0037,-10.0595,-10.0844,-10.1018,-10.1365,-10.1423,-10.1385,-10.1385,-10.1347,-10.1327,-10.1289,-10.1289,-10.1289,-10.1289,-10.1289,-10.1289,-10.1289,-10.1289,-10.1289,-10.1289,-10.1366,-10.1635,-10.202,-10.2866,-10.3443,-10.3751,-10.402,-10.4135,-10.3751,-10.3212,-10.4097,-10.5213,-10.5253,-10.5485,-10.616,-10.6716,-10.6825,-10.6945,-10.6995,-10.6995,-10.6995,-10.6995,-10.6995,-10.6995,-10.6995,-10.6995,-10.7034,-10.7111,-10.7227,-10.7614,-10.804,-10.8504,-10.8891,-10.9084,-10.9355,-9.833,-9.8601,-9.8021,-9.7789,-9.7711,-9.7054,-9.6822,-9.6822,-9.6822,-9.7155,-9.7705,-9.8067,-9.9029,-10.0136,-10.0599,-10.0831,-10.0754,-10.1384,-10.1263,-10.1219,-10.1423,-10.1819,-10.1858,-10.1873,-10.1889,-10.1889,-10.1889,-10.1889,-10.1889,-10.1873,-10.1858,-10.1858,-10.1755,-10.1722,-10.1671,-10.1564,-10.1437,-10.1249,-10.0731,-10.0423,-10.0289,-9.9827,-9.9596,-9.9481,-9.9404,-9.9404,-9.9404,-9.9481,-9.9519,-9.9519,-9.9596,-9.9673,-9.9712,-10.0096,-10.0366,-10.0481,-10.0827,-10.0866,-10.0539,-10.0462,-10.075,-10.1058,-10.1289,-10.1231,-10.127,-10.1289,-10.1289,-10.1289,-10.1289,-10.1289,-10.1289,-10.1289,-10.1289,-10.1289,-10.1289,-10.1289,-10.1289,-10.1289,-10.1327,-10.1404,-10.1673,-10.2327,-10.2828,-10.3674,-10.4135,-10.4251,-10.4328,-10.4328,-10.3905,-10.3289,-10.4174,-10.5597,-10.5771,-10.5832,-10.6256,-10.6753,-10.6842,-10.6928,-10.6979,-10.6995,-10.6995,-10.6995,-10.6995,-10.6995,-10.7034,-10.7305,-10.7459,-10.7459,-10.7498,-10.804,-10.8581,-10.9239,-10.9664,-10.9858,-11.0128,-9.7673,-9.6976,-9.6938,-9.6938,-9.6938,-9.686,-9.6822,-9.6822,-9.6822,-9.6815,-9.7086,-9.8279,-9.9347,-10.0256,-10.0933,-10.1357,-10.1452,-10.1585,-10.1508,-10.1504,-10.165,-10.1722,-10.1755,-10.1826,-10.1873,-10.1873,-10.1858,-10.1858,-10.1858,-10.1755,-10.1738,-10.1722,-10.1688,-10.1654,-10.1585,-10.1534,-10.1461,-10.1328,-10.1096,-10.1096,-10.1096,-10.0943,-10.0904,-10.0943,-10.1019,-10.1135,-10.1096,-10.0904,-10.0827,-10.0789,-10.075,-10.075,-10.0712,-10.0904,-10.1019,-10.1058,-10.1135,-10.1173,-10.1058,-10.1019,-10.1173,-10.125,-10.1289,-10.1289,-10.1289,-10.1289,-10.1289,-10.1289,-10.1289,-10.1289,-10.1289,-10.1289,-10.1289,-10.1289,-10.1289,-10.1289,-10.1289,-10.1289,-10.1366,-10.1481,-10.1904,-10.2558,-10.3366,-10.4135,-10.4828,-10.502,-10.4751,-10.4751,-10.4943,-10.4597,-10.5136,-10.5944,-10.6174,-10.6332,-10.6545,-10.6771,-10.6825,-10.6912,-10.6995,-10.6995,-10.6995,-10.6995,-10.6995,-10.7072,-10.715,-10.7575,-10.8001,-10.831,-10.8581,-10.8697,-10.9161,-10.9935,-11.0593,-11.0941,-11.125,-9.7092,-9.6822,-9.6822,-9.6822,-9.6822,-9.6822,-9.6822,-9.6768,-9.6738,-9.6629,-9.6668,-9.8198,-9.9109,-9.9727,-10.0826,-10.1404,-10.1404,-10.1516,-10.1534,-10.157,-10.1585,-10.1637,-10.1654,-10.1671,-10.1727,-10.1744,-10.1727,-10.1727,-10.1671,-10.1654,-10.1603,-10.1567,-10.1606,-10.157,-10.1516,-10.1442,-10.1366,-10.1308,-10.1289,-10.1289,-10.1289,-10.1289,-10.1289,-10.1289,-10.1289,-10.1289,-10.125,-10.1289,-10.1289,-10.1289,-10.1289,-10.1289,-10.1289,-10.1289,-10.1289,-10.1289,-10.1289,-10.1289,-10.1289,-10.1289,-10.1289,-10.1289,-10.1289,-10.1289,-10.1289,-10.1289,-10.1289,-10.1289,-10.1289,-10.1289,-10.1289,-10.1289,-10.1289,-10.1289,-10.1289,-10.1289,-10.1289,-10.1289,-10.1481,-10.1635,-10.2174,-10.2828,-10.3674,-10.452,-10.5213,-10.5751,-10.5443,-10.5174,-10.5328,-10.552,-10.5828,-10.6097,-10.6328,-10.6506,-10.6679,-10.6735,-10.6789,-10.6894,-10.6995,-10.6995,-10.6995,-10.6995,-10.7034,-10.7111,-10.7459,-10.7962,-10.8581,-10.9316,-10.9664,-10.9703,-11.0128,-11.0747,-11.1366,-11.183,-11.1985,-9.6822,-9.6822,-9.6822,-9.6822,-9.6822,-9.6822,-9.6807,-9.6738,-9.6731,-9.6757,-9.6895,-9.8245,-9.9017,-9.9538,-10.0596,-10.1289,-10.1308,-10.1404,-10.1423,-10.1479,-10.1534,-10.157,-10.1588,-10.1606,-10.1641,-10.1585,-10.1585,-10.1585,-10.1603,-10.155,-10.1552,-10.1498,-10.1481,-10.1442,-10.1423,-10.1366,-10.1289,-10.1289,-10.1289,-10.1289,-10.1289,-10.1289,-10.1289,-10.1289,-10.1289,-10.1289,-10.1289,-10.1289,-10.1289,-10.1289,-10.1289,-10.1289,-10.1289,-10.1289,-10.1289,-10.1289,-10.1289,-10.1289,-10.1289,-10.1289,-10.1289,-10.1289,-10.1289,-10.1289,-10.1289,-10.1289,-10.1289,-10.1289,-10.1289,-10.1289,-10.1289,-10.1289,-10.1289,-10.1289,-10.1289,-10.1289,-10.1289,-10.1327,-10.1597,-10.1866,-10.2443,-10.2943,-10.3789,-10.4597,-10.5136,-10.5751,-10.5867,-10.5559,-10.5366,-10.5636,-10.5944,-10.6174,-10.6367,-10.6526,-10.6679,-10.6716,-10.6751,-10.6928,-10.6995,-10.6995,-10.6995,-10.7034,-10.7305,-10.7614,-10.8001,-10.8465,-10.9161,-11.0012,-11.0438,-11.067,-11.1095,-11.1444,-11.1637,-11.1985,-11.2024,-9.6822,-9.6822,-9.6822,-9.6822,-9.6768,-9.6822,-9.6777,-9.6715,-9.6683,-9.6972,-9.7455,-9.8383,-9.9154,-9.9865,-10.0712,-10.1135,-10.1289,-10.1289,-10.1308,-10.1366,-10.1442,-10.1479,-10.1498,-10.1534,-10.1514,-10.1567,-10.155,-10.1532,-10.155,-10.1516,-10.1479,-10.1442,-10.1385,-10.1347,-10.1327,-10.1289,-10.1289,-10.1289,-10.1289,-10.1289,-10.1289,-10.1289,-10.1289,-10.1289,-10.1289,-10.1289,-10.1289,-10.1289,-10.1289,-10.1289,-10.1289,-10.1289,-10.1289,-10.1289,-10.1289,-10.1289,-10.1289,-10.1289,-10.1289,-10.1289,-10.1289,-10.1289,-10.1289,-10.1289,-10.1289,-10.1289,-10.1289,-10.1289,-10.1289,-10.1289,-10.1289,-10.1289,-10.1289,-10.1289,-10.1289,-10.1289,-10.1289,-10.1597,-10.1904,-10.2327,-10.2597,-10.302,-10.3866,-10.4597,-10.502,-10.552,-10.5982,-10.5982,-10.5674,-10.579,-10.6136,-10.6251,-10.6405,-10.6526,-10.6661,-10.6698,-10.6771,-10.6928,-10.7034,-10.7072,-10.7189,-10.7343,-10.7653,-10.8078,-10.8697,-10.9316,-11.0012,-11.0786,-11.1018,-11.1289,-11.1637,-11.1946,-11.2062,-11.2101,-11.2101,-9.6822,-9.6822,-9.6822,-9.6792,-9.6746,-9.6707,-9.6731,-9.6683,-9.6586,-9.6604,-9.6882,-9.7596,-9.8404,-9.9288,-10.0212,-10.0866,-10.125,-10.1289,-10.1289,-10.1289,-10.1328,-10.1366,-10.1404,-10.1385,-10.1404,-10.1385,-10.1385,-10.1404,-10.1423,-10.1404,-10.1385,-10.1308,-10.1308,-10.1289,-10.1289,-10.1289,-10.1289,-10.1289,-10.1289,-10.1289,-10.1289,-10.1289,-10.1289,-10.1289,-10.1289,-10.1289,-10.1289,-10.1289,-10.1289,-10.1289,-10.1289,-10.1289,-10.1289,-10.1289,-10.1289,-10.1289,-10.1289,-10.1289,-10.1289,-10.1289,-10.1289,-10.1289,-10.1289,-10.1289,-10.1289,-10.1289,-10.1289,-10.1289,-10.1289,-10.1289,-10.1289,-10.1289,-10.1289,-10.1289,-10.1289,-10.1289,-10.1404,-10.1981,-10.2443,-10.2904,-10.3251,-10.4212,-10.5097,-10.5059,-10.5328,-10.5674,-10.6174,-10.629,-10.6059,-10.6097,-10.6328,-10.6328,-10.6426,-10.6545,-10.6623,-10.6795,-10.6982,-10.7177,-10.7266,-10.7305,-10.7421,-10.773,-10.831,-10.8891,-10.9548,-11.0167,-11.0747,-11.125,-11.156,-11.1869,-11.2024,-11.2101,-11.2101,-11.2101,-11.2101,-9.6822,-9.6822,-9.6753,-9.6761,-9.6715,-9.6699,-9.6645,-9.6564,-9.645,-9.6458,-9.6883,-9.7634,-9.8481,-9.9327,-10.0135,-10.0673,-10.1289,-10.0981,-10.1212,-10.1173,-10.0981,-10.1058,-10.1173,-10.1289,-10.1308,-10.1289,-10.1289,-10.1289,-10.1308,-10.1289,-10.1289,-10.1289,-10.1289,-10.1289,-10.1289,-10.1289,-10.1289,-10.1289,-10.1289,-10.1289,-10.1289,-10.1289,-10.1289,-10.1289,-10.1289,-10.1289,-10.1289,-10.1289,-10.1289,-10.1289,-10.1289,-10.1289,-10.1289,-10.1289,-10.1289,-10.1289,-10.1289,-10.1289,-10.1289,-10.1289,-10.1289,-10.1289,-10.1289,-10.1289,-10.1289,-10.1289,-10.1289,-10.1289,-10.1289,-10.1289,-10.1289,-10.1289,-10.1327,-10.1327,-10.1366,-10.1404,-10.1943,-10.2481,-10.3097,-10.3558,-10.3905,-10.5059,-10.5867,-10.5828,-10.5713,-10.6059,-10.6405,-10.6405,-10.6405,-10.6405,-10.6405,-10.6405,-10.6426,-10.6526,-10.6777,-10.7122,-10.7288,-10.7443,-10.7498,-10.7537,-10.8078,-10.8465,-10.9084,-10.9664,-11.0167,-11.067,-11.1211,-11.1637,-11.1869,-11.1985,-11.2062,-11.2101,-11.2101,-11.2101,-11.2101,-9.6822,-9.6768,-9.6707,-9.6699,-9.6699,-9.6668,-9.6548,-9.6432,-9.6402,-9.6788,-9.7519,-9.8288,-9.9096,-10.0019,-10.0827,-10.1173,-10.1135,-10.0519,-10.0789,-10.0904,-10.0635,-10.0827,-10.1096,-10.1289,-10.1289,-10.1289,-10.1289,-10.1289,-10.1289,-10.1289,-10.1289,-10.1289,-10.1289,-10.1289,-10.1289,-10.1289,-10.1289,-10.1289,-10.1289,-10.1289,-10.1289,-10.1289,-10.1289,-10.1289,-10.1289,-10.1289,-10.1289,-10.1289,-10.1289,-10.1289,-10.1289,-10.1289,-10.1289,-10.1289,-10.1289,-10.1289,-10.1289,-10.1289,-10.1289,-10.1289,-10.1289,-10.1289,-10.1289,-10.1289,-10.1289,-10.1289,-10.1289,-10.1289,-10.1289,-10.1289,-10.1289,-10.1327,-10.1366,-10.1443,-10.152,-10.1904,-10.252,-10.3135,-10.3751,-10.4135,-10.4328,-10.4982,-10.552,-10.5674,-10.5982,-10.6174,-10.6405,-10.6405,-10.6405,-10.6405,-10.6405,-10.6405,-10.6407,-10.6467,-10.6796,-10.7122,-10.7288,-10.731,-10.7653,-10.7807,-10.8465,-10.8968,-10.9355,-10.9819,-11.0554,-11.1134,-11.1598,-11.1869,-11.2024,-11.2101,-11.2101,-11.2101,-11.2101,-11.2101,-11.2101,-9.6792,-9.6707,-9.6715,-9.6597,-9.6519,-9.645,-9.6379,-9.6363,-9.6865,-9.7326,-9.7557,-9.8404,-9.9327,-10.0115,-10.0366,-10.0789,-10.0789,-10.0673,-10.0789,-10.0673,-10.0366,-10.0712,-10.1019,-10.1289,-10.1289,-10.1289,-10.1289,-10.1289,-10.1289,-10.1289,-10.1289,-10.1289,-10.1289,-10.1289,-10.1289,-10.1289,-10.1289,-10.1289,-10.1289,-10.1289,-10.1289,-10.1289,-10.1289,-10.1289,-10.1289,-10.1289,-10.1289,-10.1289,-10.1289,-10.1289,-10.1289,-10.1289,-10.1289,-10.1289,-10.1289,-10.1289,-10.1289,-10.1289,-10.1289,-10.1289,-10.1289,-10.1289,-10.1289,-10.1289,-10.1289,-10.1289,-10.1289,-10.1289,-10.1289,-10.1289,-10.1404,-10.1443,-10.1673,-10.1904,-10.2135,-10.2674,-10.3289,-10.3905,-10.452,-10.4866,-10.502,-10.5328,-10.579,-10.5905,-10.6213,-10.6328,-10.6405,-10.6405,-10.6405,-10.6405,-10.6405,-10.6405,-10.6426,-10.6448,-10.6603,-10.6909,-10.7074,-10.7255,-10.7636,-10.8001,-10.8388,-10.8891,-10.9355,-11.009,-11.0941,-11.1521,-11.1946,-11.2101,-11.2101,-11.2101,-11.2101,-11.2101,-11.2101,-11.2101,-11.2101,-9.6738,-9.6715,-9.6668,-9.6514,-9.6417,-9.6653,-9.6788,-9.6865,-9.7288,-9.7788,-9.8557,-9.9096,-9.9596,-10.0019,-10.0135,-10.0173,-10.0096,-9.9365,-9.9519,-10.0366,-10.0058,-10.0519,-10.0904,-10.1366,-10.1289,-10.1327,-10.1327,-10.1289,-10.1366,-10.1327,-10.1289,-10.1289,-10.1289,-10.1327,-10.1289,-10.1289,-10.1289,-10.1289,-10.1289,-10.1289,-10.1289,-10.1289,-10.1289,-10.1289,-10.1289,-10.1289,-10.1289,-10.1289,-10.1289,-10.1289,-10.1289,-10.1289,-10.1289,-10.1289,-10.1289,-10.1289,-10.1289,-10.1289,-10.1289,-10.1289,-10.1289,-10.1289,-10.1289,-10.1289,-10.1289,-10.1289,-10.1289,-10.1289,-10.1289,-10.1327,-10.1443,-10.1635,-10.2097,-10.252,-10.2981,-10.3482,-10.4097,-10.4713,-10.5174,-10.5597,-10.5867,-10.6136,-10.6367,-10.6405,-10.6405,-10.6405,-10.6405,-10.6405,-10.6405,-10.6405,-10.6405,-10.6405,-10.6426,-10.6427,-10.6623,-10.6891,-10.7232,-10.753,-10.7791,-10.8156,-10.8465,-10.8775,-10.92,-11.0244,-11.1444,-11.183,-11.2101,-11.2101,-11.2101,-11.2101,-11.2101,-11.2101,-11.2101,-11.2101,-11.2101,-9.6761,-9.6683,-9.6509,-9.6411,-9.6422,-9.7019,-9.7365,-9.7519,-9.748,-9.8404,-9.9635,-10.0019,-9.9942,-9.9827,-9.9788,-9.9481,-9.9096,-9.8404,-9.8865,-10.0058,-9.9673,-10.0135,-10.125,-10.152,-10.1827,-10.1597,-10.1481,-10.1673,-10.1558,-10.175,-10.1943,-10.152,-10.1712,-10.1789,-10.1673,-10.1635,-10.1558,-10.1289,-10.1289,-10.1289,-10.1289,-10.1289,-10.1289,-10.1289,-10.1289,-10.1289,-10.1289,-10.125,-10.125,-10.125,-10.1173,-10.1135,-10.1289,-10.1289,-10.1289,-10.1289,-10.1289,-10.1289,-10.1289,-10.1289,-10.1289,-10.1289,-10.1289,-10.1443,-10.152,-10.1366,-10.1327,-10.1404,-10.1443,-10.1673,-10.1866,-10.2404,-10.2904,-10.3366,-10.3828,-10.4405,-10.5059,-10.5482,-10.5674,-10.5982,-10.6136,-10.6405,-10.6405,-10.6405,-10.6405,-10.6405,-10.6405,-10.6405,-10.6405,-10.6405,-10.6405,-10.6405,-10.6405,-10.6446,-10.6719,-10.7026,-10.7582,-10.7903,-10.7989,-10.7984,-10.8117,-10.8504,-10.9007,-11.0244,-11.1482,-11.1869,-11.2101,-11.2101,-11.2101,-11.2101,-11.2101,-11.2101,-11.2101,-11.2101,-11.2101,-9.6645,-9.6548,-9.6394,-9.6325,-9.6326,-9.6519,-9.698,-9.748,-9.7519,-9.8134,-9.9096,-9.9712,-9.9673,-9.9135,-9.9096,-9.8904,-9.8596,-9.8173,-9.8711,-9.9673,-9.9788,-10.0481,-10.202,-10.2404,-10.2558,-10.2443,-10.2289,-10.2097,-10.2135,-10.2597,-10.3174,-10.3135,-10.2981,-10.2674,-10.2174,-10.2174,-10.1981,-10.1673,-10.1635,-10.1597,-10.1558,-10.1404,-10.1289,-10.1289,-10.1289,-10.1212,-10.1058,-10.0673,-10.0904,-10.1096,-10.0635,-10.075,-10.125,-10.125,-10.1289,-10.1289,-10.125,-10.1327,-10.1443,-10.1481,-10.152,-10.1443,-10.152,-10.1827,-10.1827,-10.152,-10.1443,-10.1597,-10.1789,-10.2097,-10.2481,-10.3135,-10.3751,-10.4174,-10.4636,-10.5328,-10.5944,-10.6059,-10.6136,-10.6251,-10.6367,-10.6405,-10.6405,-10.6405,-10.6405,-10.6405,-10.6405,-10.6405,-10.6405,-10.6405,-10.6405,-10.6405,-10.6405,-10.6484,-10.6738,-10.7104,-10.7584,-10.7808,-10.7818,-10.7813,-10.7846,-10.8736,-10.9664,-11.0477,-11.1405,-11.183,-11.2101,-11.2101,-11.2101,-11.2101,-11.2101,-11.2101,-11.2101,-11.2101,-11.2101,-9.6597,-9.6463,-9.6343,-9.6288,-9.6365,-9.6673,-9.7096,-9.7519,-9.7904,-9.8327,-9.8788,-9.9211,-9.9019,-9.8327,-9.8211,-9.8327,-9.8288,-9.8211,-9.8942,-9.9827,-10.0596,-10.1058,-10.202,-10.2674,-10.2212,-10.2058,-10.202,-10.202,-10.2327,-10.2712,-10.3097,-10.3058,-10.3058,-10.3174,-10.2635,-10.2597,-10.2635,-10.2481,-10.2366,-10.2327,-10.2174,-10.1827,-10.1366,-10.1289,-10.1019,-10.0904,-10.0481,-10.0019,-9.9865,-10.0019,-9.9673,-9.9673,-10.0096,-10.0442,-10.0673,-10.0866,-10.1058,-10.1481,-10.175,-10.1904,-10.202,-10.2174,-10.2404,-10.2943,-10.302,-10.2789,-10.2751,-10.2904,-10.2904,-10.3174,-10.3366,-10.3943,-10.4328,-10.4751,-10.5328,-10.5944,-10.6213,-10.6251,-10.629,-10.6328,-10.6405,-10.6405,-10.6405,-10.6405,-10.6405,-10.6405,-10.6405,-10.6405,-10.6405,-10.6405,-10.6405,-10.6405,-10.6405,-10.6405,-10.6543,-10.7008,-10.7565,-10.7674,-10.7685,-10.7967,-10.8272,-10.9393,-11.036,-11.0786,-11.1289,-11.1908,-11.2101,-11.1985,-11.2062,-11.2101,-11.2101,-11.2101,-11.2101,-11.2101,-11.2101,-9.6531,-9.6376,-9.6325,-9.6288,-9.6403,-9.7019,-9.7288,-9.748,-9.8211,-9.8557,-9.8596,-9.875,-9.825,-9.775,-9.7519,-9.7596,-9.7942,-9.8673,-9.9519,-10.0366,-10.1173,-10.1635,-10.175,-10.1866,-10.1981,-10.1904,-10.1789,-10.175,-10.1827,-10.2558,-10.2828,-10.1981,-10.2251,-10.2828,-10.2712,-10.2904,-10.3174,-10.3251,-10.3289,-10.3558,-10.3097,-10.2327,-10.1673,-10.1135,-10.0558,-10.0115,-9.9712,-9.9211,-9.875,-9.9211,-9.9481,-9.9712,-9.9827,-10.0366,-10.0673,-10.0943,-10.1404,-10.202,-10.252,-10.2751,-10.3174,-10.3558,-10.3828,-10.3905,-10.3905,-10.3982,-10.3982,-10.4097,-10.4135,-10.4059,-10.4289,-10.4674,-10.5059,-10.5328,-10.5905,-10.6328,-10.6367,-10.6405,-10.6405,-10.6405,-10.6405,-10.6405,-10.6444,-10.6444,-10.6405,-10.6405,-10.6405,-10.6405,-10.6405,-10.6405,-10.6405,-10.6405,-10.6405,-10.6405,-10.6464,-10.6988,-10.7643,-10.7582,-10.771,-10.8127,-10.8658,-10.9471,-11.009,-11.0477,-11.1018,-11.156,-11.1753,-11.1676,-11.1792,-11.2062,-11.2101,-11.2101,-11.2101,-11.2101,-11.2101,-9.6394,-9.6306,-9.6326,-9.6288,-9.6326,-9.648,-9.6519,-9.6673,-9.7442,-9.775,-9.8096,-9.8481,-9.8327,-9.7557,-9.7519,-9.7942,-9.9058,-9.9635,-10.0289,-10.1135,-10.1827,-10.2212,-10.2327,-10.2251,-10.2712,-10.2443,-10.2058,-10.2289,-10.202,-10.2866,-10.3482,-10.3097,-10.3943,-10.3866,-10.2866,-10.3289,-10.3943,-10.3828,-10.3712,-10.3866,-10.3135,-10.2481,-10.202,-10.1327,-10.0519,-9.9788,-9.9019,-9.8211,-9.8711,-9.9558,-10.0212,-10.0327,-10.0442,-10.0519,-10.0943,-10.125,-10.175,-10.2404,-10.2904,-10.3174,-10.3558,-10.3789,-10.3943,-10.4212,-10.4366,-10.4713,-10.4866,-10.529,-10.5213,-10.4789,-10.4943,-10.5559,-10.5982,-10.5944,-10.629,-10.6328,-10.6367,-10.6405,-10.6405,-10.6405,-10.6405,-10.6444,-10.6559,-10.6521,-10.6482,-10.6482,-10.6444,-10.6444,-10.6405,-10.6405,-10.6405,-10.6405,-10.6405,-10.6405,-10.6405,-10.716,-10.7721,-10.7642,-10.779,-10.832,-10.8796,-10.9277,-10.9819,-11.009,-11.0515,-11.1057,-11.1173,-11.1444,-11.1714,-11.1946,-11.2062,-11.2101,-11.2101,-11.2101,-11.2101]},{"header":{"parameterUnit":"m.s-1","parameterCategory":1,"la1":31.0,"la2":29.5877,"lo1":-88.7671,"lo2":-86.6584,"dx":0.0162,"dy":0.0185,"nx":115,"ny":88,"refTime":"2023-01-11T18:00:00:Z","depth":0,"parameterNumber":3,"parameterNumberName":"V-component_of_WINDS"},"data":[0.0,0.0,0.0,0.0,0.0,0.0,0.0,0.0,0.0,0.0,0.0,0.0,0.0,0.0,0.0,0.0,0.0,0.0,0.0,0.0,0.0,0.0,0.0,0.0,0.0,0.0,0.0,0.0,0.0,0.0,0.0,0.0,0.0,0.0,0.0,0.0,0.0,0.0,0.0,0.0,0.0,0.0,0.0,0.0,0.0,0.0,0.0,0.0,0.0,0.0,0.0,0.0,0.0,0.0,0.0,0.0,0.0,0.0,0.0,0.0,0.0,0.0,0.0,0.0,0.0,0.0,0.0,0.0,0.0,0.0,0.0,0.0,0.0,0.0,0.0,0.0,0.0,0.0,0.0,0.0,0.0,0.0,0.0,0.0,0.0,0.0,0.0,0.0,0.0,0.0,0.0,0.0,0.0,0.0,0.0,0.0,0.0,0.0,0.0,0.0,0.0,0.0,0.0,0.0,0.0,0.0,0.0,0.0,0.0,0.0,0.0,0.0,0.0,0.0,0.0,0.0,0.0,0.0,0.0,0.0,0.0,0.0,0.0,0.0,0.0,0.0,0.0,0.0,0.0,0.0,0.0,0.0,0.0,0.0,0.0,0.0,0.0,0.0,0.0,0.0,0.0,0.0,0.0,0.0,0.0,0.0,0.0,0.0,0.0,0.0,0.0,0.0,0.0,0.0,0.0,0.0,0.0,0.0,0.0,0.0,0.0,0.0,0.0,0.0,0.0,0.0,0.0,0.0,0.0,0.0,0.0,0.0,0.0,0.0,0.0,0.0,0.0,0.0,0.0,0.0,0.0,0.0,0.0,0.0,0.0,0.0,0.0,0.0,0.0,0.0,0.0,0.0,0.0,0.0,0.0,0.0,0.0,0.0,0.0,0.0,0.0,0.0,0.0,0.0,0.0,0.0,0.0,0.0,0.0,0.0,0.0,0.0,0.0,0.0,0.0,0.0,0.0,0.0,0.0,0.0,0.0,0.0,0.0,0.0,0.0,0.0,0.0,0.0,0.0,0.0,0.0,0.0,0.0,0.0,0.0,0.0,0.0,0.0,0.0,0.0,0.0,0.0,0.0,0.0,0.0,0.0,0.0,0.0,0.0,0.0,0.0,0.0,0.0,0.0,0.0,0.0,0.0,0.0,0.0,0.0,0.0,0.0,0.0,0.0,0.0,0.0,0.0,0.0,0.0,0.0,0.0,0.0,0.0,0.0,0.0,0.0,0.0,0.0,0.0,0.0,0.0,0.0,0.0,0.0,0.0,0.0,0.0,0.0,0.0,0.0,0.0,0.0,0.0,0.0,0.0,0.0,0.0,0.0,0.0,0.0,0.0,0.0,0.0,0.0,0.0,0.0,0.0,0.0,0.0,0.0,0.0,0.0,0.0,0.0,0.0,0.0,0.0,0.0,0.0,0.0,0.0,0.0,0.0,0.0,0.0,0.0,0.0,0.0,0.0,0.0,0.0,0.0,0.0,0.0,0.0,0.0,0.0,0.0,0.0,0.0,0.0,0.0,0.0,0.0,0.0,0.0,0.0,0.0,0.0,0.0,0.0,0.0,0.0,0.0,0.0,0.0,0.0,0.0,0.0,0.0,0.0,0.0,0.0,0.0,0.0,0.0,0.0,0.0,0.0,0.0,0.0,0.0,0.0,0.0,0.0,0.0,0.0,0.0,0.0,0.0,0.0,0.0,0.0,0.0,0.0,0.0,0.0,0.0,0.0,0.0,0.0,0.0,0.0,0.0,0.0,0.0,0.0,0.0,0.0,0.0,0.0,0.0,0.0,0.0,0.0,0.0,0.0,0.0,0.0,0.0,0.0,0.0,0.0,0.0,0.0,0.0,0.0,0.0,0.0,0.0,0.0,0.0,0.0,0.0,0.0,0.0,0.0,0.0,0.0,0.0,0.0,0.0,0.0,0.0,0.0,0.0,0.0,0.0,0.0,0.0,0.0,0.0,0.0,0.0,0.0,0.0,0.0,0.0,0.0,0.0,0.0,0.0,0.0,0.0,0.0,0.0,0.0,0.0,0.0,0.0,0.0,0.0,0.0,0.0,0.0,0.0,0.0,0.0,0.0,0.0,0.0,0.0,0.0,0.0,0.0,0.0,0.0,0.0,0.0,0.0,0.0,0.0,0.0,0.0,0.0,0.0,0.0,0.0,0.0,0.0,0.0,0.0,0.0,0.0,0.0,0.0,0.0,0.0,0.0,0.0,0.0,0.0,0.0,0.0,0.0,0.0,0.0,0.0,0.0,0.0,0.0,0.0,0.0,0.0,0.0,0.0,0.0,0.0,0.0,0.0,0.0,0.0,0.0,0.0,0.0,0.0,0.0,0.0,0.0,0.0,0.0,0.0,0.0,0.0,0.0,0.0,0.0,0.0,0.0,0.0,0.0,0.0,0.0,0.0,0.0,0.0,0.0,0.0,0.0,0.0,0.0,0.0,0.0,0.0,0.0,0.0,0.0,0.0,0.0,0.0,0.0,0.0,0.0,0.0,0.0,0.0,0.0,0.0,0.0,0.0,0.0,0.0,0.0,0.0,0.0,0.0,0.0,0.0,0.0,0.0,0.0,0.0,0.0,0.0,0.0,0.0,0.0,0.0,0.0,0.0,0.0,0.0,0.0,0.0,0.0,0.0,0.0,0.0,0.0,0.0,0.0,0.0,0.0,0.0,0.0,0.0,0.0,0.0,0.0,0.0,0.0,0.0,0.0,0.0,0.0,0.0,0.0,0.0,0.0,0.0,0.0,0.0,0.0,0.0,0.0,0.0,0.0,0.0,0.0,0.0,0.0,0.0,0.0,0.0,0.0,0.0,0.0,0.0,0.0,0.0,0.0,0.0,0.0,0.0,0.0,0.0,0.0,0.0,0.0,0.0,0.0,0.0,0.0,0.0,0.0,0.0,0.0,0.0,0.0,0.0,0.0,0.0,0.0,0.0,0.0,0.0,0.0,0.0,0.0,0.0,0.0,0.0,0.0,0.0,0.0,0.0,0.0,0.0,0.0,0.0,0.0,0.0,0.0,0.0,0.0,0.0,0.0,0.0,0.0,0.0,0.0,0.0,0.0,0.0,0.0,0.0,0.0,0.0,0.0,0.0,0.0,0.0,0.0,0.0,0.0,0.0,0.0,0.0,0.0,0.0,0.0,0.0,0.0,0.0,0.0,0.0,0.0,0.0,0.0,0.0,0.0,0.0,0.0,0.0,0.0,0.0,0.0,0.0,0.0,0.0,0.0,0.0,0.0,0.0,0.0,0.0,0.0,0.0,0.0,0.0,0.0,0.0,0.0,0.0,0.0,0.0,0.0,0.0,0.0,0.0,0.0,0.0,0.0,0.0,0.0,0.0,0.0,0.0,0.0,0.0,0.0,0.0,0.0,0.0,0.0,0.0,0.0,0.0,0.0,0.0,0.0,0.0,0.0,0.0,0.0,0.0,0.0,0.0,0.0,0.0,0.0,0.0,0.0,0.0,0.0,0.0,0.0,0.0,0.0,0.0,0.0,0.0,0.0,0.0,0.0,0.0,0.0,0.0,0.0,0.0,0.0,0.0,0.0,0.0,0.0,0.0,0.0,0.0,0.0,0.0,0.0,0.0,0.0,0.0,0.0,0.0,0.0,0.0,0.0,0.0,0.0,0.0,0.0,0.0,0.0,0.0,0.0,0.0,0.0,0.0,0.0,0.0,0.0,0.0,0.0,0.0,0.0,0.0,0.0,0.0,0.0,0.0,0.0,0.0,0.0,0.0,0.0,0.0,0.0,0.0,0.0,0.0,0.0,0.0,0.0,0.0,0.0,0.0,0.0,0.0,0.0,0.0,0.0,0.0,0.0,0.0,0.0,0.0,0.0,0.0,0.0,0.0,0.0,0.0,0.0,0.0,0.0,0.0,0.0,0.0,0.0,0.0,0.0,0.0,0.0,0.0,0.0,0.0,0.0,0.0,0.0,0.0,0.0,0.0,0.0,0.0,0.0,0.0,0.0,0.0,0.0,0.0,0.0,0.0,0.0,0.0,0.0,0.0,0.0,0.0,0.0,0.0,0.0,0.0,0.0,0.0,0.0,0.0,0.0,0.0,0.0,0.0,0.0,0.0,0.0,0.0,0.0,0.0,0.0,0.0,0.0,0.0,0.0,0.0,0.0,0.0,0.0,0.0,0.0,0.0,0.0,0.0,0.0,0.0,0.0,0.0,0.0,0.0,0.0,0.0,0.0,0.0,0.0,0.0,0.0,0.0,0.0,0.0,0.0,0.0,0.0,0.0,0.1326,0.0,0.0,0.0,0.1384,0.0,0.0,0.0,0.0,0.0,0.0,0.0,0.0,0.0,0.0,0.0,0.0,0.0,0.0,0.0,0.0,0.0,0.0,0.0,0.0,0.0,0.0,0.0,0.0,0.0,0.0,0.0,0.0,0.0,0.0,0.0,0.0,0.0,0.0,0.0,0.0,0.0,0.0,0.0,0.0,0.0,0.0,0.0,0.0,0.0,0.0,0.0,0.0,0.0,0.0,0.0,0.0,0.0,0.0,0.0,0.0,0.0,0.0,0.0,0.0,0.0,0.0,0.0,0.0,0.0,0.0,0.0,0.0,0.0,0.0,0.0,0.0,0.0,0.0,0.0,0.0,0.0,0.0,0.0,0.0,0.0,0.0,0.0,0.0,0.0,0.0,0.0,0.0,0.0,0.0,0.0,0.0,0.0,0.0,0.0,0.0,0.0,0.0,0.0,0.0,0.0,0.0,0.0,0.0,0.0,0.0,0.0,0.0,0.0,0.0,0.1363,0.1389,0.1406,0.1407,0.1391,0.0,0.0,0.0,0.0,0.0,0.0,0.0,0.0,0.0,0.0,0.0,0.0,0.0,0.0,0.0,0.0,0.0,0.0,0.0,0.0,0.0,0.0,0.0,0.0,0.0,0.0,0.0,0.0,0.0,0.0,0.0,0.0,0.0,0.0,0.0,0.0,0.0,0.0,0.0,0.0,0.0,0.0,0.0,0.0,0.0,0.0,0.0,0.0,0.0,0.0,0.0,0.0,0.0,0.0,0.0,0.0,0.0,0.0,0.0,0.0,0.0,0.0,0.0,0.0,0.0,0.0,0.0,0.0,0.0,0.0,0.0,0.0,0.0,0.0,0.0,0.0,0.0,0.0,0.0,0.0,0.0,0.0,0.0,0.0,0.0,0.0,0.0,0.0,0.0,0.0,0.0,0.0,0.0,0.0,0.0,0.0,0.0,0.0,0.0,0.0,0.0,0.0,0.0,0.0,0.0,0.0,0.0,0.0,0.0,0.0,0.0,0.0,0.1423,0.1421,0.1392,0.0,0.0,0.0,0.0,0.0,0.0,0.0,0.0,0.0,0.0,0.0,0.0,0.0,0.0,0.0,0.0,0.0,0.0,0.0,0.0,0.0,0.0,0.0,0.0,0.0,0.0,0.0,0.0,0.0,0.0,0.0,0.0,0.0,0.0,0.0,0.0,0.0,0.0,0.0,0.0,0.0,0.0,0.0,0.0,0.0,0.0,0.0,0.0,0.0,0.0,0.0,0.0,0.0,0.0,0.0,0.0,0.0,0.0,0.0,0.0,0.0,0.0,0.0,0.0,0.0,0.0,0.0,0.0,0.0,0.0,0.0,0.0,0.0,0.0,0.0,0.0,0.0,0.0,0.0,0.0,0.0,0.0,0.0,0.0,0.0,0.0,0.0,0.0,0.0,0.0,0.0,0.0,0.0,0.0,0.0,0.0,0.0,0.0,0.0,0.0,0.0,0.0,0.0,0.0,0.0,0.0,0.0,0.0,0.0,0.0,0.1403,0.1385,0.1389,0.0,0.1395,0.0,0.0,0.0,0.0,0.0,0.0,0.0,0.0,0.0,0.0,0.0,0.0,0.0,0.0,0.0,0.0,0.0,0.0,0.0,0.0,0.0,0.0,0.0,0.0,0.0,0.0,0.0,0.0,0.0,0.0,0.0,0.0,0.0,0.0,0.0,0.0,0.0,0.0,0.0,0.0,0.0,0.0,0.0,0.0,0.0,0.0,0.0,0.0,0.0,0.0,0.0,0.0,0.0,0.0,0.0,0.0,0.0,0.0,0.0,0.0,0.0,0.0,0.0,0.0,0.0,0.0,0.0,0.0,0.0,0.0,0.0,0.0,0.0,0.0,0.0,0.0,0.0,0.0,0.0,0.0,0.0,0.0,0.0,0.0,0.0,0.0,0.0,0.0,0.0,0.0,0.0,0.0,0.0,0.0,0.0,0.0,0.0,0.0,0.0,0.0,0.0,0.0,0.0,0.0,0.0,0.0,0.0,0.0,0.0,0.0,0.1423,0.1391,0.1391,0.1438,0.0,0.0,0.0,0.0,0.0,0.0,0.0,0.0,0.0,0.0,0.0,0.0,0.0,0.0,0.0,0.0,0.0,0.0,0.0,0.0,0.0,0.0,0.0,0.0,0.0,0.0,0.0,0.0,0.0,0.0,0.0,0.0,0.0,0.0,0.0,0.0,0.0,0.0,0.0,0.0,0.0,0.0,0.0,0.0,0.0,0.0,0.0,0.0,0.0,0.0,0.0,0.0,0.0,0.0,0.0,0.0,0.0,0.0,0.0,0.0,0.0,0.0,0.0,0.0,0.0,0.0,0.0,0.0,0.0,0.0,0.0,0.0,0.0,0.0,0.0,0.0,0.0,0.0,0.0,0.0,0.0,0.0,0.0,0.0,0.0,0.0,0.0,0.0,0.0,0.0,0.0,0.0,0.0,0.0,0.0,0.0,0.0,0.0,0.0,0.0,0.0,0.0,0.0,0.0,0.0,0.0,0.0,0.0,0.0,0.0,0.113,0.1361,0.1414,0.1414,0.1467,0.148,0.0,0.0,0.0,0.0,0.0,0.0,0.0,0.0,0.0,0.0,0.0,0.0,0.0,0.0,0.0,0.0,0.0,0.0,0.0,0.0,0.0,0.0,0.0,0.0,0.0,0.0,0.0,0.0,0.0,0.0,0.0,0.0,0.0,0.0,0.0,0.0,0.0,0.0,0.0,0.0,0.0,0.0,0.0,0.0,0.0,0.0,0.0,0.0,0.0,0.0,0.0,0.0,0.0,0.0,0.0,0.0,0.0,0.0,0.0,0.0,0.0,0.0,0.0,0.0,0.0,0.0,0.0,0.0,0.0,0.0,0.0,0.0,0.0,0.0,0.0,0.0,0.0,0.0,0.0,0.0,0.0,0.0,0.0,0.0,0.0,0.0,0.0,0.0,0.0,0.0,0.0,0.0,0.0,0.0,0.0,0.0,0.0,0.0,0.0,0.0,0.0,0.0,0.0,0.0,0.0,0.0,0.0,0.0,0.0738,0.1016,0.126,0.1473,0.1475,0.1509,0.0,0.0,0.0,0.0,0.0,0.0,0.0,0.0,0.0,0.0,0.0,0.0,0.0,0.0,0.0,0.0,0.0,0.0,0.0,0.0,0.0,0.0,0.0,0.0,0.0,0.0,0.0,0.0,0.0,0.0,0.0,0.0,0.0,0.0,0.0,0.0,0.0,0.0,0.0,0.0,0.0,0.0,0.0,0.0,0.0,0.0,0.0,0.0,0.0,0.0,0.0,0.0,0.0,0.0,0.0,0.0,0.0,0.0,0.0,0.0,0.0,0.0,0.0,0.0,0.0,0.0,0.0,0.0,0.0,0.0,0.0,0.0,0.0,0.0,0.0,0.0,0.0,0.0,0.0,0.0,0.0,0.0,0.0,0.0,0.0,0.0,0.0,0.0,0.0,0.0,0.0,0.0,0.0,0.0,0.0,0.0,0.0,0.0,0.0,0.0,0.0,0.0,0.0,0.0,0.0,0.0,0.0,0.0,0.0,0.0518,0.1085,0.1429,0.1553,0.1536,0.153,0.0,0.0,0.0,0.0,0.0,0.0,0.0,0.0,0.0,0.0,0.0,0.0,0.0,0.0,0.0,0.0,0.0,0.0,0.0,0.0,0.0,0.0,0.0,0.0,0.0,0.0,0.0,0.0,0.0,0.0,0.0,0.0,0.0,0.0,0.0,0.0,0.0,0.0,0.0,0.0,0.0,0.0,0.0,0.0,0.0,0.0,0.0,0.0,0.0,0.0,0.0,0.0,0.0,0.0,0.0,0.0,0.0,0.0,0.0,0.0,0.0,0.0,0.0,0.0,0.0,0.0,0.0,0.0,0.0,0.0,0.0,0.0,0.0,0.0,0.0,0.0,0.0,0.0,0.0,0.0,0.0,0.0,0.0,0.0,0.0,0.0,0.0,0.0,0.0,0.0,0.0,0.0,0.0,0.0,0.0,0.0,0.0,0.0,0.0,0.0,0.0,0.0,0.0,0.0,0.0,0.0,0.0,0.0,0.0,0.0539,0.1233,0.1594,0.1662,0.1585,0.1575,0.0,0.0,0.0,0.0,0.0,0.0,0.0,0.0,0.0,0.0,0.0,0.0,0.0,0.0,0.0,0.0,0.0,0.0,0.0,0.0,0.0,0.0,0.0,0.0,0.0,0.0,0.0,0.0,0.0,0.0,0.0,0.0,0.0,0.0,0.0,0.0,0.0,0.0,0.0,0.0,0.0,0.0,0.0,0.0,0.0,0.0,0.0,0.0,0.0,0.0,0.0,0.0,0.0,0.0,0.0,0.0,0.0,0.0,0.0,0.0,0.0,0.0,0.0,0.0,0.0,0.0,0.0,0.0,0.0,0.0,0.0,0.0,0.0,0.0,0.0,0.0,0.0,0.0,0.0,0.0,0.0,0.0,0.0,0.0,0.0,0.0,0.0,0.0,0.0,0.0,0.0,0.0,0.0,0.0,0.0,0.0,0.0,0.0,0.0,0.0,0.0,0.0,0.0,0.0,0.0,0.0,0.0,0.0,-0.0443,0.0829,0.1425,0.1701,0.1704,0.1677,0.1648,0.0,0.0,0.0,0.0,0.0,0.0,0.0,0.0,0.0,0.0,0.0,0.0,0.0,0.0,0.0,0.0,0.0,0.0,0.0,0.0,0.0,0.0,0.0,0.0,0.0,0.0,0.0,0.0,0.0,0.0,0.0,0.0,0.0,0.0,0.0,0.0,0.0,0.0,0.0,0.0,0.0,0.0,0.0,0.0,0.0,0.0,0.0,0.0,0.0,0.0,0.0,0.0,0.0,0.0,0.0,0.0,0.0,0.0,0.0,0.0,0.0,0.0,0.0,0.0,0.0,0.0,0.0,0.0,0.0,0.0,0.0,0.0,0.0,0.0,0.0,0.0,0.0,0.0,0.0,0.0,0.0,0.0,0.0,0.0,0.0,0.0,0.0,0.0,0.0,0.0,0.0,0.0,0.0,0.0,0.0,0.0,0.0,0.0,0.0,0.0,0.0,0.0,0.0,0.0,0.0,0.0,0.0,0.0,0.0,0.0861,0.1477,0.1767,0.1765,0.1792,0.1762,0.0,0.0,0.0,0.0,0.0,0.0,0.0,0.0,0.0,0.0,0.0,0.0,0.0,0.0,0.0,0.0,0.0,0.0,0.0,0.0,0.0,0.0,0.0,0.0,0.0,0.0,0.0,0.0,0.0,0.0,0.0,0.0,0.0,0.0,0.0,0.0,0.0,0.0,0.0,0.0,0.0,0.0,0.0,0.0,0.0,0.0,0.0,0.0,0.0,0.0,0.0,0.0,0.0,0.0,0.0,0.0,0.0,0.0,0.0,0.0,0.0,0.0,0.0,0.0,0.0,0.0,0.0,0.0,0.0,0.0,0.0,0.0,0.0,0.0,0.0,0.0,0.0,0.0,0.0,0.0,0.0,0.0,0.0,0.0,0.0,0.0,0.0,0.0,0.0,0.0,0.0,0.0,0.0,0.0,0.0,0.0,0.0,0.0,0.0,0.0,0.0,0.0,0.0,0.0,0.0,0.0,0.0,0.0,0.0,0.0984,0.1576,0.1879,0.1879,0.1839,0.1798,0.1756,0.0,0.0,0.0,0.0,0.0,0.0,0.0,0.0,0.0,0.0,0.0,0.0,0.0,0.0,0.0,0.0,0.0,0.0,0.0,0.0,0.0,0.0,0.0,0.0,0.0,0.0,0.0,0.0,0.0,0.0,0.0,0.0,0.0,0.0,0.0,0.0,0.0,0.0,0.0,0.0,0.0,0.0,0.0,0.0,0.0,0.0,0.0,0.0,0.0,0.0,0.0,0.0,0.0,0.0,0.0,0.0,0.0,0.0,0.0,0.0,0.0,0.0,0.0,0.0,0.0,0.0,0.0,0.0,0.0,0.0,0.0,0.0,0.0,0.0,0.0,0.0,0.0,0.0,0.0,0.0,0.0,0.0,0.0,0.0,0.0,0.0,0.0,0.0,0.0,0.0,0.0,0.0,0.0,0.0,0.0,0.0,0.0,0.0,0.0,0.0,0.0,0.0,0.0,0.0,0.0,0.0,0.0,0.0,0.1079,0.1715,0.2031,0.2024,0.1966,0.1848,0.0,0.0,0.0,0.0,0.0,0.0,0.0,0.0,0.0,0.0,0.0,0.0,0.0,0.0,0.0,0.0,0.0,0.0,0.0,0.0,0.0,0.0,0.0,0.0,0.0,0.0,0.0,0.0,0.0,0.0,0.0,0.0,0.0,0.0,0.0,0.0,0.0,0.0,0.0,0.0,0.0,0.0,0.0,0.0,0.0,0.0,0.0,0.0,0.0,0.0,0.0,0.0,0.0,0.0,0.0,0.0,0.0,0.0,0.0,0.0,0.0,0.0,0.0,0.0,0.0,0.0,0.0,0.0,0.0,0.0,0.0,0.0,0.0,0.0,0.0,0.0,0.0,0.0,0.0,0.0,0.0,0.0,0.0,0.0,0.0,0.0,0.0,0.0,0.0,0.0,0.0,0.0,0.0,0.0,0.0,0.0,0.0,0.0,0.0,0.0,0.0,0.0,0.0,0.0,0.0,0.0,0.0,0.0,0.0,0.1142,0.1853,0.2188,0.2186,0.2039,0.1967,0.0,0.0,0.0,0.0,0.0,0.0,0.0,0.0,0.0,0.0,0.0,0.0,0.0,0.0,0.0,0.0,0.0,0.0,0.0,0.0,0.0,0.0,0.0,0.0,0.0,0.0,0.0,0.0,0.0,0.0,0.0,0.0,0.0,0.0,0.0,0.0,0.0,0.0,0.0,0.0,0.0,0.0,0.0,0.0,0.0,0.0,0.0,0.0,0.0,0.0,0.0,0.0,0.0,0.0,0.0,0.0,0.0,0.0,0.0,0.0,0.0,0.0,0.0,0.0,0.0,0.0,0.0,0.0,0.0,0.0,0.0,0.0,0.0,0.0,0.0,0.0,0.0,0.0,0.0,0.0,0.0,0.0,0.0,0.0,0.0,0.0,0.0,0.0,0.0,0.0,0.0,0.0,0.0,0.0,0.0,0.0,0.0,0.0,0.0,0.0,0.0,0.0,0.0,0.0,0.0,0.0,0.0,0.0,0.0134,0.0908,0.1875,0.2315,0.232,0.2148,0.2061,0.0,0.0,0.0,0.0,0.0,0.0,0.0,0.0,0.0,0.0,0.0,0.0,0.0,0.0,0.0,0.0,0.0,0.0,0.0,0.0,0.0,0.0,0.0,0.0,0.0,0.0,0.0,0.0,0.0,0.0,0.0,0.0,0.0,0.0,0.0,0.0,0.0,0.0,0.0,0.0,0.0,0.0,0.0,0.0,0.0,0.0,0.0,0.0,0.0,0.0,0.0,0.0,0.0,0.0,0.0,0.0,0.0,0.0,0.0,0.0,0.0,0.0,0.0,0.0,0.0,0.0,0.0,0.0,0.0,0.0,0.0,0.0,0.0,0.0,0.0,0.0,0.0,0.0,0.0,0.0,0.0,0.0,0.0,0.0,0.0,0.0,0.0,0.0,0.0,0.0,0.0,0.0,0.0,0.0,0.0,0.0,0.0,0.0,0.0,0.0,0.0,0.0,0.0,0.0,0.0,0.0,0.0,0.0,-0.0207,0.0431,0.1561,0.2184,0.2382,0.2267,0.2162,0.0,0.0,0.0,0.0,0.0,0.0,0.0,0.0,0.0,0.0,0.0,0.0,0.0,0.0,0.0,0.0,0.0,0.0,0.0,0.0,0.0,0.0,0.0,0.0,0.0,0.0,0.0,0.0,0.0,0.0,0.0,0.0,0.0,0.0,0.0,0.0,0.0,0.0,0.0,0.0,0.0,0.0,0.0,0.0,0.0,0.0,0.0,0.0,0.0,0.0,0.0,0.0,0.0,0.0,0.0,0.0,0.0,0.0,0.0,0.0,0.0,0.0,0.0,0.0,0.0,0.0,0.0,0.0,0.0,0.0,0.0,0.0,0.0,0.0,0.0,0.0,0.0,0.0,0.0,0.0,0.0,0.0,0.0,0.0,0.0,0.0,0.0,0.0,0.0,0.0,0.0,0.0,0.0,0.0,0.0,0.0,0.0,0.0,0.0,0.0,0.0,0.0,0.0,0.0,0.0,0.0,0.0,0.0,-0.1981,-0.0441,0.015,0.1058,0.2338,0.2298,0.2192,0.0,0.0,0.0,0.0,0.0,0.0,0.0,0.0,0.0,0.0,0.0,0.0,0.0,0.0,0.0,0.0,0.0,0.0,0.0,0.0,0.0,0.0,0.0,0.0,0.0,0.0,0.0,0.0,0.0,0.0,0.0,0.0,0.0,0.0,0.0,0.0,0.0,0.0,0.0,0.0,0.0,0.0,0.0,0.0,0.0,0.0,0.0,0.0,-0.2897,0.0,0.0,0.0,0.0,0.0,0.0,0.0,0.0,0.0,0.0,0.0,0.0,0.0,0.0,0.0,0.0,0.0,0.0,0.0,0.0,0.0,0.0,0.0,0.0,0.0,0.0,0.0,0.0,0.0,0.0,0.0,0.0,0.0,0.0,0.0,0.0,0.0,0.0,0.0,0.0,0.0,0.0,0.0,0.0,0.0,0.0,0.0,0.0,0.0,0.0,0.0,0.0,0.0,0.0,0.0,0.0,0.0,0.0,0.0,-0.3205,-0.2204,-0.0767,0.0385,0.123,0.1931,0.2274,0.0,0.0,0.0,0.0,0.0,0.0,0.0,0.0,0.0,0.0,0.0,0.0,0.0,0.0,0.0,0.0,0.0,0.0,0.0,0.0,0.0,0.0,0.0,0.0,0.0,0.0,0.0,0.0,0.0,0.0,0.0,0.0,0.0,0.0,0.0,0.0,0.0,0.0,0.0,0.0,0.0,0.0,0.0,0.0,0.0,0.0,0.0,0.0,0.0,0.0,0.0,0.0,0.0,0.0,0.0,0.0,0.0,0.0,0.0,0.0,0.0,0.0,0.0,0.0,0.0,0.0,0.0,0.0,0.0,0.0,0.0,0.0,0.0,0.0,0.0,0.0,0.0,0.0,0.0,0.0,0.0,0.0,0.0,0.0,0.0,0.0,0.0,0.0,0.0,0.0,0.0,0.0,0.0,0.0,0.0,0.0,0.0,0.0,0.0,0.0,0.0,0.0,0.0,0.0,0.0,0.0,0.0,-0.5027,-0.4352,-0.401,-0.197,-0.0552,0.0,0.1231,0.1995,0.2225,0.0,0.0,0.0,0.0,0.0,0.0,0.0,0.0,0.0,0.0,0.0,0.0,0.0,0.0,0.0,0.0,0.0,0.0,0.0,0.0,0.0,0.0,0.0,0.0,0.0,0.0,0.0,0.0,0.0,0.0,0.0,0.0,0.0,0.0,0.0,0.0,0.0,0.0,-0.4184,-0.484,0.0,0.0,0.0,0.0,0.0,0.0,0.0,0.0,-0.5471,0.0,0.0,0.0,0.0,0.0,0.0,0.0,0.0,0.0,0.0,0.0,0.0,0.0,0.0,0.0,0.0,0.0,0.0,0.0,0.0,0.0,0.0,0.0,0.0,0.0,0.0,0.0,0.0,0.0,0.0,0.0,0.0,0.0,0.0,0.0,0.0,0.0,0.0,0.0,0.0,0.0,0.0,0.0,0.0,0.0,0.0,0.0,0.0,0.0,0.0,0.0,0.0,0.0,0.0,0.0,0.0,-0.72,-0.6592,-0.5848,-0.5078,-0.4683,-0.3068,-0.0242,-0.0235,0.0527,0.2168,0.0,0.0,0.0,0.0,0.0,0.0,0.0,0.0,0.0,0.0,0.0,0.0,0.0,0.0,0.0,0.0,0.0,0.0,0.0,0.0,0.0,0.0,0.0,0.0,0.0,0.0,0.0,0.0,0.0,0.0,0.0,0.0,0.0,0.0,0.0,0.0,0.0,0.0,0.0,-0.6436,-0.6598,0.0,0.0,0.0,0.0,0.0,0.0,0.0,0.0,-0.6061,0.0,0.0,0.0,0.0,0.0,0.0,0.0,0.0,0.0,0.0,0.0,0.0,0.0,0.0,0.0,0.0,0.0,0.0,0.0,0.0,0.0,0.0,0.0,0.0,0.0,0.0,0.0,0.0,0.0,0.0,0.0,0.0,0.0,0.0,0.0,0.0,0.0,0.0,0.0,0.0,0.0,0.0,0.0,0.0,0.0,0.0,0.0,0.0,0.0,0.0,0.0,0.0,0.0,0.0,0.0,-0.7774,-0.6941,-0.6092,-0.5234,-0.3665,-0.2362,-0.1392,-0.008,0.0618,0.0,0.0,0.0,0.0,0.0,0.0,0.0,0.0,0.0,0.0,0.0,0.0,0.0,0.0,0.0,0.0,0.0,0.0,0.0,0.0,0.0,0.0,0.0,0.0,0.0,0.0,0.0,0.0,0.0,0.0,0.0,0.0,0.0,0.0,0.0,0.0,0.0,0.0,0.0,0.0,-0.7467,-0.764,-0.7982,0.0,0.0,0.0,0.0,0.0,0.0,-0.7844,-0.7405,0.0,0.0,0.0,0.0,0.0,0.0,0.0,0.0,0.0,0.0,0.0,0.0,0.0,0.0,0.0,0.0,0.0,0.0,0.0,0.0,0.0,0.0,0.0,0.0,0.0,0.0,0.0,0.0,0.0,0.0,0.0,0.0,0.0,0.0,0.0,0.0,0.0,0.0,0.0,0.0,0.0,0.0,0.0,0.0,0.0,0.0,0.0,0.0,0.0,0.0,0.0,0.0,0.0,0.0,0.0,-0.8295,-0.6978,-0.601,-0.5396,-0.2727,-0.157,-0.2161,0.0,0.071,0.0,0.0,0.0,0.0,0.0,0.0,0.0,0.0,0.0,0.0,0.0,0.0,0.0,0.0,0.0,0.0,0.0,0.0,0.0,0.0,0.0,0.0,0.0,0.0,0.0,0.0,0.0,0.0,0.0,0.0,0.0,0.0,0.0,0.0,0.0,0.0,0.0,0.0,0.0,0.0,0.0,-0.8404,-0.8807,-0.8796,0.0,0.0,0.0,0.0,-0.9209,-0.885,0.0,0.0,0.0,0.0,0.0,0.0,0.0,0.0,0.0,0.0,0.0,0.0,0.0,0.0,0.0,0.0,0.0,0.0,0.0,0.0,0.0,0.0,0.0,0.0,0.0,0.0,0.0,0.0,0.0,0.0,0.0,0.0,0.0,0.0,0.0,0.0,0.0,0.0,0.0,0.0,0.0,0.0,0.0,0.0,0.0,0.0,0.0,0.0,0.0,0.0,0.0,0.0,0.0,0.0,0.0,0.0,-0.8954,-0.7305,-0.6404,-0.646,-0.4631,-0.2746,-0.1021,-0.1321,-0.0559,0.0,0.0,0.0,0.0,0.0,0.0,0.0,0.0,0.0,0.0,0.0,0.0,0.0,0.0,0.0,0.0,0.0,0.0,0.0,0.0,0.0,0.0,0.0,0.0,0.0,0.0,0.0,0.0,0.0,0.0,0.0,0.0,0.0,0.0,0.0,0.0,0.0,0.0,0.0,0.0,0.0,-0.8698,-0.9177,-0.9231,-0.922,0.0,0.0,-0.9449,-0.9584,-0.9503,0.0,0.0,0.0,0.0,0.0,0.0,0.0,0.0,0.0,0.0,0.0,0.0,0.0,0.0,0.0,0.0,0.0,0.0,0.0,0.0,0.0,0.0,0.0,0.0,0.0,0.0,0.0,0.0,0.0,0.0,0.0,0.0,0.0,0.0,0.0,0.0,0.0,0.0,0.0,0.0,0.0,0.0,0.0,0.0,0.0,0.0,0.0,0.0,0.0,0.0,0.0,0.0,0.0,0.0,0.0,-0.9118,-0.9243,-0.8058,-0.665,-0.5335,-0.37,-0.2325,-0.1121,-0.0673,-0.0407,0.0,0.0,0.0,0.0,0.0,0.0,0.0,0.0,0.0,0.0,0.0,0.0,0.0,0.0,0.0,0.0,0.0,0.0,0.0,0.0,0.0,0.0,0.0,0.0,0.0,0.0,0.0,0.0,0.0,0.0,0.0,0.0,0.0,0.0,0.0,0.0,0.0,0.0,0.0,0.0,0.0,0.0,-0.9362,-0.9519,0.0,0.0,0.0,-0.9628,-0.9748,0.0,0.0,0.0,0.0,0.0,0.0,0.0,0.0,0.0,0.0,0.0,0.0,0.0,0.0,0.0,0.0,0.0,0.0,0.0,0.0,0.0,0.0,0.0,0.0,0.0,0.0,0.0,0.0,0.0,0.0,0.0,0.0,0.0,0.0,0.0,0.0,0.0,0.0,0.0,0.0,0.0,0.0,0.0,0.0,0.0,0.0,0.0,0.0,0.0,0.0,0.0,0.0,0.0,0.0,0.0,0.0,0.0,-0.9641,-0.8705,-0.7188,-0.5304,-0.3293,-0.1993,-0.1481,-0.0171,0.0,0.0,0.0,0.0,0.0,0.0,0.0,0.0,0.0,0.0,0.0,0.0,0.0,0.0,0.0,0.0,0.0,0.0,0.0,0.0,0.0,0.0,0.0,0.0,0.0,0.0,0.0,-0.2845,0.0,0.0,0.0,0.0,0.0,0.0,0.0,0.0,0.0,0.0,0.0,0.0,0.0,0.0,-0.9329,-0.9628,-0.984,-0.9981,0.0,0.0,-0.9878,-0.996,-0.9949,-0.9851,0.0,0.0,0.0,0.0,0.0,0.0,0.0,0.0,0.0,0.0,0.0,0.0,0.0,0.0,0.0,0.0,0.0,0.0,0.0,0.0,0.0,0.0,0.0,0.0,0.0,0.0,0.0,0.0,0.0,0.0,0.0,0.0,0.0,0.0,0.0,0.0,0.0,0.0,0.0,0.0,0.0,0.0,0.0,0.0,0.0,0.0,0.0,0.0,0.0,0.0,0.0,0.0,0.0,0.0,-0.9889,-1.0281,-0.9054,-0.8336,-0.8006,-0.4708,-0.2578,-0.2114,-0.0698,0.017,0.0,0.0,0.0,0.0,0.0,0.0,0.0,0.0,0.0,0.0,0.0,0.0,0.0,0.0,0.0,0.0,0.0,0.0,0.0,0.0,0.0,0.0,0.0,0.0,0.0,0.0,0.0,0.0,0.0,0.0,0.0,0.0,0.0,0.0,0.0,0.0,0.0,0.0,0.0,0.0,0.0,-0.9633,-1.009,-1.0269,-1.0384,0.0,-1.0411,-1.034,-1.0346,-1.0253,-1.0095,-0.9856,0.0,0.0,0.0,0.0,0.0,0.0,0.0,0.0,0.0,0.0,0.0,0.0,0.0,0.0,0.0,0.0,0.0,0.0,0.0,0.0,0.0,0.0,0.0,0.0,0.0,0.0,0.0,0.0,0.0,0.0,0.0,0.0,0.0,0.0,0.0,0.0,0.0,0.0,0.0,0.0,0.0,0.0,0.0,0.0,0.0,0.0,0.0,0.0,0.0,0.0,0.0,0.0,0.0,-1.0085,-1.0487,-1.0253,-0.9568,-0.853,-0.7007,-0.5145,-0.2671,-0.2117,-0.1121,0.0,0.0,0.0,0.0,0.0,0.0,0.0,0.0,0.0,0.0,0.0,0.0,0.0,0.0,0.0,0.0,0.0,0.0,0.0,0.0,0.0,0.0,0.0,0.0,0.0,0.0,0.0,0.0,-0.6836,-0.7612,-0.8102,0.0,0.0,0.0,0.0,0.0,0.0,0.0,0.0,0.0,0.0,-0.9965,-1.0362,-1.046,0.0,0.0,-1.046,-1.0411,-1.0481,-1.0394,-1.0259,-1.009,-0.9824,0.0,0.0,0.0,0.0,0.0,0.0,0.0,0.0,0.0,0.0,0.0,0.0,0.0,0.0,0.0,0.0,0.0,0.0,0.0,0.0,0.0,0.0,0.0,0.0,0.0,0.0,0.0,0.0,0.0,0.0,0.0,0.0,0.0,0.0,0.0,0.0,0.0,0.0,0.0,0.0,0.0,0.0,0.0,0.0,0.0,0.0,0.0,0.0,0.0,0.0,0.0,0.0,-1.0324,-1.0715,-1.1074,-1.0719,-0.9523,-0.8808,-0.7003,-0.3832,-0.3178,-0.1907,0.0,0.0,0.0,0.0,0.0,0.0,0.0,0.0,0.0,0.0,0.0,0.0,0.0,0.0,0.0,0.0,0.0,0.0,0.0,0.0,0.0,0.0,0.0,0.0,0.0,0.0,0.0,0.0,-0.7842,-0.8606,-0.883,0.0,0.0,0.0,0.0,0.0,0.0,0.0,0.0,0.0,0.0,-1.0286,-1.0568,-1.0612,-1.0623,-1.0661,-1.0568,-1.052,-1.0601,-1.0514,-1.0405,-1.0324,0.0,0.0,0.0,0.0,0.0,0.0,0.0,0.0,0.0,0.0,0.0,0.0,0.0,0.0,0.0,0.0,0.0,0.0,0.0,0.0,0.0,0.0,0.0,0.0,0.0,0.0,0.0,-1.3687,0.0,0.0,-1.6007,0.0,0.0,0.0,0.0,0.0,0.0,0.0,0.0,0.0,0.0,0.0,0.0,0.0,0.0,0.0,0.0,0.0,0.0,0.0,0.0,0.0,0.0,-1.0612,-1.1085,-1.1427,-1.1527,-1.1443,-0.9621,-0.7655,-0.5643,-0.3755,-0.1893,0.0,0.0,0.0,0.0,0.0,0.0,0.0,0.0,0.0,0.0,0.0,0.0,0.0,0.0,0.0,0.0,0.0,0.0,0.0,0.0,0.0,0.0,0.0,0.0,0.0,0.0,0.0,-0.7339,-0.852,-0.9258,0.0,0.0,0.0,0.0,0.0,0.0,0.0,0.0,0.0,0.0,-1.0242,-1.0585,-1.0715,-1.0732,-1.0775,-1.0889,-1.0808,-1.0648,-1.0654,-1.0634,-1.0552,0.0,0.0,0.0,0.0,0.0,0.0,0.0,0.0,0.0,0.0,0.0,0.0,0.0,0.0,0.0,0.0,0.0,0.0,0.0,0.0,0.0,0.0,0.0,0.0,0.0,0.0,0.0,-1.2808,-1.6215,0.0,0.0,0.0,0.0,0.0,0.0,0.0,0.0,0.0,0.0,0.0,-1.1574,-1.0797,0.0,0.0,0.0,0.0,0.0,0.0,0.0,0.0,0.0,0.0,0.0,0.0,-1.078,-1.1101,-1.1455,-1.1634,-1.1544,-1.0883,-0.9019,-0.5784,-0.5022,-0.3214,0.0,0.0,0.0,0.0,0.0,0.0,0.0,0.0,0.0,0.0,0.0,0.0,0.0,0.0,0.0,0.0,0.0,0.0,0.0,0.0,0.0,0.0,0.0,0.0,0.0,0.0,-0.7665,0.0,0.0,0.0,0.0,0.0,0.0,0.0,0.0,0.0,0.0,0.0,-1.0079,-1.0394,-1.0509,-1.0628,-1.0829,-1.0862,-1.0873,0.0,0.0,0.0,0.0,0.0,0.0,0.0,0.0,0.0,0.0,0.0,0.0,0.0,0.0,-0.912,-0.8309,-0.8141,-0.8123,-0.7943,0.0,0.0,0.0,0.0,0.0,0.0,0.0,0.0,0.0,0.0,0.0,0.0,0.0,0.0,-1.4114,0.0,-1.7581,0.0,0.0,0.0,0.0,0.0,0.0,0.0,0.0,-1.3828,-1.2609,-1.1571,-1.1005,-1.0564,0.0,-1.0248,-0.9965,0.0,0.0,0.0,0.0,0.0,0.0,0.0,0.0,-1.0944,-1.1221,-1.1498,-1.1634,-1.1634,-1.152,-0.9628,-0.5756,-0.4397,-0.2527,0.0,0.0,0.0,0.0,0.0,0.0,0.0,0.0,0.0,0.0,0.0,0.0,0.0,0.0,0.0,0.0,0.0,0.0,0.0,0.0,0.0,0.0,0.0,0.0,0.0,0.0,-0.8735,0.0,0.0,0.0,0.0,0.0,0.0,0.0,0.0,0.0,-0.9682,-1.009,-1.0476,-1.0621,-1.0775,-1.0846,-1.0965,0.0,0.0,0.0,0.0,0.0,0.0,0.0,-1.1041,-1.1041,-1.0976,-1.0873,-1.071,-1.052,-1.0362,-1.0286,0.0,0.0,-0.9161,-0.9021,-0.9085,-0.8891,-0.8857,-0.8669,-0.8324,-0.8379,-0.821,0.0,0.0,0.0,0.0,0.0,0.0,0.0,0.0,-1.2532,-1.5072,0.0,-1.6932,0.0,0.0,0.0,0.0,0.0,-1.7423,0.0,0.0,-1.1818,-1.1066,-1.1734,-1.1001,-1.0585,-1.0585,-1.059,-1.0585,-1.0645,-1.0351,0.0,0.0,0.0,0.0,0.0,0.0,-1.1101,-1.1438,-1.1574,-1.1634,-1.1634,-1.152,-0.9568,-0.5651,-0.1999,0.0,0.0,0.0,0.0,0.0,0.0,0.0,0.0,0.0,0.0,0.0,0.0,0.0,0.0,0.0,0.0,0.0,0.0,0.0,0.0,0.0,0.0,0.0,0.0,0.0,0.0,-0.8674,0.0,0.0,0.0,0.0,0.0,0.0,0.0,0.0,0.0,0.0,-1.0074,-1.0449,-1.0748,-1.0759,0.0,0.0,0.0,0.0,-1.1118,-1.1123,-1.1123,-1.1134,-1.1134,-1.1221,-1.1291,-1.1291,0.0,0.0,-1.0982,-1.0846,-1.077,-1.0681,-1.0944,-1.0758,-0.9879,-0.9788,-0.9733,-0.9237,-0.9211,-0.923,-0.9082,-0.9293,-0.9259,-0.9927,0.0,0.0,0.0,0.0,-0.9204,-0.9703,-1.0668,-1.0591,-1.2407,-1.5401,-1.4766,0.0,0.0,0.0,0.0,0.0,0.0,-1.5136,-1.3811,-1.2777,-1.2142,-1.1541,-1.1373,-1.1286,-1.128,-1.128,-1.1286,-1.1194,-1.1215,-1.0905,-1.0541,0.0,0.0,0.0,0.0,-1.1264,-1.1449,-1.1574,-1.1634,-1.1634,-1.152,-0.96,-0.5704,-0.1932,0.0,0.0,0.0,0.0,0.0,0.0,0.0,0.0,0.0,0.0,0.0,0.0,0.0,0.0,0.0,0.0,0.0,0.0,0.0,0.0,0.0,0.0,0.0,0.0,0.0,-0.9138,-1.0029,-1.041,0.0,0.0,0.0,0.0,0.0,0.0,0.0,0.0,0.0,-1.053,-1.0802,-1.1031,0.0,0.0,-1.1166,-1.1215,-1.1297,-1.1384,-1.1471,-1.1558,0.0,-1.1618,-1.1639,-1.1661,-1.1661,-1.1661,-1.1607,-1.1455,-1.14,-1.1351,-1.1264,-1.1308,-1.1291,-1.1058,-1.0875,-1.0833,-1.063,-1.0588,-1.0493,-1.0194,-1.0169,-1.0148,-1.0481,-1.0074,-0.9862,-0.9824,-0.99,-0.9829,-1.0008,-1.034,-1.034,-1.1818,-1.4159,-1.3164,-1.4521,-1.75,-1.75,0.0,0.0,0.0,-1.4287,-1.2631,-1.2521,-1.2022,-1.1467,-1.1433,-1.1543,-1.1543,-1.1504,-1.1531,-1.1525,-1.1574,-1.1455,-1.1166,0.0,0.0,-1.0998,-1.1177,-1.1335,-1.1455,-1.1525,-1.1204,-1.0386,-0.8846,-0.6941,-0.4639,-0.1609,0.0,0.0,0.0,0.0,0.0,0.0,0.0,0.0,0.0,0.0,0.0,0.0,0.0,0.0,0.0,0.0,0.0,0.0,-0.4794,-0.5263,0.0,0.0,0.0,-0.8411,-0.9298,-1.0393,-1.072,0.0,0.0,0.0,0.0,0.0,0.0,0.0,-1.0476,-1.0655,-1.0835,-1.1003,-1.1194,-1.1319,-1.134,-1.1368,-1.1427,-1.1542,0.0,-1.171,-1.183,-1.1911,-1.196,-1.196,-1.196,-1.1944,-1.1889,-1.1928,-1.1895,-1.1737,-1.1743,-1.1748,-1.1694,-1.1705,-1.1737,-1.1737,-1.1677,-1.1558,-1.1384,-1.133,-1.1252,-1.1051,-1.101,-1.0988,-1.0786,-1.0753,-1.0427,-1.04,-1.065,-1.0568,-1.0759,-1.1069,-1.1069,-1.2324,-1.4319,-1.2184,-1.3733,-1.7783,-1.7791,0.0,-1.4534,-1.4534,-1.3268,-1.1134,-1.1243,-1.1297,-1.1319,-1.1433,-1.1482,-1.1487,-1.1596,-1.1656,-1.1672,-1.1775,-1.183,-1.1824,-1.1493,-1.127,-1.1156,-1.1237,-1.134,-1.1543,-1.1465,-1.058,-0.8607,-0.4888,-0.2948,-0.2913,-0.1003,0.0,0.0,0.0,0.0,0.0,0.0,0.0,0.0,0.0,0.0,0.0,0.0,0.0,0.0,0.0,0.0,0.0,0.0,0.0,0.0,0.0,0.0,-0.9063,-1.0133,0.0,-1.127,-1.1074,0.0,0.0,0.0,-1.0753,-1.0753,-1.0862,-1.0938,-1.0944,0.0,0.0,-1.1543,-1.1596,-1.1634,-1.1525,-1.1694,-1.1868,-1.1976,-1.1971,-1.2031,-1.2112,-1.2145,-1.2156,-1.2145,-1.215,-1.2118,-1.2025,-1.2096,-1.208,-1.1906,-1.1928,-1.1993,-1.2009,-1.2107,-1.2183,-1.2194,-1.2178,-1.2063,-1.1645,-1.1623,-1.1677,-1.1598,-1.1673,-1.1678,-1.1232,-1.1139,-1.1052,-1.0895,-1.0693,-1.0693,-1.0742,-1.0824,-1.0824,-1.1087,-1.162,-1.1215,-1.1664,-1.2811,-1.2811,-1.2539,-1.1997,-1.1997,-1.1743,-1.1368,-1.14,-1.1509,-1.1688,-1.1721,-1.1732,-1.1737,-1.1764,-1.1819,-1.19,-1.1933,-1.1949,-1.1944,-1.1862,-1.1716,-1.1514,-1.1444,-1.1516,-1.1543,-1.1547,-1.0635,-0.8791,-0.6398,-0.4395,-0.2946,-0.1014,0.0,0.0,0.0,0.0,0.0,0.0,0.0,0.0,0.0,0.0,0.0,0.0,0.0,0.0,0.0,0.0,0.0,0.0,-0.6744,-0.7433,0.0,-0.9559,0.0,-1.0817,-1.1285,-1.1281,-1.1221,0.0,0.0,-1.0965,-1.0878,-1.0878,-1.0982,-1.109,-1.1177,-1.1378,-1.1563,-1.1716,-1.1917,-1.2031,-1.2004,-1.1971,-1.196,-1.1987,-1.1987,-1.1998,-1.2036,-1.2053,-1.2063,-1.2167,-1.2172,-1.2172,-1.2134,-1.2156,-1.215,-1.2096,-1.2107,-1.2156,-1.2243,-1.2382,-1.2346,-1.2433,-1.2449,-1.2417,-1.2292,-1.2156,-1.2047,-1.2047,-1.2069,-1.2096,-1.1417,-1.1351,-1.1357,-1.1237,-1.1052,-1.0944,-1.09,-1.09,-1.09,-1.0927,-1.0982,-1.1107,-1.1194,-1.1259,-1.1259,-1.1286,-1.134,-1.134,-1.1438,-1.1618,-1.1672,-1.1764,-1.1895,-1.2004,-1.2058,-1.2058,-1.2112,-1.2172,-1.2227,-1.2232,-1.2232,-1.2232,-1.2178,-1.2085,-1.1949,-1.1732,-1.1618,-1.1618,-1.0861,-0.9451,-0.7565,-0.5631,-0.3612,-0.1676,-0.0559,0.0,0.0,0.0,0.0,0.0,0.0,0.0,0.0,0.0,-0.0084,0.0,0.0,0.0,0.0,0.0,0.0,0.0,0.0,0.0,0.0,0.0,-1.0585,-1.0899,-1.1333,-1.146,-1.1286,-1.127,-1.1248,-1.1183,-1.1166,-1.1156,-1.1161,-1.127,-1.1362,-1.1427,-1.1601,-1.1764,-1.1879,-1.2058,-1.2194,-1.2243,-1.2194,-1.2129,-1.208,-1.2069,-1.2091,-1.214,-1.2237,-1.233,-1.2401,-1.2455,-1.2455,-1.2362,-1.2373,-1.2395,-1.2346,-1.2379,-1.2433,-1.2498,-1.2553,-1.2607,-1.2678,-1.2689,-1.2694,-1.2672,-1.2585,-1.246,-1.2357,-1.233,-1.2341,-1.1504,-1.1504,-1.1498,-1.1504,-1.1487,-1.1281,-1.1177,-1.115,-1.115,-1.121,-1.1324,-1.1433,-1.1487,-1.1593,-1.1498,-1.1558,-1.1656,-1.1661,-1.1726,-1.1846,-1.1944,-1.1998,-1.202,-1.2248,-1.2362,-1.2384,-1.2498,-1.2574,-1.2602,-1.2585,-1.2574,-1.2553,-1.2433,-1.2362,-1.2319,-1.202,-1.1857,-1.1841,-1.0078,-0.8143,-0.6117,-0.436,-0.2424,-0.0282,-0.0094,-0.0094,0.0,0.0,0.0,0.0,0.0,0.0,0.0,0.0,0.0,0.0,-0.084,0.0,0.0,0.0,0.0,0.0,0.0,0.0,0.0,-1.0417,-1.1351,-1.1427,-1.1542,-1.152,-1.1291,-1.127,-1.1281,-1.1297,-1.1389,-1.146,-1.1476,-1.1585,-1.1667,-1.1683,-1.1786,-1.1911,-1.2053,-1.2156,-1.2265,-1.2379,-1.2384,-1.2324,-1.2221,-1.2194,-1.2227,-1.233,-1.2515,-1.2574,-1.2613,-1.2727,-1.2738,-1.258,-1.2585,-1.2651,-1.2536,-1.2596,-1.2678,-1.27,-1.2765,-1.2846,-1.2884,-1.2884,-1.2884,-1.2868,-1.2857,-1.2781,-1.2607,-1.2547,-1.2585,-1.1748,-1.1754,-1.1748,-1.1748,-1.1743,-1.1705,-1.1569,-1.1389,-1.1389,-1.1455,-1.1569,-1.159,-1.1656,-1.1748,-1.1748,-1.1764,-1.1786,-1.1786,-1.1846,-1.1955,-1.1976,-1.2042,-1.2145,-1.2286,-1.2406,-1.2504,-1.2618,-1.2776,-1.2966,-1.2868,-1.277,-1.2672,-1.2558,-1.2401,-1.2216,0.0,0.0,0.0,-1.1119,-0.9662,-0.7376,-0.6152,-0.417,-0.1331,-0.0856,0.0,0.0,0.0,0.0,0.0,0.0,0.0,0.0,0.0,0.0,0.0,0.0,0.0,0.0,0.0,0.0,0.0,-0.8996,-1.0339,-1.0194,-1.1004,-1.1493,-1.133,-1.1417,-1.1427,-1.1286,-1.127,-1.1313,-1.1411,-1.1444,-1.1493,-1.159,-1.171,-1.1819,-1.1911,-1.2031,-1.2188,-1.2379,-1.2455,-1.2504,-1.2591,-1.2558,-1.2455,-1.2341,-1.2319,-1.2292,-1.2243,-1.2368,-1.2428,-1.2422,-1.2547,-1.2634,-1.2547,-1.2547,-1.2564,-1.2558,-1.2558,-1.2613,-1.2689,-1.2721,-1.2781,-1.2868,-1.289,-1.289,-1.289,-1.289,-1.2846,-1.2705,-1.2672,-1.2651,-1.2031,0.0,-1.2085,-1.2118,0.0,-1.2172,-1.2107,-1.1971,-1.1737,-1.1667,-1.1726,-1.1726,-1.1792,-1.19,-1.19,-1.1971,-1.2085,-1.2085,-1.215,-1.2259,-1.2259,-1.2292,-1.2357,-1.2531,-1.2651,-1.2716,-1.2884,-1.3004,-1.3064,-1.3009,-1.2917,-1.2797,-1.2738,-1.2645,-1.2526,-1.2466,-1.2319,-1.208,-1.1798,-1.0597,-0.8368,-0.688,-0.4887,-0.2303,-0.1061,0.0,0.0,0.0,0.0,0.0,0.0,0.0,0.0,0.0,0.0,-0.0367,-0.0721,-0.1873,-0.3761,-0.5525,-0.7194,-0.8795,-1.0312,-1.1109,-1.1023,-1.1296,-1.1455,-1.1455,-1.1509,-1.152,-1.146,-1.1504,-1.1542,-1.1547,-1.1596,-1.1661,-1.1726,-1.183,-1.1949,-1.2069,-1.2183,-1.2335,-1.2509,-1.2536,-1.2558,-1.2607,-1.2574,-1.2536,-1.252,-1.2428,-1.2357,-1.2417,-1.2477,-1.2553,-1.2607,-1.2661,-1.2705,-1.271,-1.271,-1.271,-1.271,-1.271,-1.2727,-1.2786,-1.2797,-1.2819,-1.2868,-1.289,-1.289,-1.289,-1.289,-1.2873,-1.2808,-1.2797,-1.2781,-1.2297,-1.2384,-1.239,-1.2444,-1.2536,-1.2536,-1.2536,-1.2509,0.0,0.0,0.0,-1.1944,-1.1998,-1.2085,-1.2085,-1.2194,-1.2384,-1.2384,-1.2439,-1.2536,-1.2536,-1.2536,-1.2547,-1.2754,-1.2868,-1.2901,-1.3129,-1.3194,-1.3102,-1.3102,-1.3026,-1.2901,-1.2868,-1.2846,-1.2819,-1.2727,-1.2531,-1.2254,-1.2137,-1.1277,-0.946,-0.7608,-0.5805,-0.3968,-0.1855,-0.0687,-0.0589,-0.0196,0.0,0.0,0.0,0.0,0.0,0.0,0.0,0.0,-0.0743,-0.2396,-0.5194,-0.6448,-0.8438,-1.1576,-1.1743,-1.1672,-1.1531,-1.1444,-1.1471,-1.1656,-1.1688,-1.1688,-1.1763,-1.1867,-1.2002,-1.2011,-1.2116,-1.22,-1.2227,-1.23,-1.2511,-1.2511,-1.2707,-1.2723,-1.2748,-1.2667,-1.2672,-1.2596,-1.2618,-1.2629,-1.2683,-1.2564,-1.2493,-1.264,-1.2667,-1.2727,-1.2819,-1.2863,-1.2884,-1.2868,-1.2873,-1.289,-1.289,-1.289,-1.289,-1.2873,-1.289,-1.2884,-1.289,-1.2912,-1.2906,-1.289,-1.2906,-1.2912,-1.2895,-1.289,-1.2879,-1.2493,-1.2509,-1.2509,-1.252,-1.2536,-1.2536,-1.2536,-1.2531,-1.246,-1.2433,-1.2433,-1.2439,-1.2444,-1.246,-1.246,-1.2477,-1.2509,-1.2509,-1.252,-1.2536,-1.2536,-1.2536,-1.2542,-1.2672,-1.2786,-1.2901,-1.3124,-1.3232,-1.3216,-1.3211,-1.3107,-1.2901,-1.2781,-1.2689,-1.2591,-1.2569,-1.2531,-1.2487,-1.2089,-1.1502,-1.0727,-0.9663,-0.8499,-0.7229,-0.4702,-0.3235,-0.2745,-0.0981,0.0,0.0,0.0,0.0,0.0,0.0,0.0,0.0,-0.1715,-0.2935,-0.36,-0.6901,-0.9861,-1.2042,-1.2156,-1.2004,-1.1792,-1.1846,-1.1862,-1.1808,-1.1884,-1.208,-1.2358,-1.2645,-1.2853,-1.3303,-1.3524,-1.3644,-1.3638,-1.3674,-1.3698,-1.3626,-1.3849,-1.3624,-1.3343,-1.3274,-1.3116,-1.2908,-1.2803,-1.2835,-1.2819,-1.2743,-1.2678,-1.2694,-1.2705,-1.271,-1.2759,-1.2825,-1.2879,-1.289,-1.289,-1.289,-1.289,-1.2901,-1.2901,-1.289,-1.2912,-1.2906,-1.2906,-1.2977,-1.2988,-1.2933,-1.2966,-1.3004,-1.2912,-1.289,-1.289,-1.2569,-1.2623,-1.2629,-1.2667,-1.2727,-1.2727,-1.2727,-1.2727,-1.2727,-1.2656,-1.2542,-1.2536,-1.2569,-1.2623,-1.2629,-1.2661,-1.2727,-1.2727,-1.2727,-1.2727,-1.2727,-1.2727,-1.2743,-1.2912,-1.3026,-1.3091,-1.3254,-1.3303,-1.3238,-1.3178,-1.3058,-1.2895,-1.283,-1.2781,-1.2732,-1.2727,-1.2727,-1.2727,-1.2401,-1.2071,-1.1932,-1.0406,-0.934,-0.8944,-0.5495,-0.351,-0.321,-0.1105,0.0,0.0,0.0,0.0,0.0,0.0,0.0,0.0,-0.1951,-0.3673,-0.4832,-0.8649,-1.1428,-1.2346,-1.2303,-1.2259,-1.2216,-1.2069,-1.2086,-1.2382,-1.2588,-1.2856,-1.3329,-1.3483,-1.3638,-1.389,-1.3765,-1.3626,-1.3588,-1.3464,-1.3309,-1.3315,-1.3372,-1.3336,-1.3195,-1.32,-1.3118,-1.2979,-1.289,-1.289,-1.289,-1.2846,-1.2803,-1.2803,-1.2808,-1.2803,-1.2803,-1.2846,-1.2884,-1.289,-1.289,-1.289,-1.2895,-1.2933,-1.2982,-1.2993,-1.3031,-1.3075,-1.3075,-1.3124,-1.3102,-1.3026,-1.3026,-1.302,-1.2928,-1.289,-1.289,-1.2667,-1.2748,-1.2743,-1.2803,-1.289,-1.289,-1.289,-1.289,-1.2884,-1.2786,-1.2629,-1.2618,-1.2667,-1.2743,-1.2748,-1.2797,-1.2879,-1.289,-1.289,-1.289,-1.289,-1.2901,-1.2944,-1.3118,-1.32,-1.3216,-1.3325,-1.3303,-1.3167,-1.3096,-1.3009,-1.2901,-1.289,-1.289,-1.289,-1.289,-1.289,-1.2879,-1.271,-1.2656,-1.2644,-1.1254,-1.0498,-1.0201,-0.6927,-0.4814,-0.4612,-0.2662,-0.1536,-0.154,-0.1547,-0.1547,-0.154,-0.1529,-0.1522,-0.1719,-0.349,-0.5629,-0.7682,-1.0667,-1.2466,-1.2433,-1.2433,-1.246,-1.2504,-1.2303,-1.2461,-1.2919,-1.3101,-1.3386,-1.3946,-1.4097,-1.4128,-1.4128,-1.3866,-1.3688,-1.3597,-1.3279,-1.3139,-1.315,-1.3223,-1.3284,-1.309,-1.309,-1.3084,-1.2984,-1.289,-1.289,-1.289,-1.289,-1.2895,-1.2917,-1.2906,-1.2884,-1.289,-1.2917,-1.2933,-1.2928,-1.296,-1.2982,-1.2999,-1.3058,-1.3102,-1.3113,-1.3167,-1.3211,-1.3232,-1.3265,-1.3227,-1.314,-1.3145,-1.3124,-1.3015,-1.2988,-1.2944,-1.2857,-1.2873,-1.2868,-1.2873,-1.2884,-1.289,-1.289,-1.289,-1.289,-1.2879,-1.2846,-1.2857,-1.2852,-1.2868,-1.2868,-1.2873,-1.289,-1.289,-1.289,-1.289,-1.289,-1.295,-1.3042,-1.308,-1.3091,-1.3107,-1.3205,-1.3151,-1.2966,-1.3026,-1.3009,-1.2901,-1.289,-1.289,-1.289,-1.289,-1.289,-1.289,-1.2868,-1.2857,-1.2873,-1.2786,-1.2744,-1.2749,-1.059,-0.9403,-0.909,-0.7175,-0.6047,-0.6193,-0.5955,-0.5952,-0.6092,-0.6092,-0.617,-0.6124,-0.7934,-1.013,-1.1958,-1.2642,-1.2776,-1.2689,-1.2667,-1.2634,-1.2564,-1.2602,-1.2786,-1.3206,-1.328,-1.3503,-1.3988,-1.4195,-1.4262,-1.4269,-1.4255,-1.434,-1.4328,-1.4346,-1.4358,-1.4364,-1.4165,-1.4183,-1.3684,-1.359,-1.349,-1.3084,-1.3006,-1.3012,-1.3012,-1.2922,-1.2955,-1.3009,-1.2971,-1.2912,-1.2917,-1.2988,-1.3042,-1.3058,-1.3134,-1.3167,-1.3178,-1.3194,-1.3221,-1.3227,-1.3249,-1.3276,-1.3292,-1.3314,-1.3357,-1.3265,-1.3276,-1.333,-1.3238,-1.3183,-1.3118,-1.289,-1.289,-1.289,-1.289,-1.289,-1.289,-1.289,-1.289,-1.289,-1.289,-1.289,-1.289,-1.289,-1.289,-1.289,-1.289,-1.289,-1.289,-1.289,-1.2895,-1.296,-1.3026,-1.3069,-1.314,-1.3167,-1.3162,-1.3151,-1.3091,-1.3009,-1.2977,-1.2939,-1.2895,-1.289,-1.289,-1.289,-1.289,-1.289,-1.289,-1.289,-1.289,-1.2912,-1.3075,-1.3167,-1.2968,-1.1152,-0.9963,-0.9792,-0.7857,-0.6613,-0.6774,-0.6791,-0.6687,-0.678,-0.678,-0.6769,-0.6948,-0.8723,-1.067,-1.2795,-1.289,-1.2835,-1.271,-1.277,-1.2792,-1.2748,-1.2786,-1.299,-1.3446,-1.3528,-1.3725,-1.4219,-1.4366,-1.4397,-1.4403,-1.4153,-1.3989,-1.3983,-1.3784,-1.3684,-1.3983,-1.3983,-1.4083,-1.4183,-1.4183,-1.4083,-1.3895,-1.3641,-1.3491,-1.3497,-1.325,-1.3113,-1.3151,-1.3124,-1.3102,-1.3096,-1.3129,-1.3167,-1.3178,-1.3205,-1.3238,-1.3254,-1.3308,-1.3346,-1.3346,-1.3395,-1.3433,-1.3466,-1.3471,-1.3493,-1.3395,-1.3287,-1.3292,-1.3249,-1.3238,-1.3183,-1.289,-1.289,-1.289,-1.289,-1.289,-1.289,-1.289,-1.289,-1.289,-1.289,-1.289,-1.289,-1.289,-1.289,-1.289,-1.289,-1.289,-1.289,-1.2906,-1.2944,-1.3031,-1.3086,-1.3124,-1.3194,-1.3221,-1.3183,-1.3113,-1.3053,-1.3015,-1.2939,-1.289,-1.289,-1.289,-1.289,-1.289,-1.289,-1.289,-1.289,-1.2917,-1.2939,-1.2971,-1.3167,-1.327,-1.3043,-1.1748,-1.0978,-1.094,-0.9388,-0.8549,-0.8626,-0.8664,-0.8668,-0.8633,-0.8629,-0.8629,-0.8724,-0.9955,-1.138,-1.2935,-1.2971,-1.2901,-1.2825,-1.2868,-1.289,-1.289,-1.289,-1.309,-1.3384,-1.349,-1.3678,-1.4183,-1.4283,-1.4177,-1.4083,-1.3684,-1.349,-1.369,-1.329,-1.339,-1.379,-1.3983,-1.4101,-1.4425,-1.4543,-1.4556,-1.451,-1.4381,-1.4028,-1.3932,-1.3689,-1.3449,-1.3281,-1.3287,-1.3265,-1.3249,-1.327,-1.3281,-1.3303,-1.3319,-1.3363,-1.3336,-1.3428,-1.3471,-1.3482,-1.3564,-1.3586,-1.3558,-1.3575,-1.3586,-1.3488,-1.3401,-1.3346,-1.3374,-1.3346,-1.3346,-1.289,-1.289,-1.289,-1.289,-1.289,-1.289,-1.289,-1.289,-1.289,-1.289,-1.289,-1.289,-1.289,-1.289,-1.289,-1.289,-1.289,-1.2895,-1.295,-1.3037,-1.3069,-1.3129,-1.3227,-1.3232,-1.3183,-1.3096,-1.3064,-1.3004,-1.2906,-1.2895,-1.289,-1.289,-1.2901,-1.2895,-1.2901,-1.2912,-1.2895,-1.2922,-1.3009,-1.3064,-1.3091,-1.3292,-1.3352,-1.3173,-1.3351,-1.3248,-1.3259,-1.3158,-1.3043,-1.3164,-1.2865,-1.2959,-1.3153,-1.3164,-1.2953,-1.3048,-1.3152,-1.3182,-1.3248,-1.3178,-1.3053,-1.3031,-1.295,-1.289,-1.289,-1.289,-1.289,-1.299,-1.299,-1.319,-1.359,-1.3684,-1.359,-1.3184,-1.309,-1.319,-1.369,-1.369,-1.3884,-1.4383,-1.4488,-1.465,-1.4754,-1.4672,-1.4828,-1.4908,-1.4867,-1.4777,-1.4367,-1.4173,-1.3928,-1.3592,-1.3406,-1.3374,-1.3287,-1.3346,-1.3406,-1.3423,-1.3471,-1.3558,-1.358,-1.3597,-1.3591,-1.3591,-1.3597,-1.3602,-1.3602,-1.3602,-1.3602,-1.3569,-1.3558,-1.3537,-1.3493,-1.3564,-1.3569,-1.289,-1.289,-1.289,-1.289,-1.289,-1.289,-1.289,-1.289,-1.289,-1.289,-1.289,-1.289,-1.289,-1.289,-1.289,-1.289,-1.2895,-1.2966,-1.2988,-1.2982,-1.3107,-1.3162,-1.3129,-1.3134,-1.3113,-1.3064,-1.2993,-1.2933,-1.2906,-1.2966,-1.296,-1.2928,-1.3042,-1.308,-1.3031,-1.308,-1.3113,-1.3113,-1.3156,-1.3178,-1.3189,-1.3336,-1.3401,-1.3363,-1.3439,-1.3526,-1.3602,-1.3488,-1.3477,-1.3602,-1.3564,-1.3558,-1.3597,-1.3607,-1.3607,-1.3597,-1.3488,-1.3423,-1.3401,-1.327,-1.3145,-1.3075,-1.3031,-1.2971,-1.2906,-1.289,-1.289,-1.289,-1.289,-1.299,-1.309,-1.319,-1.329,-1.339,-1.339,-1.359,-1.4083,-1.4183,-1.4383,-1.4894,-1.5357,-1.5675,-1.5786,-1.5832,-1.5851,-1.5903,-1.5673,-1.5415,-1.5233,-1.5075,-1.4627,-1.4255,-1.4062,-1.3946,-1.3488,-1.3504,-1.3537,-1.3548,-1.3575,-1.3586,-1.3607,-1.3629,-1.3629,-1.3645,-1.3645,-1.3645,-1.3662,-1.364,-1.3635,-1.3656,-1.3656,-1.3689,-1.3602,-1.3711,-1.3738,-1.2922,-1.289,-1.289,-1.289,-1.289,-1.289,-1.2912,-1.2944,-1.2944,-1.2966,-1.2993,-1.3004,-1.3004,-1.3004,-1.3004,-1.2977,-1.295,-1.2993,-1.2988,-1.2966,-1.3113,-1.3145,-1.308,-1.3069,-1.3053,-1.3004,-1.2928,-1.2922,-1.3004,-1.3086,-1.3102,-1.308,-1.3227,-1.3238,-1.3156,-1.32,-1.3238,-1.3243,-1.3276,-1.3298,-1.3314,-1.3417,-1.3482,-1.3482,-1.3477,-1.3515,-1.3602,-1.3526,-1.3515,-1.3591,-1.3607,-1.3607,-1.3607,-1.3607,-1.3607,-1.3597,-1.3531,-1.3477,-1.3466,-1.3368,-1.3265,-1.3189,-1.3145,-1.3086,-1.3009,-1.2999,-1.2999,-1.2999,-1.2999,-1.2993,-1.3067,-1.3184,-1.3374,-1.3713,-1.369,-1.3989,-1.4682,-1.4819,-1.5069,-1.5636,-1.6017,-1.6334,-1.6558,-1.6585,-1.6523,-1.6659,-1.6346,-1.6191,-1.6002,-1.5746,-1.5388,-1.4762,-1.444,-1.4224,-1.3902,-1.3819,-1.3602,-1.3607,-1.3651,-1.3651,-1.3667,-1.3678,-1.3694,-1.3705,-1.3716,-1.3716,-1.3705,-1.3684,-1.37,-1.3738,-1.383,-1.3896,-1.3874,-1.3885,-1.3912,-1.3004,-1.2917,-1.2895,-1.2917,-1.2922,-1.2922,-1.2971,-1.3058,-1.3075,-1.3118,-1.3189,-1.3216,-1.32,-1.3221,-1.3194,-1.3162,-1.3069,-1.2988,-1.2977,-1.3037,-1.3069,-1.3075,-1.3053,-1.3064,-1.3031,-1.2944,-1.2906,-1.302,-1.3216,-1.3238,-1.3281,-1.3385,-1.3401,-1.3363,-1.3238,-1.3265,-1.3265,-1.3287,-1.3374,-1.3423,-1.3433,-1.3531,-1.3586,-1.3591,-1.3591,-1.3591,-1.3607,-1.3597,-1.3597,-1.3602,-1.3607,-1.3607,-1.3607,-1.3607,-1.3607,-1.3607,-1.3597,-1.3602,-1.3586,-1.3488,-1.3417,-1.3374,-1.3303,-1.3232,-1.32,-1.32,-1.32,-1.3194,-1.32,-1.3178,-1.3203,-1.3661,-1.3932,-1.3742,-1.3907,-1.4337,-1.5125,-1.5415,-1.5747,-1.6266,-1.6524,-1.6585,-1.67,-1.6748,-1.6795,-1.6897,-1.6937,-1.6735,-1.6308,-1.6118,-1.5914,-1.5394,-1.4973,-1.4762,-1.4392,-1.4114,-1.3879,-1.3656,-1.3722,-1.3754,-1.3781,-1.3803,-1.3819,-1.3836,-1.3847,-1.3852,-1.3841,-1.3825,-1.3863,-1.3912,-1.4015,-1.4053,-1.4026,-1.4015,-1.4108,-1.3162,-1.3129,-1.3129,-1.3129,-1.3129,-1.3129,-1.3156,-1.3183,-1.3183,-1.3205,-1.3232,-1.3238,-1.3238,-1.3243,-1.3238,-1.3221,-1.3183,-1.314,-1.3069,-1.2982,-1.3037,-1.3031,-1.2982,-1.3031,-1.3091,-1.3124,-1.3129,-1.3205,-1.3336,-1.3363,-1.339,-1.3428,-1.351,-1.3477,-1.3374,-1.3444,-1.3493,-1.3493,-1.3526,-1.3548,-1.3548,-1.358,-1.3602,-1.3607,-1.3607,-1.3607,-1.3607,-1.3607,-1.3607,-1.3607,-1.3607,-1.3607,-1.3607,-1.3607,-1.3607,-1.3607,-1.3607,-1.3607,-1.3602,-1.3569,-1.3504,-1.3439,-1.3385,-1.3325,-1.3254,-1.3249,-1.3249,-1.3243,-1.3238,-1.3319,-1.3717,-1.3934,-1.4171,-1.4213,-1.4748,-1.5234,-1.5802,-1.6077,-1.6306,-1.6543,-1.668,-1.6748,-1.6863,-1.6904,-1.6917,-1.6965,-1.6978,-1.6873,-1.6768,-1.6663,-1.6453,-1.592,-1.5605,-1.5208,-1.4833,-1.4602,-1.4327,-1.4001,-1.3938,-1.3874,-1.3901,-1.3934,-1.3955,-1.3972,-1.3983,-1.3993,-1.3983,-1.3983,-1.4015,-1.4021,-1.4059,-1.4075,-1.4075,-1.4162,-1.4292,-1.3281,-1.3243,-1.3238,-1.3238,-1.3238,-1.3238,-1.3265,-1.3303,-1.3308,-1.333,-1.3368,-1.3379,-1.3374,-1.3374,-1.3374,-1.3346,-1.3308,-1.3308,-1.32,-1.3047,-1.3086,-1.3086,-1.3031,-1.3091,-1.3162,-1.3221,-1.3238,-1.3325,-1.3482,-1.3488,-1.351,-1.3569,-1.3635,-1.3607,-1.3504,-1.3564,-1.3607,-1.3607,-1.3602,-1.3607,-1.3607,-1.3607,-1.3607,-1.3607,-1.3607,-1.3607,-1.3607,-1.3607,-1.3607,-1.3607,-1.3607,-1.3607,-1.3607,-1.3607,-1.3607,-1.3607,-1.3607,-1.3607,-1.3607,-1.3602,-1.3575,-1.3504,-1.3488,-1.3461,-1.339,-1.3374,-1.3374,-1.3374,-1.3379,-1.3565,-1.4054,-1.4446,-1.4771,-1.5043,-1.5469,-1.5995,-1.6523,-1.6714,-1.6802,-1.6904,-1.6917,-1.6944,-1.6965,-1.6978,-1.6978,-1.6978,-1.6978,-1.6978,-1.6978,-1.6978,-1.6663,-1.6472,-1.6202,-1.5798,-1.5287,-1.507,-1.4877,-1.4468,-1.4166,-1.4097,-1.4021,-1.4075,-1.4108,-1.4135,-1.4151,-1.4211,-1.4205,-1.4156,-1.4156,-1.414,-1.4211,-1.4358,-1.4472,-1.4461,-1.4553,-1.3363,-1.3259,-1.3259,-1.3276,-1.3281,-1.3281,-1.3341,-1.3423,-1.3433,-1.3493,-1.3586,-1.3597,-1.3613,-1.3618,-1.3607,-1.3542,-1.3455,-1.3428,-1.3379,-1.3287,-1.3276,-1.3259,-1.3238,-1.3243,-1.327,-1.3287,-1.3287,-1.3401,-1.3607,-1.3591,-1.3667,-1.3749,-1.3738,-1.3716,-1.3607,-1.3607,-1.3607,-1.3607,-1.3607,-1.3607,-1.3607,-1.3607,-1.3607,-1.3607,-1.3607,-1.3607,-1.3607,-1.3607,-1.3607,-1.3607,-1.3607,-1.3607,-1.3607,-1.3607,-1.3607,-1.3607,-1.3607,-1.3607,-1.3607,-1.3607,-1.3597,-1.3586,-1.3586,-1.3602,-1.3569,-1.3553,-1.3553,-1.3558,-1.3669,-1.3857,-1.4453,-1.509,-1.5636,-1.6021,-1.6184,-1.6485,-1.7035,-1.7175,-1.7168,-1.7182,-1.7195,-1.7161,-1.706,-1.7046,-1.7039,-1.7032,-1.7032,-1.7019,-1.7012,-1.7019,-1.6992,-1.6828,-1.669,-1.6318,-1.5917,-1.5853,-1.5542,-1.4799,-1.4501,-1.4332,-1.4135,-1.4184,-1.4222,-1.4254,-1.4298,-1.4369,-1.4396,-1.433,-1.439,-1.4499,-1.4624,-1.4803,-1.4787,-1.4689,-1.4673,-1.3537,-1.351,-1.3504,-1.351,-1.351,-1.351,-1.352,-1.3558,-1.3558,-1.3629,-1.3722,-1.3738,-1.3781,-1.3852,-1.377,-1.3716,-1.3673,-1.3597,-1.3548,-1.3515,-1.351,-1.345,-1.339,-1.3374,-1.3417,-1.3482,-1.3488,-1.3586,-1.3722,-1.3645,-1.3667,-1.3776,-1.37,-1.3645,-1.3607,-1.3607,-1.3607,-1.3607,-1.3607,-1.3607,-1.3607,-1.3607,-1.3607,-1.3607,-1.3607,-1.3607,-1.3607,-1.3607,-1.3607,-1.3607,-1.3607,-1.3607,-1.3607,-1.3607,-1.3607,-1.3607,-1.3607,-1.3607,-1.3607,-1.3607,-1.3607,-1.3607,-1.3607,-1.3607,-1.3607,-1.3607,-1.3607,-1.3713,-1.3924,-1.4481,-1.5057,-1.5773,-1.6382,-1.7049,-1.6996,-1.6949,-1.7317,-1.7358,-1.7358,-1.7358,-1.7358,-1.7331,-1.7283,-1.7263,-1.7263,-1.7243,-1.7175,-1.7107,-1.7066,-1.7053,-1.7026,-1.7114,-1.6976,-1.6829,-1.6599,-1.6538,-1.6197,-1.5231,-1.4833,-1.4686,-1.4476,-1.4271,-1.4292,-1.4309,-1.4363,-1.4428,-1.4466,-1.4455,-1.4619,-1.4776,-1.4754,-1.4782,-1.4744,-1.4678,-1.4695,-1.3607,-1.3607,-1.3607,-1.3635,-1.3678,-1.3678,-1.3705,-1.3749,-1.3754,-1.3787,-1.3847,-1.3857,-1.3896,-1.3944,-1.389,-1.3857,-1.3847,-1.3787,-1.3754,-1.3743,-1.37,-1.3613,-1.3526,-1.3499,-1.3537,-1.3597,-1.3607,-1.3635,-1.3684,-1.3635,-1.3651,-1.3684,-1.364,-1.3607,-1.3607,-1.3607,-1.3607,-1.3607,-1.3607,-1.3607,-1.3607,-1.3607,-1.3607,-1.3607,-1.3607,-1.3607,-1.3607,-1.3607,-1.3607,-1.3607,-1.3607,-1.3607,-1.3607,-1.3607,-1.3607,-1.3607,-1.3607,-1.3607,-1.3607,-1.3607,-1.3607,-1.3607,-1.3607,-1.3607,-1.3607,-1.3607,-1.3607,-1.3924,-1.4281,-1.4986,-1.5811,-1.6447,-1.7169,-1.754,-1.7575,-1.7514,-1.7602,-1.7616,-1.7575,-1.7541,-1.7507,-1.7453,-1.7358,-1.7331,-1.7297,-1.7222,-1.7121,-1.7093,-1.7073,-1.7066,-1.7107,-1.7216,-1.7338,-1.7217,-1.6998,-1.693,-1.6438,-1.5569,-1.4813,-1.4775,-1.4575,-1.4358,-1.4369,-1.4385,-1.4434,-1.4494,-1.4564,-1.464,-1.4754,-1.4831,-1.4771,-1.4776,-1.4787,-1.4771,-1.4782,-1.3613,-1.3624,-1.3624,-1.3694,-1.3798,-1.3809,-1.3852,-1.3939,-1.3934,-1.395,-1.3972,-1.3977,-1.3999,-1.3993,-1.3999,-1.3972,-1.3977,-1.3934,-1.3934,-1.3901,-1.3841,-1.3749,-1.3667,-1.3629,-1.3645,-1.3673,-1.3645,-1.3651,-1.3667,-1.364,-1.3613,-1.3624,-1.3607,-1.3607,-1.3607,-1.3607,-1.3607,-1.3607,-1.3607,-1.3607,-1.3607,-1.3607,-1.3607,-1.3607,-1.3607,-1.3607,-1.3607,-1.3607,-1.3607,-1.3607,-1.3607,-1.3607,-1.3607,-1.3607,-1.3607,-1.3607,-1.3607,-1.3607,-1.3607,-1.3607,-1.3607,-1.3607,-1.3607,-1.3607,-1.3607,-1.3624,-1.3857,-1.4281,-1.4691,-1.5414,-1.6352,-1.7182,-1.7574,-1.7806,-1.7833,-1.7853,-1.786,-1.786,-1.7812,-1.769,-1.7663,-1.7507,-1.7365,-1.7229,-1.7195,-1.7344,-1.7229,-1.7175,-1.7175,-1.7175,-1.7256,-1.7372,-1.75,-1.7636,-1.7429,-1.7327,-1.6681,-1.591,-1.4909,-1.4502,-1.4535,-1.4434,-1.4445,-1.4472,-1.4532,-1.4635,-1.4754,-1.4836,-1.489,-1.4923,-1.4901,-1.4939,-1.4977,-1.4945,-1.4934,-1.3656,-1.3749,-1.3749,-1.3814,-1.3912,-1.3923,-1.3934,-1.3961,-1.3961,-1.4015,-1.408,-1.4097,-1.4146,-1.4227,-1.414,-1.4102,-1.4086,-1.4021,-1.3961,-1.3955,-1.3939,-1.3912,-1.3857,-1.3803,-1.3798,-1.3847,-1.3874,-1.383,-1.377,-1.3738,-1.37,-1.3624,-1.3629,-1.3607,-1.3613,-1.3613,-1.3607,-1.3607,-1.3607,-1.3607,-1.3607,-1.3602,-1.3708,-1.3708,-1.3708,-1.3607,-1.3607,-1.3607,-1.3607,-1.3607,-1.3713,-1.3708,-1.3708,-1.3607,-1.3713,-1.3708,-1.3607,-1.3607,-1.3607,-1.3607,-1.3607,-1.3607,-1.3607,-1.3607,-1.3613,-1.3694,-1.4052,-1.4613,-1.5141,-1.5902,-1.71,-1.7594,-1.7806,-1.7853,-1.786,-1.786,-1.786,-1.786,-1.784,-1.7799,-1.7724,-1.7663,-1.7677,-1.746,-1.7412,-1.7446,-1.7385,-1.7304,-1.729,-1.7297,-1.7433,-1.7575,-1.7697,-1.784,-1.7719,-1.7366,-1.6485,-1.583,-1.5039,-1.4499,-1.4532,-1.4542,-1.4564,-1.4597,-1.4635,-1.4754,-1.4869,-1.4885,-1.4907,-1.4967,-1.5015,-1.5015,-1.5021,-1.5037,-1.5037,-1.3727,-1.3792,-1.3841,-1.3934,-1.4031,-1.4042,-1.4042,-1.4042,-1.4042,-1.4075,-1.4129,-1.4135,-1.4205,-1.4314,-1.4254,-1.4222,-1.4211,-1.4162,-1.4129,-1.4118,-1.4086,-1.4075,-1.4102,-1.401,-1.3966,-1.3972,-1.3955,-1.3917,-1.3879,-1.3863,-1.3836,-1.3765,-1.3716,-1.37,-1.3673,-1.364,-1.3607,-1.3607,-1.3607,-1.3607,-1.3607,-1.3819,-1.413,-1.4235,-1.413,-1.403,-1.4446,-1.4446,-1.4446,-1.4341,-1.4341,-1.4235,-1.4024,-1.3924,-1.3924,-1.3924,-1.403,-1.3813,-1.3708,-1.3607,-1.3607,-1.3607,-1.3607,-1.3645,-1.3678,-1.376,-1.4243,-1.495,-1.5596,-1.6275,-1.7512,-1.7799,-1.786,-1.786,-1.786,-1.786,-1.786,-1.786,-1.786,-1.7853,-1.7799,-1.7751,-1.769,-1.7575,-1.7507,-1.7473,-1.7534,-1.7467,-1.748,-1.7514,-1.7677,-1.7812,-1.7928,-1.7925,-1.7907,-1.7397,-1.6294,-1.5627,-1.4964,-1.4662,-1.4706,-1.4706,-1.47,-1.4733,-1.4765,-1.4831,-1.4923,-1.4923,-1.4939,-1.4994,-1.5026,-1.5037,-1.5037,-1.5037,-1.5037,-1.3809,-1.3847,-1.3944,-1.4053,-1.4151,-1.4146,-1.4146,-1.4162,-1.4118,-1.4118,-1.4156,-1.4151,-1.4205,-1.4298,-1.432,-1.432,-1.4314,-1.4309,-1.4282,-1.4271,-1.42,-1.4216,-1.4243,-1.4189,-1.4113,-1.4021,-1.4037,-1.4021,-1.3993,-1.3977,-1.3955,-1.3934,-1.3863,-1.3814,-1.3787,-1.37,-1.3645,-1.3651,-1.3724,-1.3819,-1.3924,-1.4241,-1.4762,-1.4973,-1.4762,-1.4762,-1.5072,-1.5178,-1.5178,-1.5283,-1.5283,-1.5078,-1.4762,-1.4551,-1.4551,-1.4557,-1.4551,-1.4341,-1.3919,-1.3819,-1.3718,-1.3624,-1.3635,-1.3694,-1.3781,-1.396,-1.4559,-1.5404,-1.6166,-1.6724,-1.7736,-1.786,-1.786,-1.786,-1.786,-1.786,-1.786,-1.786,-1.786,-1.7853,-1.7799,-1.7745,-1.7704,-1.7623,-1.7561,-1.7528,-1.7595,-1.7656,-1.7684,-1.7717,-1.7853,-1.8002,-1.8111,-1.7583,-1.743,-1.7313,-1.6308,-1.5407,-1.4858,-1.4798,-1.4852,-1.4858,-1.4852,-1.4869,-1.4907,-1.495,-1.4977,-1.4988,-1.501,-1.5037,-1.5037,-1.5037,-1.5037,-1.5037,-1.5037,-1.3901,-1.408,-1.4102,-1.4178,-1.4265,-1.4178,-1.4184,-1.4243,-1.4059,-1.4108,-1.4249,-1.4184,-1.4195,-1.4287,-1.432,-1.432,-1.4309,-1.4314,-1.4314,-1.4309,-1.4276,-1.4303,-1.4303,-1.4287,-1.426,-1.4265,-1.4238,-1.4184,-1.4124,-1.4102,-1.4069,-1.3983,-1.3944,-1.3928,-1.3901,-1.3819,-1.3754,-1.3957,-1.4108,-1.4175,-1.4469,-1.4768,-1.5184,-1.5388,-1.5283,-1.5283,-1.5283,-1.5388,-1.5283,-1.5283,-1.5283,-1.5493,-1.5611,-1.54,-1.519,-1.5184,-1.5178,-1.4868,-1.4364,-1.4252,-1.4091,-1.3834,-1.3861,-1.3916,-1.4025,-1.4118,-1.4816,-1.5754,-1.684,-1.7612,-1.7853,-1.786,-1.786,-1.786,-1.786,-1.786,-1.786,-1.786,-1.786,-1.786,-1.7785,-1.7738,-1.7724,-1.7717,-1.769,-1.7677,-1.7717,-1.7846,-1.7935,-1.7941,-1.7975,-1.8124,-1.8274,-1.7602,-1.6934,-1.6825,-1.632,-1.5406,-1.4852,-1.489,-1.4945,-1.4988,-1.5005,-1.4972,-1.4972,-1.4999,-1.5026,-1.5037,-1.5037,-1.5037,-1.5037,-1.5037,-1.5037,-1.5037,-1.5037,-1.3977,-1.4135,-1.4135,-1.4167,-1.42,-1.4097,-1.4042,-1.4026,-1.3923,-1.3966,-1.4075,-1.4075,-1.4108,-1.4216,-1.4303,-1.4292,-1.4254,-1.4303,-1.4282,-1.4254,-1.4287,-1.432,-1.432,-1.432,-1.432,-1.4314,-1.4314,-1.4298,-1.4238,-1.4233,-1.4189,-1.4151,-1.4091,-1.4053,-1.4026,-1.3934,-1.41,-1.4288,-1.4564,-1.4821,-1.4969,-1.5232,-1.5506,-1.6032,-1.5927,-1.592,-1.6131,-1.6131,-1.6131,-1.6236,-1.6236,-1.6341,-1.6367,-1.6406,-1.6096,-1.5841,-1.5716,-1.5543,-1.5063,-1.4975,-1.4927,-1.4825,-1.474,-1.4798,-1.4891,-1.5081,-1.5486,-1.6322,-1.7242,-1.786,-1.786,-1.786,-1.786,-1.786,-1.786,-1.786,-1.786,-1.786,-1.786,-1.786,-1.7826,-1.7812,-1.784,-1.7826,-1.7819,-1.7833,-1.786,-1.7989,-1.8152,-1.8165,-1.8145,-1.8219,-1.8248,-1.7758,-1.6958,-1.6694,-1.6306,-1.5386,-1.4934,-1.4972,-1.4994,-1.5021,-1.5032,-1.5021,-1.5037,-1.5037,-1.5037,-1.5037,-1.5037,-1.5037,-1.5048,-1.5048,-1.5043,-1.5037,-1.5064,-1.4026,-1.4135,-1.4113,-1.4102,-1.4086,-1.3972,-1.389,-1.3825,-1.377,-1.3836,-1.3944,-1.3944,-1.4004,-1.414,-1.4243,-1.4271,-1.4184,-1.4287,-1.4265,-1.4233,-1.4276,-1.432,-1.432,-1.432,-1.432,-1.432,-1.432,-1.432,-1.4309,-1.4303,-1.4314,-1.4276,-1.4205,-1.4173,-1.4151,-1.4271,-1.4445,-1.4748,-1.5152,-1.541,-1.5741,-1.5854,-1.6109,-1.6961,-1.6637,-1.6657,-1.6889,-1.7001,-1.7001,-1.6994,-1.6988,-1.7087,-1.7093,-1.7182,-1.6969,-1.6452,-1.632,-1.6179,-1.5811,-1.5747,-1.5696,-1.55,-1.5729,-1.5802,-1.5888,-1.5949,-1.631,-1.6956,-1.7535,-1.786,-1.786,-1.786,-1.786,-1.786,-1.786,-1.786,-1.786,-1.786,-1.786,-1.786,-1.786,-1.7867,-1.788,-1.7968,-1.7968,-1.805,-1.8077,-1.8138,-1.828,-1.8335,-1.8335,-1.8348,-1.8208,-1.7882,-1.7358,-1.6932,-1.6273,-1.5221,-1.4994,-1.501,-1.5021,-1.5037,-1.5037,-1.5037,-1.5037,-1.5037,-1.5037,-1.5037,-1.5037,-1.5043,-1.5059,-1.5081,-1.5108,-1.5146,-1.5189,-1.4026,-1.4124,-1.4021,-1.3977,-1.3961,-1.3857,-1.3857,-1.3896,-1.3711,-1.3754,-1.4042,-1.3976,-1.3934,-1.4233,-1.4365,-1.4298,-1.4298,-1.4409,-1.4409,-1.437,-1.4298,-1.432,-1.432,-1.432,-1.432,-1.432,-1.432,-1.432,-1.432,-1.432,-1.432,-1.4309,-1.4303,-1.4292,-1.437,-1.4723,-1.4891,-1.5196,-1.5862,-1.655,-1.6961,-1.7036,-1.7123,-1.7237,-1.723,-1.7224,-1.7311,-1.7311,-1.7324,-1.7331,-1.7344,-1.7358,-1.7372,-1.7378,-1.7392,-1.7264,-1.7157,-1.7049,-1.6524,-1.6423,-1.6372,-1.616,-1.6082,-1.5937,-1.6224,-1.6599,-1.6943,-1.6975,-1.7535,-1.7867,-1.786,-1.786,-1.786,-1.786,-1.786,-1.786,-1.786,-1.786,-1.786,-1.786,-1.786,-1.788,-1.7887,-1.8016,-1.8124,-1.8219,-1.8301,-1.8342,-1.8342,-1.8355,-1.8464,-1.8464,-1.8349,-1.7895,-1.7421,-1.7006,-1.6203,-1.5154,-1.5037,-1.5037,-1.5037,-1.5037,-1.5037,-1.5037,-1.5037,-1.5037,-1.5037,-1.5037,-1.5037,-1.507,-1.5119,-1.5162,-1.52,-1.5249,-1.5298,-1.3928,-1.4026,-1.3906,-1.3863,-1.3847,-1.3732,-1.3711,-1.3732,-1.3656,-1.37,-1.3938,-1.413,-1.4559,-1.4989,-1.5191,-1.5203,-1.511,-1.4952,-1.4719,-1.4592,-1.4509,-1.432,-1.432,-1.432,-1.432,-1.432,-1.432,-1.432,-1.432,-1.432,-1.432,-1.4431,-1.4653,-1.4864,-1.4869,-1.5372,-1.5796,-1.6193,-1.6763,-1.7229,-1.7419,-1.7473,-1.7426,-1.7426,-1.7426,-1.7433,-1.7433,-1.7419,-1.7419,-1.7419,-1.7419,-1.7419,-1.7446,-1.7494,-1.7548,-1.7555,-1.7629,-1.7514,-1.7235,-1.7114,-1.7077,-1.7059,-1.6989,-1.7131,-1.719,-1.7314,-1.7535,-1.7535,-1.7756,-1.7867,-1.786,-1.786,-1.786,-1.786,-1.786,-1.786,-1.786,-1.786,-1.786,-1.786,-1.7874,-1.7921,-1.7989,-1.8138,-1.824,-1.8294,-1.8342,-1.8362,-1.8294,-1.8199,-1.8355,-1.8552,-1.8322,-1.8126,-1.7408,-1.6902,-1.6203,-1.5387,-1.5037,-1.5037,-1.5037,-1.5037,-1.5037,-1.5037,-1.5037,-1.5037,-1.5043,-1.5053,-1.507,-1.5124,-1.5184,-1.5249,-1.5304,-1.5331,-1.5369,-1.3819,-1.3857,-1.3776,-1.3743,-1.3732,-1.364,-1.3607,-1.3607,-1.3607,-1.3762,-1.4058,-1.4547,-1.5242,-1.5748,-1.5821,-1.5857,-1.5845,-1.5604,-1.536,-1.5127,-1.4819,-1.4536,-1.4542,-1.4431,-1.432,-1.432,-1.432,-1.432,-1.432,-1.4431,-1.4542,-1.4542,-1.498,-1.5202,-1.5535,-1.5973,-1.652,-1.7171,-1.7422,-1.7594,-1.7684,-1.7602,-1.7561,-1.7541,-1.7528,-1.7528,-1.7528,-1.7541,-1.7548,-1.7548,-1.7561,-1.7575,-1.7582,-1.765,-1.7697,-1.7717,-1.7779,-1.7785,-1.7615,-1.7601,-1.7765,-1.7819,-1.786,-1.7736,-1.7743,-1.786,-1.786,-1.786,-1.786,-1.786,-1.786,-1.786,-1.786,-1.786,-1.786,-1.786,-1.786,-1.786,-1.7867,-1.788,-1.7928,-1.8043,-1.8131,-1.828,-1.8362,-1.8382,-1.8396,-1.8396,-1.8321,-1.8213,-1.8369,-1.862,-1.8531,-1.8185,-1.7305,-1.6669,-1.6087,-1.5504,-1.5154,-1.5037,-1.5037,-1.5037,-1.5037,-1.5037,-1.5043,-1.5081,-1.5102,-1.5102,-1.5108,-1.5184,-1.526,-1.5352,-1.5412,-1.5439,-1.5478,-1.3727,-1.3629,-1.3624,-1.3624,-1.3624,-1.3613,-1.3607,-1.3607,-1.3607,-1.393,-1.451,-1.5236,-1.5735,-1.5991,-1.6212,-1.628,-1.6182,-1.6089,-1.6077,-1.585,-1.5418,-1.5202,-1.498,-1.4764,-1.4431,-1.4431,-1.4542,-1.4542,-1.4542,-1.498,-1.5091,-1.5202,-1.5424,-1.5646,-1.6089,-1.665,-1.7092,-1.7639,-1.7826,-1.7826,-1.7826,-1.7799,-1.7792,-1.7799,-1.7812,-1.7833,-1.7826,-1.7792,-1.7779,-1.7772,-1.7765,-1.7765,-1.7758,-1.7792,-1.7812,-1.7819,-1.7833,-1.784,-1.7819,-1.7812,-1.784,-1.7853,-1.786,-1.786,-1.786,-1.786,-1.786,-1.786,-1.786,-1.786,-1.786,-1.786,-1.786,-1.786,-1.786,-1.786,-1.786,-1.786,-1.7874,-1.7894,-1.7968,-1.8084,-1.8226,-1.8362,-1.8484,-1.8518,-1.847,-1.847,-1.8504,-1.8443,-1.8538,-1.8681,-1.8721,-1.8271,-1.7233,-1.6553,-1.6203,-1.5621,-1.5037,-1.5037,-1.5037,-1.5037,-1.5037,-1.5048,-1.5059,-1.5119,-1.5179,-1.5222,-1.526,-1.5276,-1.5342,-1.545,-1.5543,-1.5592,-1.5635,-1.3645,-1.3607,-1.3607,-1.3607,-1.3607,-1.3607,-1.3607,-1.3708,-1.3919,-1.4657,-1.5419,-1.5993,-1.6474,-1.68,-1.7099,-1.7197,-1.7197,-1.676,-1.665,-1.6428,-1.6089,-1.5757,-1.5646,-1.5535,-1.543,-1.5319,-1.543,-1.543,-1.5535,-1.5646,-1.5979,-1.62,-1.6206,-1.6428,-1.676,-1.7203,-1.7646,-1.7749,-1.786,-1.786,-1.786,-1.786,-1.786,-1.786,-1.786,-1.786,-1.7853,-1.786,-1.786,-1.786,-1.786,-1.786,-1.786,-1.786,-1.786,-1.786,-1.786,-1.786,-1.786,-1.786,-1.786,-1.786,-1.786,-1.786,-1.786,-1.786,-1.786,-1.786,-1.786,-1.786,-1.786,-1.786,-1.786,-1.786,-1.786,-1.786,-1.786,-1.786,-1.7894,-1.7921,-1.8016,-1.8131,-1.828,-1.843,-1.8552,-1.8647,-1.8593,-1.8545,-1.8572,-1.8606,-1.866,-1.8708,-1.8749,-1.8181,-1.7135,-1.6786,-1.6436,-1.5737,-1.5037,-1.5037,-1.5037,-1.5037,-1.5043,-1.5053,-1.5102,-1.5173,-1.526,-1.5363,-1.5412,-1.5418,-1.5478,-1.5565,-1.5652,-1.5717,-1.5738,-1.3607,-1.3607,-1.3607,-1.3607,-1.3607,-1.3607,-1.3713,-1.3919,-1.4241,-1.5108,-1.6215,-1.6661,-1.7014,-1.7439,-1.7738,-1.786,-1.7749,-1.7424,-1.7314,-1.6982,-1.665,-1.6428,-1.6317,-1.6206,-1.5985,-1.6089,-1.6089,-1.6089,-1.5979,-1.6311,-1.6539,-1.6871,-1.721,-1.7203,-1.7314,-1.7646,-1.786,-1.786,-1.786,-1.786,-1.786,-1.786,-1.786,-1.786,-1.786,-1.786,-1.786,-1.786,-1.786,-1.786,-1.786,-1.786,-1.786,-1.786,-1.786,-1.786,-1.786,-1.786,-1.786,-1.786,-1.786,-1.786,-1.786,-1.786,-1.786,-1.786,-1.786,-1.786,-1.786,-1.786,-1.786,-1.786,-1.786,-1.786,-1.786,-1.786,-1.786,-1.7867,-1.7914,-1.7962,-1.8063,-1.8152,-1.8301,-1.8443,-1.8538,-1.8647,-1.8667,-1.8613,-1.8579,-1.8626,-1.8681,-1.8721,-1.8755,-1.8065,-1.7135,-1.6902,-1.643,-1.5504,-1.5037,-1.5037,-1.5037,-1.5043,-1.5081,-1.5124,-1.5179,-1.5244,-1.5342,-1.5461,-1.5521,-1.5554,-1.5613,-1.5662,-1.569,-1.5738,-1.5744,-1.3607,-1.3607,-1.3607,-1.3607,-1.3708,-1.3607,-1.3924,-1.4346,-1.4557,-1.525,-1.6418,-1.7016,-1.7372,-1.7609,-1.7758,-1.7833,-1.786,-1.786,-1.7749,-1.7646,-1.7203,-1.6982,-1.6871,-1.665,-1.6533,-1.62,-1.6311,-1.6422,-1.6311,-1.676,-1.6982,-1.7203,-1.7535,-1.7756,-1.7867,-1.786,-1.786,-1.786,-1.786,-1.786,-1.786,-1.786,-1.786,-1.786,-1.786,-1.786,-1.786,-1.786,-1.786,-1.786,-1.786,-1.786,-1.786,-1.786,-1.786,-1.786,-1.786,-1.786,-1.786,-1.786,-1.786,-1.786,-1.786,-1.786,-1.786,-1.786,-1.786,-1.786,-1.786,-1.786,-1.786,-1.786,-1.786,-1.786,-1.786,-1.786,-1.786,-1.7914,-1.7968,-1.8043,-1.8091,-1.8165,-1.8314,-1.8443,-1.8518,-1.8606,-1.8687,-1.8687,-1.8633,-1.8654,-1.8715,-1.8735,-1.8762,-1.8065,-1.7251,-1.7019,-1.6553,-1.5504,-1.5043,-1.5048,-1.5064,-1.5086,-1.513,-1.5189,-1.5276,-1.5363,-1.5461,-1.557,-1.5603,-1.5641,-1.569,-1.5733,-1.5749,-1.5755,-1.5755,-1.3607,-1.3607,-1.3607,-1.3819,-1.4135,-1.413,-1.4241,-1.4557,-1.519,-1.6058,-1.6756,-1.7209,-1.7351,-1.7507,-1.767,-1.7785,-1.7853,-1.786,-1.786,-1.786,-1.7639,-1.7646,-1.7424,-1.7307,-1.7197,-1.7307,-1.7307,-1.7197,-1.7314,-1.7424,-1.7535,-1.7749,-1.7749,-1.786,-1.786,-1.786,-1.786,-1.786,-1.786,-1.786,-1.786,-1.786,-1.786,-1.786,-1.786,-1.786,-1.786,-1.786,-1.786,-1.786,-1.786,-1.786,-1.786,-1.786,-1.786,-1.786,-1.786,-1.786,-1.786,-1.786,-1.786,-1.786,-1.786,-1.786,-1.786,-1.786,-1.786,-1.786,-1.786,-1.786,-1.786,-1.786,-1.786,-1.786,-1.786,-1.786,-1.788,-1.7982,-1.8063,-1.8145,-1.8206,-1.8375,-1.8531,-1.8525,-1.8572,-1.8633,-1.8721,-1.8742,-1.8701,-1.8708,-1.8749,-1.8749,-1.8646,-1.7949,-1.7484,-1.7154,-1.6466,-1.5421,-1.5075,-1.5081,-1.5097,-1.514,-1.5222,-1.5304,-1.5396,-1.5483,-1.5565,-1.5635,-1.5679,-1.5722,-1.5744,-1.5755,-1.5755,-1.5755,-1.5755,-1.3607,-1.3607,-1.3813,-1.403,-1.4346,-1.4452,-1.4551,-1.5078,-1.6032,-1.6683,-1.6974,-1.7216,-1.7365,-1.7514,-1.7656,-1.7751,-1.786,-1.7806,-1.7846,-1.784,-1.7806,-1.7819,-1.784,-1.786,-1.7749,-1.786,-1.786,-1.786,-1.7749,-1.786,-1.786,-1.786,-1.786,-1.786,-1.786,-1.786,-1.786,-1.786,-1.786,-1.786,-1.786,-1.786,-1.786,-1.786,-1.786,-1.786,-1.786,-1.786,-1.786,-1.786,-1.786,-1.786,-1.786,-1.786,-1.786,-1.786,-1.786,-1.786,-1.786,-1.786,-1.786,-1.786,-1.786,-1.786,-1.786,-1.786,-1.786,-1.786,-1.786,-1.786,-1.786,-1.786,-1.7867,-1.7867,-1.7874,-1.788,-1.7975,-1.807,-1.8179,-1.826,-1.8321,-1.8525,-1.8667,-1.866,-1.864,-1.8701,-1.8762,-1.8762,-1.8762,-1.8762,-1.8762,-1.8762,-1.8646,-1.8065,-1.7509,-1.7086,-1.6274,-1.522,-1.5108,-1.5113,-1.5189,-1.5244,-1.5331,-1.5412,-1.5483,-1.5554,-1.563,-1.569,-1.5722,-1.5738,-1.5749,-1.5755,-1.5755,-1.5755,-1.5755,-1.3607,-1.3708,-1.413,-1.4452,-1.4452,-1.4663,-1.5184,-1.6137,-1.6781,-1.7066,-1.7195,-1.7331,-1.7473,-1.7636,-1.7779,-1.784,-1.7833,-1.7724,-1.7772,-1.7792,-1.7745,-1.7779,-1.7826,-1.786,-1.786,-1.786,-1.786,-1.786,-1.786,-1.786,-1.786,-1.786,-1.786,-1.786,-1.786,-1.786,-1.786,-1.786,-1.786,-1.786,-1.786,-1.786,-1.786,-1.786,-1.786,-1.786,-1.786,-1.786,-1.786,-1.786,-1.786,-1.786,-1.786,-1.786,-1.786,-1.786,-1.786,-1.786,-1.786,-1.786,-1.786,-1.786,-1.786,-1.786,-1.786,-1.786,-1.786,-1.786,-1.786,-1.786,-1.786,-1.7867,-1.7874,-1.7887,-1.7901,-1.7968,-1.8077,-1.8186,-1.8294,-1.8362,-1.8396,-1.8511,-1.8606,-1.8633,-1.8687,-1.8721,-1.8762,-1.8762,-1.8762,-1.8762,-1.8762,-1.8762,-1.8523,-1.8175,-1.7632,-1.7086,-1.6274,-1.532,-1.513,-1.5151,-1.5244,-1.5314,-1.5369,-1.5434,-1.5537,-1.5619,-1.5684,-1.5722,-1.5744,-1.5755,-1.5755,-1.5755,-1.5755,-1.5755,-1.5755,-1.3819,-1.413,-1.4346,-1.4868,-1.5611,-1.6032,-1.6453,-1.6775,-1.708,-1.7161,-1.7202,-1.7351,-1.7514,-1.754,-1.7697,-1.7772,-1.7772,-1.7751,-1.7772,-1.7751,-1.7697,-1.7758,-1.7812,-1.786,-1.786,-1.786,-1.786,-1.786,-1.786,-1.786,-1.786,-1.786,-1.786,-1.786,-1.786,-1.786,-1.786,-1.786,-1.786,-1.786,-1.786,-1.786,-1.786,-1.786,-1.786,-1.786,-1.786,-1.786,-1.786,-1.786,-1.786,-1.786,-1.786,-1.786,-1.786,-1.786,-1.786,-1.786,-1.786,-1.786,-1.786,-1.786,-1.786,-1.786,-1.786,-1.786,-1.786,-1.786,-1.786,-1.786,-1.788,-1.7887,-1.7928,-1.7968,-1.8009,-1.8104,-1.8213,-1.8321,-1.843,-1.8491,-1.8518,-1.8572,-1.8654,-1.8674,-1.8728,-1.8749,-1.8762,-1.8762,-1.8762,-1.8762,-1.8762,-1.8762,-1.8646,-1.8291,-1.76,-1.6933,-1.6122,-1.5432,-1.5247,-1.5179,-1.5233,-1.5304,-1.5369,-1.5472,-1.5592,-1.5673,-1.5733,-1.5755,-1.5755,-1.5755,-1.5755,-1.5755,-1.5755,-1.5755,-1.5755,-1.3919,-1.4346,-1.4663,-1.5394,-1.6459,-1.6934,-1.7066,-1.708,-1.7154,-1.7243,-1.7378,-1.7473,-1.7561,-1.7636,-1.7656,-1.7663,-1.765,-1.7521,-1.7548,-1.7697,-1.7643,-1.7724,-1.7792,-1.7874,-1.786,-1.7867,-1.7867,-1.786,-1.7874,-1.7867,-1.786,-1.786,-1.786,-1.7867,-1.786,-1.786,-1.786,-1.786,-1.786,-1.786,-1.786,-1.786,-1.786,-1.786,-1.786,-1.786,-1.786,-1.786,-1.786,-1.786,-1.786,-1.786,-1.786,-1.786,-1.786,-1.786,-1.786,-1.786,-1.786,-1.786,-1.786,-1.786,-1.786,-1.786,-1.786,-1.786,-1.786,-1.786,-1.786,-1.7867,-1.7887,-1.7921,-1.8002,-1.8077,-1.8158,-1.8247,-1.8355,-1.8464,-1.8545,-1.862,-1.8667,-1.8715,-1.8755,-1.8762,-1.8762,-1.8762,-1.8762,-1.8762,-1.8762,-1.8762,-1.8762,-1.8762,-1.8646,-1.8407,-1.7723,-1.7049,-1.6385,-1.5711,-1.5269,-1.52,-1.5244,-1.5287,-1.5347,-1.5494,-1.5662,-1.5717,-1.5755,-1.5755,-1.5755,-1.5755,-1.5755,-1.5755,-1.5755,-1.5755,-1.5755,-1.403,-1.4557,-1.5178,-1.6026,-1.6893,-1.7107,-1.7168,-1.7195,-1.7188,-1.7351,-1.7568,-1.7636,-1.7623,-1.7602,-1.7595,-1.7541,-1.7473,-1.7351,-1.7433,-1.7643,-1.7575,-1.7656,-1.7853,-1.7901,-1.7955,-1.7914,-1.7894,-1.7928,-1.7907,-1.7941,-1.7975,-1.7901,-1.7935,-1.7948,-1.7928,-1.7921,-1.7907,-1.786,-1.786,-1.786,-1.786,-1.786,-1.786,-1.786,-1.786,-1.786,-1.786,-1.7853,-1.7853,-1.7853,-1.784,-1.7833,-1.786,-1.786,-1.786,-1.786,-1.786,-1.786,-1.786,-1.786,-1.786,-1.786,-1.786,-1.7887,-1.7901,-1.7874,-1.7867,-1.788,-1.7887,-1.7928,-1.7962,-1.8057,-1.8145,-1.8226,-1.8308,-1.8409,-1.8525,-1.8599,-1.8633,-1.8687,-1.8715,-1.8762,-1.8762,-1.8762,-1.8762,-1.8762,-1.8762,-1.8762,-1.8762,-1.8762,-1.8762,-1.8762,-1.8762,-1.853,-1.7859,-1.7191,-1.6679,-1.6126,-1.5537,-1.5296,-1.5195,-1.5249,-1.532,-1.5494,-1.5668,-1.5722,-1.5755,-1.5755,-1.5755,-1.5755,-1.5755,-1.5755,-1.5755,-1.5755,-1.5755,-1.4551,-1.5184,-1.6131,-1.6768,-1.6985,-1.7019,-1.71,-1.7188,-1.7195,-1.7304,-1.7473,-1.7582,-1.7575,-1.748,-1.7473,-1.7439,-1.7385,-1.7311,-1.7405,-1.7575,-1.7595,-1.7717,-1.7989,-1.8057,-1.8084,-1.8063,-1.8036,-1.8002,-1.8009,-1.8091,-1.8192,-1.8186,-1.8158,-1.8104,-1.8016,-1.8016,-1.7982,-1.7928,-1.7921,-1.7914,-1.7907,-1.788,-1.786,-1.786,-1.786,-1.7846,-1.7819,-1.7751,-1.7792,-1.7826,-1.7745,-1.7765,-1.7853,-1.7853,-1.786,-1.786,-1.7853,-1.7867,-1.7887,-1.7894,-1.7901,-1.7887,-1.7901,-1.7955,-1.7955,-1.7901,-1.7887,-1.7914,-1.7948,-1.8002,-1.807,-1.8186,-1.8294,-1.8369,-1.845,-1.8572,-1.8681,-1.8701,-1.8715,-1.8735,-1.8755,-1.8762,-1.8762,-1.8762,-1.8762,-1.8762,-1.8762,-1.8762,-1.8762,-1.8762,-1.8762,-1.8762,-1.8762,-1.8537,-1.7982,-1.7443,-1.6919,-1.6232,-1.5633,-1.5392,-1.5157,-1.5282,-1.5412,-1.5526,-1.5657,-1.5717,-1.5755,-1.5755,-1.5755,-1.5755,-1.5755,-1.5755,-1.5755,-1.5755,-1.5755,-1.4868,-1.571,-1.6663,-1.6978,-1.6992,-1.7046,-1.7121,-1.7195,-1.7263,-1.7338,-1.7419,-1.7494,-1.746,-1.7338,-1.7317,-1.7338,-1.7331,-1.7317,-1.7446,-1.7602,-1.7738,-1.7819,-1.7989,-1.8104,-1.8023,-1.7996,-1.7989,-1.7989,-1.8043,-1.8111,-1.8179,-1.8172,-1.8172,-1.8192,-1.8097,-1.8091,-1.8097,-1.807,-1.805,-1.8043,-1.8016,-1.7955,-1.7874,-1.786,-1.7812,-1.7792,-1.7717,-1.7636,-1.7609,-1.7636,-1.7575,-1.7575,-1.765,-1.7711,-1.7751,-1.7785,-1.7819,-1.7894,-1.7941,-1.7968,-1.7989,-1.8016,-1.8057,-1.8152,-1.8165,-1.8124,-1.8118,-1.8145,-1.8145,-1.8192,-1.8226,-1.8328,-1.8396,-1.847,-1.8572,-1.8681,-1.8728,-1.8735,-1.8742,-1.8749,-1.8762,-1.8762,-1.8762,-1.8762,-1.8762,-1.8762,-1.8762,-1.8762,-1.8762,-1.8762,-1.8762,-1.8762,-1.8762,-1.8762,-1.8427,-1.7787,-1.7037,-1.6332,-1.5733,-1.5414,-1.5217,-1.5374,-1.551,-1.557,-1.5641,-1.5728,-1.5755,-1.5738,-1.5749,-1.5755,-1.5755,-1.5755,-1.5755,-1.5755,-1.5755,-1.5289,-1.6236,-1.6768,-1.6978,-1.6998,-1.7107,-1.7154,-1.7188,-1.7317,-1.7378,-1.7385,-1.7412,-1.7324,-1.7236,-1.7195,-1.7209,-1.727,-1.7399,-1.7548,-1.7697,-1.784,-1.7921,-1.7941,-1.7962,-1.7982,-1.7968,-1.7948,-1.7941,-1.7955,-1.8084,-1.8131,-1.7982,-1.803,-1.8131,-1.8111,-1.8145,-1.8192,-1.8206,-1.8213,-1.826,-1.8179,-1.8043,-1.7928,-1.7833,-1.7731,-1.754,-1.7582,-1.7494,-1.7412,-1.7494,-1.7541,-1.7582,-1.7602,-1.7697,-1.7751,-1.7799,-1.788,-1.7989,-1.8077,-1.8118,-1.8192,-1.826,-1.8308,-1.8321,-1.8321,-1.8335,-1.8335,-1.8355,-1.8362,-1.8348,-1.8389,-1.8457,-1.8525,-1.8572,-1.8674,-1.8749,-1.8755,-1.8762,-1.8762,-1.8762,-1.8762,-1.8762,-1.8769,-1.8769,-1.8762,-1.8762,-1.8762,-1.8762,-1.8762,-1.8762,-1.8762,-1.8762,-1.8762,-1.8762,-1.8653,-1.8144,-1.729,-1.6679,-1.6097,-1.5678,-1.5271,-1.5385,-1.5472,-1.5526,-1.5603,-1.5679,-1.5706,-1.5695,-1.5711,-1.5749,-1.5755,-1.5755,-1.5755,-1.5755,-1.5755,-1.6131,-1.6873,-1.6985,-1.6978,-1.6985,-1.7012,-1.7019,-1.7046,-1.7182,-1.7236,-1.7297,-1.7365,-1.7338,-1.7202,-1.7195,-1.727,-1.7467,-1.7568,-1.7684,-1.7833,-1.7955,-1.8023,-1.8043,-1.803,-1.8111,-1.8063,-1.7996,-1.8036,-1.7989,-1.8138,-1.8247,-1.8179,-1.8328,-1.8314,-1.8138,-1.8213,-1.8328,-1.8308,-1.8287,-1.8314,-1.8186,-1.807,-1.7989,-1.7867,-1.7724,-1.7595,-1.746,-1.7317,-1.7405,-1.7555,-1.767,-1.769,-1.7711,-1.7724,-1.7799,-1.7853,-1.7941,-1.8057,-1.8145,-1.8192,-1.826,-1.8301,-1.8328,-1.8375,-1.8403,-1.8464,-1.8491,-1.8565,-1.8552,-1.8477,-1.8504,-1.8613,-1.8687,-1.8681,-1.8742,-1.8749,-1.8755,-1.8762,-1.8762,-1.8762,-1.8762,-1.8769,-1.8789,-1.8782,-1.8776,-1.8776,-1.8769,-1.8769,-1.8762,-1.8762,-1.8762,-1.8762,-1.8762,-1.8762,-1.8762,-1.8293,-1.7544,-1.7049,-1.635,-1.5706,-1.5411,-1.5358,-1.5434,-1.5472,-1.5532,-1.5608,-1.5624,-1.5662,-1.57,-1.5733,-1.5749,-1.5755,-1.5755,-1.5755,-1.5755]}]]